Date StartTime U_cm/s V_cm/s W_cm/s Ustd_cm/s Vstd_cm/s Wstd_cm/s Uvar_(cm/s)^2 Vvar_(cm/s)^2 Wvar_(cm/s)^2 KE_(m/s)^2 TurbulentKE_(m/s)^2 HorizWindSpeed_cm/s FrictionSpeec_cm/s DragCoef SpeedOfSound_m/s SonicTemperature_C Pressure_mb 
10/20/2013  00:00:00     -120.113      -29.772      -15.290       16.867       17.777       12.328      284.500      316.034      151.987        0.815        0.038      123.748        8.022        0.004      337.554        9.607      865.179
10/20/2013  00:01:00      -92.399      -39.334      -17.737       16.828       21.107       11.864      283.194      445.487      140.765        0.563        0.043      100.423        9.565        0.009      337.505        9.524      865.182
10/20/2013  00:02:00      -82.608      -27.330      -12.325       14.818       14.962       11.146      219.582      223.861      124.225        0.415        0.028       87.011        4.453        0.003      337.486        9.492      865.180
10/20/2013  00:03:00      -92.945      -44.296      -12.227       16.672       21.337       15.571      277.969      455.288      242.451        0.586        0.049      102.961        9.240        0.008      337.515        9.541      865.169
10/20/2013  00:04:00     -110.773      -39.341       -9.138       18.698       22.112       14.427      349.614      488.952      208.132        0.747        0.052      117.552        8.321        0.005      337.502        9.519      865.157
10/20/2013  00:05:00      -81.764      -29.725      -15.019       12.069       14.267        9.733      145.653      203.533       94.735        0.412        0.022       86.999        5.837        0.005      337.535        9.575      865.154
10/20/2013  00:06:00      -87.906      -32.177      -15.420        8.988       10.467        8.779       80.790      109.555       77.063        0.463        0.013       93.609        1.267        0.000      337.541        9.584      865.159
10/20/2013  00:07:00      -96.866      -38.395      -16.123        7.303        7.138        6.596       53.338       50.958       43.504        0.563        0.007      104.198        3.405        0.001      337.514        9.537      865.163
10/20/2013  00:08:00     -110.013      -41.676      -11.278       11.363        9.038        6.050      129.123       81.680       36.601        0.711        0.012      117.643        2.467        0.000      337.591        9.669      865.167
10/20/2013  00:09:00     -103.280      -41.673      -11.166       11.868       12.962        7.393      140.854      168.008       54.659        0.645        0.018      111.371        4.156        0.001      337.557        9.613      865.173
10/20/2013  00:10:00      -80.863      -31.561      -11.420       12.243       13.214       11.657      149.884      174.605      135.880        0.406        0.023       86.804        3.241        0.001      337.613        9.706      865.168
10/20/2013  00:11:00      -83.360      -19.897       -6.552       12.419       14.033       12.718      154.232      196.915      161.745        0.395        0.026       85.701        8.555        0.010      337.557        9.611      865.178
10/20/2013  00:12:00      -93.499       -6.332      -13.690       17.860       12.627       11.193      318.983      159.438      125.285        0.479        0.030       93.713        9.598        0.010      337.498        9.512      865.185
10/20/2013  00:13:00     -111.265      -16.191       -7.487       19.573       13.925       11.599      383.119      193.916      134.543        0.670        0.036      112.437       11.505        0.010      337.413        9.370      865.176
10/20/2013  00:14:00     -111.361      -37.349      -12.404        9.405       11.126        8.185       88.454      123.794       66.997        0.711        0.014      117.458        6.363        0.003      337.443        9.420      865.173
10/20/2013  00:15:00     -108.152      -38.761      -10.195        7.582        7.756        7.098       57.483       60.152       50.383        0.674        0.008      114.888        3.009        0.001      337.473        9.472      865.170
10/20/2013  00:16:00     -129.877      -42.119      -16.323       10.138       11.744        7.739      102.776      137.923       59.884        0.960        0.015      136.536        3.058        0.001      337.379        9.312      865.159
10/20/2013  00:17:00     -115.633      -37.114      -10.361       32.082       22.083       18.597     1029.248      487.674      345.830        0.836        0.093      121.443       18.635        0.024      337.213        9.035      865.146
10/20/2013  00:18:00      -91.030      -39.720        1.587       26.953       20.422       13.566      726.442      417.061      184.040        0.560        0.066       99.319       11.528        0.013      337.110        8.861      865.135
10/20/2013  00:19:00     -111.642      -44.879        1.242       25.005       21.022       14.487      625.231      441.911      209.874        0.788        0.064      120.325       11.636        0.009      337.140        8.912      865.121
10/20/2013  00:20:00     -131.551      -58.203        5.670       42.675       25.374       19.113     1821.155      643.851      365.307        1.178        0.142      143.852       22.042        0.023      337.237        9.076      865.112
10/20/2013  00:21:00      -97.013      -27.955        3.791       40.567       25.429       18.516     1645.656      646.610      342.849        0.642        0.132      100.961       15.851        0.025      337.173        8.969      865.106
10/20/2013  00:22:00     -102.359      -27.998       -6.633       34.686       19.054       15.232     1203.092      363.045      232.011        0.655        0.090      106.119       17.514        0.027      337.232        9.068      865.094
10/20/2013  00:23:00      -98.448      -35.860        0.903       32.241       22.678       16.314     1039.456      514.281      266.132        0.640        0.091      104.775       17.781        0.029      337.169        8.961      865.103
10/20/2013  00:24:00     -109.810      -20.466       -4.645       24.842       18.207       14.917      617.100      331.509      222.516        0.683        0.059      111.701       13.980        0.016      337.188        8.995      865.109
10/20/2013  00:25:00     -132.660      -17.890       -9.899       25.281       17.307       10.119      639.119      299.515      102.385        0.953        0.052      133.861        9.406        0.005      337.128        8.891      865.107
10/20/2013  00:26:00     -121.643      -32.260      -10.642       19.254       16.228       12.156      370.710      263.341      147.763        0.837        0.039      125.848        8.334        0.004      337.201        9.015      865.114
10/20/2013  00:27:00      -98.732      -36.129       -7.480       21.058       16.998       14.145      443.450      288.922      200.071        0.602        0.047      105.135       12.683        0.015      337.074        8.803      865.120
10/20/2013  00:28:00      -96.002      -25.345       -5.902       22.670       15.407       13.295      513.909      237.369      176.750        0.541        0.046       99.291       13.191        0.018      337.097        8.840      865.114
10/20/2013  00:29:00     -114.258      -28.015       -9.972       13.678       12.057        9.883      187.079      145.370       97.676        0.718        0.022      117.642        7.413        0.004      337.112        8.866      865.125
10/20/2013  00:30:00     -102.363      -35.819      -12.779       15.318       14.149        9.008      234.637      200.198       81.143        0.622        0.026      108.449        5.116        0.002      337.128        8.892      865.129
10/20/2013  00:31:00     -111.432      -30.306      -10.682       17.507       17.689       11.144      306.480      312.911      124.197        0.710        0.037      115.479       10.108        0.008      337.078        8.807      865.127
10/20/2013  00:32:00      -98.111      -16.789      -10.291       28.303       20.739       16.063      801.051      430.124      258.031        0.575        0.074       99.537       16.326        0.027      336.966        8.621      865.120
10/20/2013  00:33:00      -79.943       -6.561       -9.436       24.219       16.156       15.131      586.550      261.002      228.937        0.380        0.054       80.212       15.056        0.035      336.967        8.624      865.116
10/20/2013  00:34:00      -68.602      -19.011       -8.234       24.894       15.264        7.761      619.701      232.991       60.236        0.302        0.046       71.188        6.328        0.008      336.935        8.570      865.092
10/20/2013  00:35:00     -101.437      -35.898      -11.177       16.648       17.108       11.157      277.162      292.686      124.484        0.620        0.035      107.602       10.087        0.009      336.890        8.495      865.088
10/20/2013  00:36:00      -83.255      -43.130      -13.593       13.118       12.449       11.177      172.094      154.977      124.920        0.471        0.023       93.763        5.138        0.003      336.948        8.593      865.088
10/20/2013  00:37:00      -97.106      -38.619      -16.212       21.022       14.723       11.905      441.908      216.755      141.727        0.599        0.040      104.504        7.264        0.005      336.959        8.609      865.073
10/20/2013  00:38:00     -128.801      -27.600      -14.211       13.844       10.341        9.894      191.651      106.932       97.890        0.897        0.020      131.725        8.703        0.004      336.929        8.559      865.054
10/20/2013  00:39:00     -140.987      -37.864      -14.066       16.183       18.656       13.581      261.885      348.045      184.446        1.115        0.040      145.983        9.737        0.004      336.845        8.420      865.062
10/20/2013  00:40:00     -174.761      -33.806      -27.411       23.334       21.437       15.563      544.498      459.551      242.215        1.684        0.062      178.001       11.058        0.004      336.869        8.458      865.050
10/20/2013  00:41:00     -146.578      -71.409      -18.997       34.103       33.603       21.028     1162.996     1129.173      442.170        1.484        0.137      163.047       13.368        0.007      336.733        8.235      865.031
10/20/2013  00:42:00      -92.632      -65.963       -3.726       50.015       39.554       27.224     2501.490     1564.496      741.126        0.888        0.240      113.718       21.227        0.035      336.705        8.186      865.018
10/20/2013  00:43:00     -107.205      -50.059       -5.169       37.004       30.004       20.095     1369.325      900.254      403.790        0.835        0.134      118.316       15.327        0.017      336.766        8.288      865.009
10/20/2013  00:44:00     -132.608      -34.123       -6.837       16.412       17.993       13.074      269.368      323.760      170.941        0.978        0.038      136.928        6.291        0.002      336.787        8.322      864.997
10/20/2013  00:45:00     -111.259      -35.249      -11.091       36.839       23.775       17.533     1357.108      565.242      307.421        0.799        0.111      116.709       17.914        0.024      336.739        8.243      864.998
10/20/2013  00:46:00     -141.060      -43.467      -16.018       18.516       17.989       14.260      342.840      323.604      203.342        1.146        0.043      147.606        9.594        0.004      336.714        8.201      865.004
10/20/2013  00:47:00     -113.587      -24.705       -0.579       46.534       28.335       22.602     2165.374      802.859      510.833        0.850        0.174      116.242       24.923        0.046      336.649        8.094      864.997
10/20/2013  00:48:00     -115.010      -31.416        0.741       47.526       39.305       24.414     2258.762     1544.872      596.047        0.931        0.220      119.224       22.397        0.035      336.655        8.103      864.997
10/20/2013  00:49:00      -83.776       18.964      -11.058       61.047       42.385       26.616     3726.760     1796.512      708.420        0.686        0.312       85.896       21.663        0.064      336.703        8.183      865.009
10/20/2013  00:50:00     -163.116       55.978      -10.990       49.307       38.555       28.221     2431.148     1486.494      796.411        1.729        0.236      172.454       23.701        0.019      336.910        8.529      865.009
10/20/2013  00:51:00      -81.282       -0.376       -4.904       46.548       39.039       22.622     2166.712     1524.044      511.774        0.542        0.210       81.283       23.639        0.085      336.844        8.417      865.005
10/20/2013  00:52:00      -91.178        4.096       -1.725       53.877       32.906       24.914     2902.695     1082.780      620.702        0.647        0.230       91.270       25.317        0.077      336.868        8.459      865.005
10/20/2013  00:53:00     -117.488      -46.829       -8.341       41.771       28.277       19.061     1744.777      799.575      363.338        0.949        0.145      126.477       10.079        0.006      336.728        8.225      865.011
10/20/2013  00:54:00      -81.783      -52.722       -4.005       56.227       32.239       28.681     3161.497     1039.342      822.617        0.725        0.251       97.304       30.894        0.101      336.703        8.185      865.002
10/20/2013  00:55:00      -41.477      -23.210       -0.066       55.491       40.612       28.803     3079.209     1649.341      829.620        0.391        0.278       47.529       19.001        0.160      336.737        8.239      864.997
10/20/2013  00:56:00      -42.306      -19.157       -4.480       43.795       35.072       19.952     1917.970     1230.021      398.095        0.286        0.177       46.441       21.468        0.214      336.705        8.188      864.998
10/20/2013  00:57:00      -31.926      -33.916        2.834       47.463       26.117       26.479     2252.711      682.117      701.112        0.291        0.182       46.579       22.225        0.228      336.714        8.203      864.984
10/20/2013  00:58:00      -92.067      -64.054        1.919       39.663       24.245       23.817     1573.125      587.806      567.231        0.766        0.136      112.157       20.678        0.034      336.693        8.168      864.978
10/20/2013  00:59:00     -103.572      -47.187       -3.645       27.720       34.789       19.296      768.403     1210.305      372.343        0.766        0.118      113.815       17.894        0.025      336.628        8.059      864.972
10/20/2013  01:00:00     -115.879      -57.972      -10.610       19.254       25.486       14.634      370.706      649.550      214.140        0.907        0.062      129.571       10.937        0.007      336.645        8.087      864.961
10/20/2013  01:01:00     -113.292      -78.568       -1.970       37.248       29.666       18.695     1387.444      880.068      349.491        1.081        0.131      137.870       11.078        0.006      336.663        8.118      864.968
10/20/2013  01:02:00     -102.149      -59.505       -7.617       97.601       31.925       31.987     9525.997     1019.233     1023.160        1.280        0.578      118.217       36.368        0.095      336.709        8.193      864.984
10/20/2013  01:03:00     -106.929      -25.565      -10.021       64.964       53.204       30.271     4220.274     2830.686      916.314        1.008        0.398      109.943       36.720        0.112      336.651        8.097      864.979
10/20/2013  01:04:00      -81.342      -16.365       -7.466       51.737       34.577       24.748     2676.738     1195.543      612.467        0.571        0.224       82.972       30.289        0.133      336.685        8.154      864.983
10/20/2013  01:05:00      -58.438        3.552       -5.386       34.048       21.520       14.571     1159.297      463.097      212.307        0.265        0.092       58.546       11.495        0.039      336.698        8.176      864.990
10/20/2013  01:06:00      -70.026      -37.196      -13.263       28.610       27.803       14.302      818.543      773.014      204.540        0.413        0.090       79.292       12.900        0.026      336.742        8.247      864.990
10/20/2013  01:07:00      -25.234      -26.909       -0.410       32.022       23.499       22.037     1025.426      552.221      485.623        0.171        0.103       36.889       12.931        0.123      336.726        8.224      864.989
10/20/2013  01:08:00     -103.742      -23.813      -12.837       38.826       27.672       22.323     1507.488      765.719      498.322        0.713        0.139      106.440       15.756        0.022      336.722        8.214      864.990
10/20/2013  01:09:00      -51.803      -13.871       -3.298       45.826       31.444       27.626     2100.042      988.755      763.199        0.337        0.193       53.628       26.468        0.244      336.624        8.051      864.984
10/20/2013  01:10:00      -20.401       -9.179       -2.292       29.456       19.239       13.717      867.656      370.123      188.164        0.097        0.071       22.371        7.446        0.111      336.596        8.006      864.988
10/20/2013  01:11:00      -51.717      -32.354      -11.409       39.271       23.474       23.683     1542.193      551.031      560.894        0.325        0.133       61.004       13.440        0.049      336.637        8.071      864.986
10/20/2013  01:12:00      -15.162      -21.203       14.737       48.340       35.129       23.526     2336.730     1234.063      553.462        0.251        0.206       26.066       23.986        0.847      336.605        8.021      864.985
10/20/2013  01:13:00      -88.521      -44.184       -2.784       53.203       33.975       20.749     2830.524     1154.324      430.519        0.710        0.221       98.935       19.789        0.040      336.610        8.029      864.988
10/20/2013  01:14:00     -123.423      -71.694      -17.208       27.539       19.222       18.942      758.417      369.494      358.786        1.108        0.074      142.735       12.734        0.008      336.572        7.964      864.968
10/20/2013  01:15:00      -53.271      -37.146       13.306       54.451       39.946       28.623     2964.897     1595.708      819.251        0.489        0.269       64.943       30.892        0.226      336.571        7.964      864.956
10/20/2013  01:16:00     -111.840      -31.170       -8.834       29.951       26.887       17.864      897.038      722.893      319.105        0.775        0.097      116.102       16.266        0.020      336.636        8.072      864.958
10/20/2013  01:17:00      -66.472      -50.781        4.074       67.234       41.612       21.377     4520.394     1731.545      456.965        0.686        0.335       83.649       28.592        0.117      336.612        8.031      864.953
10/20/2013  01:18:00      -63.137      -51.077       -9.602       39.295       35.833       20.075     1544.102     1284.025      403.017        0.496        0.162       81.210       19.245        0.056      336.584        7.984      864.947
10/20/2013  01:19:00      -75.720      -36.915      -23.952       19.028       17.097       12.567      362.081      292.316      157.929        0.424        0.041       84.239       10.275        0.015      336.637        8.073      864.958
10/20/2013  01:20:00      -38.911      -41.222      -12.429       23.822       18.699       18.689      567.478      349.671      349.281        0.232        0.063       56.686       15.446        0.074      336.642        8.083      864.952
10/20/2013  01:21:00      -75.593      -22.270      -10.253       36.214       26.125       18.081     1311.464      682.539      326.931        0.432        0.116       78.805       15.829        0.040      336.620        8.045      864.951
10/20/2013  01:22:00      -33.712        3.297       -8.104       10.327        7.738        6.604      106.646       59.882       43.612        0.071        0.011       33.873        5.139        0.023      336.782        8.315      864.965
10/20/2013  01:23:00      -89.821      -29.532      -11.106       29.476       17.521       13.162      868.834      306.999      173.228        0.521        0.067       94.551       10.741        0.013      336.705        8.187      864.975
10/20/2013  01:24:00      -69.806        8.175      -11.606       48.233       30.646       18.292     2326.460      939.177      334.598        0.434        0.180       70.283       22.743        0.105      336.610        8.030      864.978
10/20/2013  01:25:00      -88.980       24.829      -12.108       28.871       19.220       14.616      833.523      369.391      213.634        0.505        0.071       92.379        6.383        0.005      336.844        8.419      864.972
10/20/2013  01:26:00      -71.463       25.938       -6.444       25.634       18.498       15.866      657.106      342.193      251.740        0.354        0.063       76.025        9.538        0.016      336.990        8.661      864.963
10/20/2013  01:27:00      -10.177        0.533        1.191       22.914       10.434       10.943      525.035      108.875      119.751        0.043        0.038       10.191        6.654        0.426      336.867        8.456      864.942
10/20/2013  01:28:00      -35.077      -40.892        0.513       42.204       32.797       15.743     1781.175     1075.638      247.849        0.300        0.155       53.875       18.413        0.117      336.783        8.317      864.936
10/20/2013  01:29:00      -58.933      -51.953       -1.119       23.956       21.129       17.431      573.901      446.433      303.840        0.375        0.066       78.564       10.865        0.019      336.591        7.996      864.940
10/20/2013  01:30:00      -41.639       12.505       -7.381       11.149       18.315       14.902      124.296      335.446      222.070        0.131        0.034       43.476       11.127        0.066      336.869        8.461      864.928
10/20/2013  01:31:00      -70.375      -47.277       -1.739       32.522       19.922       15.245     1057.652      396.886      232.425        0.444        0.084       84.781        8.302        0.010      336.665        8.120      864.923
10/20/2013  01:32:00      -81.491      -34.821       -4.443       16.177       28.276       11.988      261.690      799.528      143.701        0.454        0.060       88.618        6.247        0.005      336.462        7.781      864.923
10/20/2013  01:33:00      -57.878      -40.630       -8.537       20.971       24.811       12.099      439.771      615.593      146.395        0.314        0.060       70.715        9.432        0.018      336.535        7.903      864.927
10/20/2013  01:34:00      -81.445      -43.213       -1.107       27.452       20.491       15.954      753.598      419.900      254.524        0.496        0.071       92.199       13.252        0.021      336.464        7.784      864.931
10/20/2013  01:35:00      -23.206      -40.538       -0.107       26.235       20.593        9.713      688.274      424.070       94.343        0.169        0.060       46.710        6.120        0.017      336.582        7.982      864.923
10/20/2013  01:36:00      -44.691      -32.546        5.433       27.722       21.472       17.379      768.506      461.060      302.015        0.231        0.077       55.285       16.085        0.085      336.688        8.160      864.921
10/20/2013  01:37:00      -50.436      -34.542        8.460       37.397       22.119       14.576     1398.526      489.270      212.472        0.295        0.105       61.130       16.440        0.072      336.576        7.970      864.937
10/20/2013  01:38:00      -17.519      -18.345        4.005       16.803       12.322        9.494      282.333      151.844       90.129        0.059        0.026       25.366       10.140        0.160      336.704        8.185      864.948
10/20/2013  01:39:00      -43.469      -17.334        5.337       30.984       17.922       19.003      960.025      321.182      361.112        0.193        0.082       46.798       18.188        0.151      336.628        8.058      864.956
10/20/2013  01:40:00      -76.105      -19.254       -4.762       13.477       12.038        8.118      181.639      144.912       65.897        0.329        0.020       78.503        5.226        0.004      336.553        7.934      864.964
10/20/2013  01:41:00      -53.577       -9.857       -1.193       15.236       14.398        9.252      232.140      207.304       85.600        0.175        0.026       54.476        6.978        0.016      336.521        7.879      864.968
10/20/2013  01:42:00      -54.461      -49.387        1.117       31.260       20.395       15.582      977.163      415.944      242.801        0.352        0.082       73.519       13.798        0.035      336.543        7.918      864.976
10/20/2013  01:43:00      -71.660      -35.129        1.935       23.210       15.297       11.830      538.721      234.009      139.952        0.364        0.046       79.807        7.241        0.008      336.527        7.889      864.988
10/20/2013  01:44:00      -35.416      -18.466       -1.068       20.852       11.832        8.998      434.790      140.006       80.957        0.113        0.033       39.941        7.191        0.032      336.502        7.848      864.990
10/20/2013  01:45:00      -53.612      -27.316       -1.499       23.432       16.991       14.241      549.049      288.683      202.808        0.233        0.052       60.170       13.050        0.047      336.512        7.864      864.987
10/20/2013  01:46:00      -15.552       -6.110        8.145       32.382       14.430       13.825     1048.607      208.220      191.138        0.090        0.072       16.709       13.571        0.660      336.418        7.707      864.974
10/20/2013  01:47:00      -45.019       -9.973        2.865       25.540       14.350       10.293      652.306      205.923      105.950        0.155        0.048       46.111        7.294        0.025      336.506        7.855      864.970
10/20/2013  01:48:00      -75.924      -12.474       -4.321       16.443       12.480        7.821      270.359      155.762       61.175        0.321        0.024       76.942        3.650        0.002      336.551        7.929      864.960
10/20/2013  01:49:00      -62.120      -19.542       -0.322       19.319       14.600        9.819      373.234      213.153       96.416        0.246        0.034       65.121        8.161        0.016      336.378        7.640      864.945
10/20/2013  01:50:00      -58.725        8.180        0.139       22.816       13.205        7.914      520.585      174.369       62.625        0.214        0.038       59.292        5.232        0.008      336.381        7.645      864.943
10/20/2013  01:51:00      -85.332      -17.488       -3.837       18.925       15.743       10.526      358.171      247.852      110.795        0.416        0.036       87.106        8.686        0.010      336.483        7.814      864.961
10/20/2013  01:52:00      -69.680       -8.126       -8.016       16.423       12.582        8.022      269.713      158.306       64.355        0.274        0.025       70.152        6.696        0.009      336.527        7.889      864.986
10/20/2013  01:53:00      -68.173       -0.599       -5.935       21.982       13.812        9.018      483.190      190.770       81.328        0.272        0.038       68.176        9.846        0.021      336.529        7.894      864.997
10/20/2013  01:54:00     -101.584      -16.067      -11.753       12.709       12.559        9.310      161.509      157.724       86.680        0.556        0.020      102.847        3.938        0.001      336.525        7.885      864.996
10/20/2013  01:55:00      -71.342      -17.582       -7.792       19.398       16.762       10.181      376.295      280.964      103.653        0.311        0.038       73.477        7.654        0.011      336.451        7.761      864.985
10/20/2013  01:56:00      -81.878      -31.500       -8.734       17.059       14.075        8.760      291.019      198.100       76.736        0.417        0.028       87.728        8.321        0.009      336.309        7.524      864.969
10/20/2013  01:57:00      -92.456      -12.321       -9.451       19.763       12.617        9.618      390.574      159.180       92.504        0.472        0.032       93.274        6.314        0.005      336.337        7.571      864.960
10/20/2013  01:58:00      -81.557      -14.965       -3.957       24.674       15.723       13.214      608.787      247.220      174.609        0.396        0.052       82.919       10.955        0.017      336.389        7.657      864.948
10/20/2013  01:59:00      -87.540      -17.458       -4.391       27.675       19.472       14.479      765.906      379.173      209.637        0.467        0.068       89.263       15.693        0.031      336.278        7.473      864.933
10/20/2013  02:00:00      -98.238      -19.731      -12.905       12.536       12.096       10.043      157.155      146.320      100.857        0.531        0.020      100.200        5.765        0.003      336.269        7.458      864.930
10/20/2013  02:01:00      -81.881      -28.846       -8.233       11.037       13.944       12.950      121.818      194.437      167.714        0.404        0.024       86.814        5.428        0.004      336.274        7.464      864.934
10/20/2013  02:02:00      -69.204      -25.773      -11.215       14.592       13.098       11.714      212.916      171.565      137.210        0.305        0.026       73.847        7.346        0.010      336.229        7.389      864.941
10/20/2013  02:03:00      -65.396      -11.526      -12.637       10.789       11.073       11.506      116.405      122.608      132.388        0.247        0.019       66.404        5.171        0.006      336.218        7.372      864.947
10/20/2013  02:04:00      -63.925      -12.873       -6.220        9.763       10.431        7.641       95.312      108.816       58.392        0.228        0.013       65.208        3.873        0.004      336.104        7.182      864.953
10/20/2013  02:05:00      -59.490      -16.932      -13.314       11.481        9.549        9.482      131.821       91.182       89.903        0.216        0.016       61.852        2.083        0.001      336.111        7.192      864.949
10/20/2013  02:06:00      -46.410      -26.478      -15.233       12.231        9.262        7.843      149.609       85.788       61.508        0.169        0.015       53.432        5.015        0.009      336.234        7.399      864.942
10/20/2013  02:07:00      -41.824      -30.417       -9.681       16.397       12.929       11.716      268.877      167.161      137.275        0.167        0.029       51.715        9.777        0.036      336.307        7.520      864.941
10/20/2013  02:08:00      -45.740      -25.085       -9.355       17.507       13.645        9.386      306.511      186.197       88.102        0.169        0.029       52.167        3.428        0.004      336.342        7.578      864.943
10/20/2013  02:09:00      -50.085      -32.698       -7.185       19.092       11.181       12.163      364.493      125.018      147.928        0.213        0.032       59.813        5.254        0.008      336.315        7.534      864.942
10/20/2013  02:10:00      -62.085      -26.783       -7.927       13.122       12.233        8.038      172.184      149.652       64.603        0.251        0.019       67.616        4.201        0.004      335.950        6.924      864.939
10/20/2013  02:11:00      -40.227      -29.743       -6.495       11.020        8.394        6.688      121.445       70.456       44.727        0.139        0.012       50.029        4.686        0.009      336.228        7.388      864.940
10/20/2013  02:12:00      -44.813      -11.967      -12.219       10.707       10.663        6.919      114.638      113.700       47.872        0.129        0.014       46.383        7.116        0.024      336.177        7.303      864.944
10/20/2013  02:13:00      -69.970      -17.800       -7.067        9.635       10.591        8.608       92.829      112.161       74.096        0.277        0.014       72.199        5.116        0.005      336.065        7.118      864.943
10/20/2013  02:14:00      -52.790      -21.415      -11.929        8.799        6.710        5.936       77.426       45.030       35.236        0.177        0.008       56.968        4.066        0.005      336.049        7.089      864.940
10/20/2013  02:15:00      -43.742      -31.131      -17.830       13.152       12.820        8.423      172.977      164.363       70.951        0.180        0.020       53.688        4.960        0.009      336.337        7.571      864.939
10/20/2013  02:16:00      -43.009      -30.858       -8.950       12.540       13.740        8.888      157.252      188.778       78.989        0.165        0.021       52.933        5.444        0.011      336.250        7.425      864.940
10/20/2013  02:17:00      -47.337      -36.814      -11.763       12.778       15.329        8.724      163.276      234.991       76.100        0.210        0.024       59.967        4.291        0.005      336.107        7.185      864.926
10/20/2013  02:18:00      -69.187      -21.447      -11.332        8.668        9.995        7.819       75.126       99.891       61.136        0.281        0.012       72.435        5.066        0.005      336.069        7.122      864.929
10/20/2013  02:19:00      -85.530      -30.157      -15.054       13.312        9.047        8.199      177.217       81.846       67.232        0.439        0.016       90.691        6.231        0.005      336.007        7.019      864.947
10/20/2013  02:20:00     -129.467      -40.429      -21.851       21.118       12.533       10.000      445.974      157.079       99.996        0.979        0.035      135.633        7.558        0.003      335.881        6.810      864.965
10/20/2013  02:21:00     -129.820      -22.908      -16.835       27.460       16.840       19.169      754.074      283.584      367.444        0.953        0.070      131.825       17.211        0.017      335.776        6.634      864.973
10/20/2013  02:22:00     -119.453        7.094      -11.911       26.869       15.429       13.780      721.925      238.069      189.886        0.781        0.057      119.664       13.853        0.013      335.913        6.863      864.963
10/20/2013  02:23:00      -64.312        1.175      -10.729       10.885       10.105        6.439      118.487      102.110       41.462        0.226        0.013       64.323        4.516        0.005      336.210        7.360      864.960
10/20/2013  02:24:00      -63.692      -26.927      -12.372        7.630       12.084        6.950       58.213      146.020       48.309        0.259        0.013       69.150        4.485        0.004      336.165        7.283      864.947
10/20/2013  02:25:00      -64.202       -3.327       -7.392        8.211       12.190        7.025       67.413      148.601       49.345        0.223        0.013       64.289        5.748        0.008      336.145        7.250      864.928
10/20/2013  02:26:00      -42.089       -8.570       -8.063       11.643       10.515        4.265      135.548      110.568       18.187        0.109        0.013       42.952        2.597        0.004      336.234        7.398      864.904
10/20/2013  02:27:00       -9.553      -17.878       -5.040       16.397        9.750        4.840      268.853       95.060       23.430        0.041        0.019       20.270        7.195        0.126      336.574        7.968      864.887
10/20/2013  02:28:00       17.051      -27.104       -0.974        8.887        5.360        4.747       78.972       28.730       22.530        0.058        0.007       32.021        1.903        0.004      336.835        8.405      864.871
10/20/2013  02:29:00       11.121      -12.533        0.222        8.249        6.632        5.659       68.038       43.988       32.022        0.021        0.007       16.756        2.111        0.016      336.799        8.344      864.850
10/20/2013  02:30:00      -70.039      -33.212       -8.392       33.722       19.079        8.418     1137.200      363.996       70.858        0.383        0.079       77.514        5.145        0.004      336.188        7.322      864.856
10/20/2013  02:31:00     -118.700      -31.026      -14.363       19.938       20.925       12.275      397.538      437.853      150.674        0.812        0.049      122.687        8.081        0.004      335.819        6.706      864.866
10/20/2013  02:32:00     -112.808      -24.126      -11.557       19.369       14.066       12.597      375.146      197.845      158.682        0.709        0.037      115.359       10.186        0.008      335.938        6.905      864.870
10/20/2013  02:33:00     -120.809      -10.788      -16.117       24.821       19.708       13.622      616.096      388.400      185.572        0.808        0.060      121.290       14.237        0.014      335.913        6.863      864.878
10/20/2013  02:34:00     -110.338      -56.308       -9.745       22.109       21.901       15.899      488.802      479.671      252.779        0.833        0.061      123.876       10.135        0.007      335.768        6.622      864.891
10/20/2013  02:35:00     -112.370      -33.021       -9.910       21.489       23.842       16.250      461.797      568.445      264.063        0.755        0.065      117.122       15.398        0.017      335.726        6.553      864.897
10/20/2013  02:36:00      -80.209       -9.855      -15.979       15.382       12.309       10.993      236.598      151.521      120.856        0.365        0.025       80.813        9.466        0.014      335.888        6.821      864.893
10/20/2013  02:37:00      -73.162      -30.201       -7.065       24.395       15.710       12.019      595.100      246.795      144.448        0.365        0.049       79.151       12.192        0.024      335.913        6.863      864.890
10/20/2013  02:38:00      -52.475      -28.711       -3.678       14.376       14.364        9.290      206.666      206.320       86.300        0.205        0.025       59.816        6.440        0.012      335.852        6.762      864.885
10/20/2013  02:39:00      -53.291      -25.578      -12.544       19.260       17.042       11.960      370.945      290.420      143.036        0.223        0.040       59.111       10.052        0.029      335.936        6.901      864.895
10/20/2013  02:40:00      -80.755      -11.918      -10.503       21.141       24.114       16.856      446.947      581.472      284.122        0.404        0.066       81.630       15.289        0.035      335.927        6.886      864.898
10/20/2013  02:41:00      -60.835      -14.621      -11.829       15.878       18.527       13.472      252.118      343.246      181.507        0.242        0.039       62.567        9.646        0.024      335.892        6.827      864.886
10/20/2013  02:42:00      -63.581      -18.422      -16.450       16.403       19.774       11.558      269.053      391.006      133.597        0.272        0.040       66.196       10.838        0.027      335.957        6.937      864.879
10/20/2013  02:43:00      -94.886      -45.913      -16.297       22.213       17.438       12.655      493.406      304.081      160.150        0.617        0.048      105.410       11.244        0.011      335.781        6.643      864.880
10/20/2013  02:44:00     -126.250      -39.228      -22.163       25.093       21.847       13.088      629.668      477.308      171.284        0.962        0.064      132.204       11.281        0.007      335.538        6.240      864.892
10/20/2013  02:45:00      -56.745      -23.143       -8.405       38.188       29.191       18.986     1458.303      852.135      360.479        0.325        0.134       61.283       19.436        0.101      335.605        6.350      864.891
10/20/2013  02:46:00      -58.100      -16.681       -7.996       20.944       18.901       15.068      438.666      357.254      227.040        0.237        0.051       60.447       11.519        0.036      335.685        6.483      864.880
10/20/2013  02:47:00      -88.370      -11.734      -13.781       25.843       19.518       15.221      667.861      380.958      231.691        0.471        0.064       89.145       11.543        0.017      335.702        6.513      864.882
10/20/2013  02:48:00      -69.301       -9.020       -6.562       22.366       25.411       13.110      500.228      645.729      171.861        0.312        0.066       69.886       13.899        0.040      335.766        6.617      864.876
10/20/2013  02:49:00      -79.258      -17.554      -12.599       20.554       23.848       11.822      422.462      568.732      139.756        0.394        0.057       81.178        4.424        0.003      335.791        6.660      864.871
10/20/2013  02:50:00      -63.096      -10.944      -10.054       18.979       15.620       14.275      360.214      243.971      203.768        0.250        0.040       64.039       11.738        0.034      335.801        6.677      864.879
10/20/2013  02:51:00      -67.053      -14.521      -14.121       17.049       13.931       11.005      290.666      194.065      121.116        0.276        0.030       68.607        8.982        0.017      336.015        7.034      864.882
10/20/2013  02:52:00      -84.841      -10.826      -18.576       19.630       14.184       11.113      385.335      201.195      123.490        0.419        0.036       85.529        6.844        0.006      335.898        6.839      864.879
10/20/2013  02:53:00      -53.979      -20.048      -18.390       18.792       15.620       10.602      353.130      243.992      112.394        0.218        0.035       57.581        8.572        0.022      335.951        6.926      864.890
10/20/2013  02:54:00      -43.700      -25.582       -6.152       12.197       11.164        9.392      148.778      124.645       88.204        0.148        0.018       50.637        6.278        0.015      336.362        7.612      864.886
10/20/2013  02:55:00      -47.724      -19.291      -14.441       18.312       13.721       11.205      335.347      188.260      125.550        0.175        0.032       51.476        9.946        0.037      336.416        7.705      864.883
10/20/2013  02:56:00      -76.120      -13.570      -15.610       13.293       11.017       10.418      176.694      121.366      108.531        0.331        0.020       77.320        6.300        0.007      335.828        6.722      864.870
10/20/2013  02:57:00      -78.104       -9.497      -11.909       11.005        8.649        7.934      121.111       74.804       62.956        0.330        0.013       78.680        2.802        0.001      335.787        6.654      864.862
10/20/2013  02:58:00      -79.475       -4.935      -15.633       16.472       16.090        8.158      271.327      258.879       66.545        0.359        0.030       79.628        7.457        0.009      335.871        6.794      864.856
10/20/2013  02:59:00      -32.595       -7.593       -9.421       23.722        7.149        7.084      562.712       51.111       50.177        0.094        0.033       33.467       10.475        0.098      336.246        7.420      864.843
10/20/2013  03:00:00      -15.460      -12.523        2.153       12.963       13.610        5.930      168.041      185.229       35.167        0.039        0.019       19.896        2.729        0.019      336.559        7.943      864.825
10/20/2013  03:01:00      -70.739      -26.184      -13.745       27.250       13.219        9.302      742.571      174.747       86.527        0.344        0.050       75.429       11.089        0.022      335.954        6.933      864.820
10/20/2013  03:02:00     -110.090      -23.111      -18.623       19.934       13.167        8.242      397.356      173.360       67.935        0.682        0.032      112.490        6.621        0.003      335.613        6.363      864.806
10/20/2013  03:03:00     -148.724      -24.923      -19.887       12.642       13.010       10.285      159.822      169.273      105.778        1.179        0.022      150.797        6.779        0.002      335.569        6.290      864.785
10/20/2013  03:04:00     -126.527      -23.527      -21.959       24.735       17.805       12.115      611.823      317.034      146.782        0.906        0.054      128.696        9.140        0.005      335.503        6.180      864.768
10/20/2013  03:05:00      -87.099      -32.904      -11.352       21.974       25.104       17.949      482.869      630.232      322.183        0.512        0.072       93.107       16.929        0.033      335.487        6.154      864.750
10/20/2013  03:06:00      -96.057      -29.355      -18.730       23.965       21.223       15.021      574.300      450.431      225.643        0.584        0.063      100.443       10.353        0.011      335.585        6.316      864.734
10/20/2013  03:07:00     -113.994      -52.805      -16.772       17.119       19.071       15.630      293.075      363.715      244.292        0.848        0.045      125.630       13.000        0.011      335.510        6.191      864.723
10/20/2013  03:08:00     -120.802      -70.270      -12.518       22.824       24.230       11.537      520.940      587.115      133.103        1.046        0.062      139.753        9.669        0.005      335.560        6.275      864.715
10/20/2013  03:09:00     -110.419      -48.115       -9.715       46.298       42.365       23.378     2143.460     1794.811      546.542        0.954        0.224      120.447       15.987        0.018      335.521        6.210      864.712
10/20/2013  03:10:00      -93.968      -22.080        0.570       56.895       43.232       26.147     3236.997     1869.036      683.690        0.755        0.289       96.528       24.596        0.065      335.561        6.277      864.704
10/20/2013  03:11:00      -68.352      -13.384        4.708       44.860       41.860       27.236     2012.381     1752.241      741.799        0.469        0.225       69.651       23.348        0.112      335.642        6.412      864.686
10/20/2013  03:12:00     -136.679      -56.390       -8.276       51.590       35.680       23.882     2661.564     1273.034      570.332        1.322        0.225      147.854       12.081        0.007      335.640        6.409      864.683
10/20/2013  03:13:00      -98.916      -33.944       -5.188       39.005       43.885       21.417     1521.357     1925.884      458.681        0.743        0.195      104.578       15.078        0.021      335.563        6.280      864.677
10/20/2013  03:14:00     -113.459      -23.942       -1.429       40.751       38.596       23.216     1660.644     1489.661      538.970        0.857        0.184      115.958       19.938        0.030      335.621        6.378      864.663
10/20/2013  03:15:00     -107.733      -16.840       -8.311       38.421       28.164       18.164     1476.147      793.185      329.945        0.728        0.130      109.042       13.157        0.015      335.602        6.346      864.666
10/20/2013  03:16:00      -93.837      -25.424      -11.686       22.511       21.991       15.992      506.724      483.588      255.730        0.542        0.062       97.220        9.088        0.009      335.634        6.400      864.661
10/20/2013  03:17:00      -80.293      -25.304      -11.747       23.578       19.001       18.274      555.930      361.026      333.943        0.424        0.063       84.186        9.594        0.013      335.645        6.416      864.653
10/20/2013  03:18:00      -81.084      -13.442       -4.092       21.956       20.344       20.246      482.054      413.869      409.893        0.404        0.065       82.190       11.405        0.019      335.644        6.415      864.648
10/20/2013  03:19:00      -84.121      -24.797      -13.365       20.549       23.286       14.990      422.264      542.219      224.705        0.453        0.059       87.700       10.715        0.015      335.703        6.515      864.644
10/20/2013  03:20:00     -101.375      -14.060      -13.095       26.818       19.313       15.191      719.230      372.975      230.760        0.598        0.066      102.346       13.388        0.017      335.621        6.379      864.645
10/20/2013  03:21:00      -67.096      -44.650      -14.686       23.095       20.178       17.695      533.389      407.170      313.100        0.398        0.063       80.595        9.844        0.015      335.653        6.431      864.643
10/20/2013  03:22:00      -54.730      -37.273      -13.606       18.356       24.338       17.545      336.934      592.320      307.833        0.290        0.062       66.217       13.847        0.044      335.717        6.538      864.634
10/20/2013  03:23:00      -56.976      -22.218       -7.844       26.793       26.186       23.011      717.883      685.684      529.496        0.287        0.097       61.155       12.616        0.043      335.753        6.597      864.623
10/20/2013  03:24:00      -76.968      -38.563       -8.483       27.755       28.527       13.488      770.355      813.807      181.918        0.462        0.088       86.088        9.743        0.013      335.799        6.673      864.597
10/20/2013  03:25:00      -88.999      -15.756      -10.519       22.308       29.284       16.821      497.628      857.581      282.931        0.496        0.082       90.383       16.733        0.034      335.738        6.574      864.591
10/20/2013  03:26:00     -118.632       18.703      -18.758       19.267       16.634       13.925      371.233      276.691      193.917        0.781        0.042      120.097       11.747        0.010      335.898        6.838      864.580
10/20/2013  03:27:00     -119.970        3.660      -17.960       25.660       27.886       10.006      658.429      777.625      100.119        0.813        0.077      120.026        6.182        0.003      335.933        6.896      864.566
10/20/2013  03:28:00      -85.829      -49.979      -14.024       27.292       22.940       16.337      744.880      526.242      266.890        0.580        0.077       99.320       12.670        0.016      335.757        6.605      864.573
10/20/2013  03:29:00      -62.991      -48.370      -12.649       15.119       19.462       14.271      228.580      378.778      203.665        0.364        0.041       79.420        8.297        0.011      335.683        6.480      864.574
10/20/2013  03:30:00      -24.922      -25.787        3.366       33.762       19.511       18.851     1139.906      380.671      355.378        0.159        0.094       35.862       15.829        0.195      335.666        6.454      864.575
10/20/2013  03:31:00      -59.772      -30.229       -4.753       30.922       22.989       22.465      956.179      528.514      504.686        0.325        0.099       66.981       20.352        0.092      335.711        6.528      864.576
10/20/2013  03:32:00      -78.019      -62.920       -4.455       28.045       29.495       23.560      786.544      869.960      555.080        0.614        0.111      100.229       19.984        0.040      335.578        6.305      864.574
10/20/2013  03:33:00      -66.850      -53.164      -12.157       39.694       25.958       22.848     1575.634      673.805      522.012        0.511        0.139       85.413       15.842        0.034      335.512        6.195      864.566
10/20/2013  03:34:00      -37.597      -45.416       -0.740       44.828       25.762       21.482     2009.534      663.657      461.481        0.331        0.157       58.959       12.572        0.045      335.499        6.173      864.563
10/20/2013  03:35:00     -114.328      -43.368      -11.153       25.183       19.317       16.257      634.184      373.128      264.302        0.817        0.064      122.277       14.268        0.014      335.509        6.191      864.556
10/20/2013  03:36:00     -118.782      -48.793      -12.116       12.883       17.751        9.709      165.982      315.111       94.264        0.861        0.029      128.413        8.039        0.004      335.564        6.282      864.553
10/20/2013  03:37:00     -133.396      -61.767      -17.795       18.722       15.418       14.342      350.524      237.728      205.690        1.136        0.040      147.003       12.743        0.008      335.591        6.327      864.559
10/20/2013  03:38:00     -123.287      -71.818      -10.096       24.093       26.255       17.701      580.451      689.328      313.334        1.102        0.079      142.680       16.317        0.013      335.558        6.271      864.556
10/20/2013  03:39:00     -115.695      -52.760       -9.073       42.954       28.163       16.371     1845.030      793.142      268.009        0.958        0.145      127.157       15.087        0.014      335.475        6.134      864.549
10/20/2013  03:40:00      -90.192      -34.446        1.949       49.605       33.583       22.475     2460.693     1127.841      505.124        0.671        0.205       96.546       22.797        0.056      335.511        6.194      864.544
10/20/2013  03:41:00      -77.018      -25.687       -0.942       45.137       24.626       15.528     2037.357      606.440      241.119        0.474        0.144       81.188       18.096        0.050      335.543        6.247      864.538
10/20/2013  03:42:00     -111.160      -38.271       -2.869       30.732       27.636       17.735      944.434      763.755      314.525        0.793        0.101      117.564       16.826        0.020      335.525        6.218      864.520
10/20/2013  03:43:00      -99.921      -41.408       -3.464       22.626       19.384       15.805      511.935      375.735      249.791        0.642        0.057      108.161       13.593        0.016      335.554        6.266      864.502
10/20/2013  03:44:00     -105.271      -40.685      -14.345       20.391       21.309       18.808      415.784      454.064      353.749        0.708        0.061      112.859       10.942        0.009      335.523        6.214      864.497
10/20/2013  03:45:00     -113.686      -48.639      -11.494       22.541       19.097       11.955      508.115      364.679      142.934        0.822        0.051      123.654       11.521        0.009      335.524        6.214      864.499
10/20/2013  03:46:00     -125.613      -46.028      -15.051       17.701       24.049       14.736      313.333      578.372      217.143        0.962        0.055      133.780        7.166        0.003      335.576        6.303      864.501
10/20/2013  03:47:00     -135.483      -27.386      -17.446       13.443       15.257        9.691      180.708      232.771       93.916        0.996        0.025      138.224        6.664        0.002      335.656        6.437      864.500
10/20/2013  03:48:00     -137.588      -34.652      -22.386       22.962       16.144       13.157      527.239      260.638      173.100        1.080        0.048      141.885       10.276        0.005      335.646        6.420      864.495
10/20/2013  03:49:00     -137.666      -30.161      -15.488       20.553       17.723       16.040      422.422      314.092      257.290        1.055        0.050      140.932       13.357        0.009      335.566        6.285      864.495
10/20/2013  03:50:00     -138.094      -46.171      -10.176       11.920       13.301        8.967      142.094      176.909       80.406        1.085        0.020      145.608        5.267        0.001      335.583        6.314      864.484
10/20/2013  03:51:00     -100.711      -43.049       -9.224       27.504       16.961       13.382      756.459      287.670      179.084        0.665        0.061      109.526        8.811        0.006      335.585        6.317      864.479
10/20/2013  03:52:00     -101.354      -35.595       -4.928       22.688       18.991       16.921      514.736      360.669      286.315        0.636        0.058      107.423       15.018        0.020      335.483        6.147      864.492
10/20/2013  03:53:00      -99.159      -45.288       -7.000       18.446       21.193        9.890      340.252      449.160       97.811        0.641        0.044      109.012        6.257        0.003      335.431        6.060      864.486
10/20/2013  03:54:00     -104.937      -41.954       -9.390       19.668       18.263       12.663      386.848      333.527      160.359        0.687        0.044      113.013       11.030        0.010      335.449        6.090      864.478
10/20/2013  03:55:00     -103.034      -46.157        1.134       41.791       22.100       15.525     1746.453      488.426      241.030        0.761        0.124      112.901       15.301        0.018      335.452        6.095      864.461
10/20/2013  03:56:00      -72.332      -41.275        4.860       39.418       20.329       19.653     1553.801      413.282      386.243        0.466        0.118       83.280       20.275        0.059      335.519        6.206      864.446
10/20/2013  03:57:00      -53.490      -31.013        9.132       47.751       28.595       24.882     2280.119      817.680      619.113        0.381        0.186       61.830       26.516        0.184      335.509        6.190      864.442
10/20/2013  03:58:00      -93.634      -41.217        2.678       27.124       17.745       14.510      735.692      314.893      210.547        0.587        0.063      102.304       15.485        0.023      335.480        6.142      864.449
10/20/2013  03:59:00     -102.346      -30.666       -4.820       21.640       19.752       11.688      468.303      390.148      136.609        0.622        0.050      106.841       11.361        0.011      335.479        6.140      864.452
10/20/2013  04:00:00     -100.468      -26.592       -8.933       17.169       13.903       11.405      294.772      193.302      130.076        0.575        0.031      103.928        8.776        0.007      335.439        6.074      864.458
10/20/2013  04:01:00      -87.306      -29.168       -9.365       13.457       11.919        7.359      181.082      142.074       54.148        0.447        0.019       92.050        6.466        0.005      335.466        6.118      864.464
10/20/2013  04:02:00      -81.748      -28.638       -7.887       17.433       17.606       14.924      303.920      309.979      222.722        0.420        0.042       86.619        9.575        0.012      335.426        6.052      864.475
10/20/2013  04:03:00     -115.096      -52.123       -4.883       21.683       18.697       13.507      470.159      349.596      182.428        0.849        0.050      126.348        9.657        0.006      335.336        5.901      864.475
10/20/2013  04:04:00      -99.962      -54.052       -5.534       30.875       27.643       16.869      953.263      764.108      284.569        0.747        0.100      113.640       14.918        0.017      335.273        5.795      864.468
10/20/2013  04:05:00     -130.481      -20.387       -7.422       20.253       21.358       13.893      410.179      456.171      193.015        0.928        0.053      132.064       10.105        0.006      335.271        5.794      864.456
10/20/2013  04:06:00     -117.967      -24.236      -13.243       20.051       23.532       15.144      402.059      553.763      229.329        0.793        0.059      120.430       12.041        0.010      335.263        5.780      864.447
10/20/2013  04:07:00      -86.259      -15.251       -1.187       28.579       26.069       14.177      816.780      679.574      200.980        0.469        0.085       87.597       14.498        0.027      335.314        5.865      864.431
10/20/2013  04:08:00      -69.206      -23.464       -8.474       26.917       21.859        9.965      724.508      477.806       99.299        0.336        0.065       73.075       11.242        0.024      335.349        5.924      864.413
10/20/2013  04:09:00      -82.194      -38.941      -11.498       21.021       20.631       12.091      441.866      425.623      146.199        0.471        0.051       90.952        8.631        0.009      335.407        6.018      864.399
10/20/2013  04:10:00     -122.482      -41.789      -11.043       22.541       15.501       15.060      508.087      240.272      226.818        0.892        0.049      129.414       11.192        0.007      335.476        6.135      864.398
10/20/2013  04:11:00     -102.522      -18.332       -9.432       25.679       20.112       15.549      659.428      404.485      241.780        0.612        0.065      104.148       14.884        0.020      335.388        5.987      864.409
10/20/2013  04:12:00      -91.863      -16.542      -10.570       20.449       13.216       13.327      418.162      174.650      177.617        0.480        0.039       93.340        7.764        0.007      335.489        6.156      864.415
10/20/2013  04:13:00     -108.037      -25.990      -13.397        7.021        8.306        5.771       49.289       68.990       33.310        0.634        0.008      111.119        4.125        0.001      335.850        6.758      864.417
10/20/2013  04:14:00     -115.662      -22.141      -11.579       16.954       14.192        9.152      287.427      201.413       83.765        0.729        0.029      117.763        8.370        0.005      335.633        6.398      864.424
10/20/2013  04:15:00      -89.523      -13.356       -6.688       19.880       17.424       12.874      395.228      303.589      165.734        0.455        0.043       90.514       11.795        0.017      335.480        6.141      864.429
10/20/2013  04:16:00      -92.681      -24.828      -16.366       15.283       13.361       10.497      233.566      178.528      110.185        0.500        0.026       95.949        4.481        0.002      335.509        6.190      864.437
10/20/2013  04:17:00     -119.930      -45.654       -8.225       14.353       18.435       12.368      206.006      339.867      152.957        0.862        0.035      128.325        9.482        0.005      335.472        6.130      864.434
10/20/2013  04:18:00     -111.637      -59.798       -6.746       14.847       19.756       15.384      220.445      390.284      236.670        0.847        0.042      126.644        9.489        0.006      335.267        5.785      864.440
10/20/2013  04:19:00     -101.322      -19.378      -16.804       24.772       22.303       15.429      613.630      497.406      238.057        0.614        0.067      103.158       13.805        0.018      335.217        5.703      864.436
10/20/2013  04:20:00      -88.788      -13.199      -19.808       13.094        7.432        6.595      171.452       55.233       43.492        0.436        0.014       89.764        6.096        0.005      335.469        6.123      864.431
10/20/2013  04:21:00      -97.301      -19.546      -10.006       19.022       13.523        9.512      361.841      182.883       90.486        0.529        0.032       99.245        4.249        0.002      335.421        6.043      864.439
10/20/2013  04:22:00     -117.246      -22.455      -19.432       13.238       11.263        8.749      175.254      126.849       76.548        0.750        0.019      119.377        5.007        0.002      335.397        6.003      864.454
10/20/2013  04:23:00     -114.065      -24.432      -16.582       22.973       17.128       13.352      527.741      293.374      178.270        0.744        0.050      116.652        9.319        0.006      335.318        5.871      864.461
10/20/2013  04:24:00     -122.162      -48.058       -8.533       25.705       14.849       13.046      660.730      220.495      170.204        0.918        0.053      131.275       10.664        0.007      335.299        5.841      864.460
10/20/2013  04:25:00      -60.905      -30.022        0.144       31.907       22.696       15.084     1018.073      515.087      227.537        0.319        0.088       67.902       13.061        0.037      335.265        5.781      864.446
10/20/2013  04:26:00      -51.670       -1.972       -2.930       28.849       15.810       11.908      832.283      249.944      141.795        0.195        0.061       51.708       10.753        0.043      335.244        5.748      864.430
10/20/2013  04:27:00     -112.386       -9.906      -16.232       12.823        9.046        8.913      164.438       81.825       79.445        0.666        0.016      112.822        5.024        0.002      335.385        5.983      864.426
10/20/2013  04:28:00      -89.141      -20.750      -16.740       25.960       17.863       14.109      673.938      319.073      199.055        0.492        0.060       91.525       12.519        0.019      335.329        5.890      864.421
10/20/2013  04:29:00     -104.392      -29.709      -14.343       20.261       19.474       11.467      410.521      379.234      131.494        0.645        0.046      108.537        9.939        0.008      335.308        5.853      864.420
10/20/2013  04:30:00      -99.627      -14.707      -11.865       16.016       15.503       13.428      256.506      240.335      180.317        0.548        0.034      100.707       10.766        0.011      335.238        5.739      864.417
10/20/2013  04:31:00      -73.118      -20.127       -7.242       17.312       18.705       12.520      299.713      349.872      156.748        0.330        0.040       75.837       11.230        0.022      335.249        5.757      864.408
10/20/2013  04:32:00      -78.344      -35.697      -13.985       12.432       11.809       11.101      154.564      139.460      123.232        0.401        0.021       86.093        6.921        0.006      335.238        5.737      864.422
10/20/2013  04:33:00     -106.116      -26.297      -12.529       12.233       13.235        9.673      149.642      175.165       93.558        0.626        0.021      109.326        6.521        0.004      335.145        5.585      864.443
10/20/2013  04:34:00      -74.530      -50.212       -8.183       18.558       10.703       12.738      344.413      114.552      162.259        0.438        0.031       89.866       11.465        0.016      335.143        5.582      864.449
10/20/2013  04:35:00      -61.676      -20.167       -8.743        9.037       10.127        8.184       81.666      102.552       66.975        0.227        0.013       64.889        3.379        0.003      335.160        5.609      864.441
10/20/2013  04:36:00      -57.489      -19.297      -10.236        7.021        8.316        5.456       49.295       69.157       29.769        0.197        0.007       60.641        3.415        0.003      335.203        5.680      864.431
10/20/2013  04:37:00      -77.134      -27.346       -7.127       15.007        9.224        6.091      225.198       85.087       37.097        0.355        0.017       81.838        5.254        0.004      335.184        5.648      864.426
10/20/2013  04:38:00      -86.540      -24.931        0.231       10.096        9.329        9.069      101.925       87.023       82.255        0.419        0.014       90.060        5.635        0.004      335.100        5.509      864.446
10/20/2013  04:39:00      -52.762      -24.933        4.246       24.884       16.572       13.709      619.204      274.644      187.930        0.225        0.054       58.356       12.228        0.044      335.120        5.543      864.458
10/20/2013  04:40:00      -86.976      -35.160       -9.401       16.552        6.632        6.354      273.970       43.983       40.378        0.462        0.018       93.814        2.415        0.001      335.090        5.494      864.466
10/20/2013  04:41:00     -106.958      -31.758      -15.731        8.460       13.363        9.113       71.570      178.571       83.040        0.651        0.017      111.573        4.074        0.001      335.125        5.552      864.466
10/20/2013  04:42:00      -94.096      -18.987      -10.370       20.652       13.548       13.105      426.512      183.539      171.753        0.505        0.039       95.992        8.471        0.008      335.129        5.559      864.460
10/20/2013  04:43:00      -64.533       -4.295       -6.663       14.927       11.211        9.435      222.808      125.692       89.010        0.233        0.022       64.676        4.902        0.006      335.157        5.605      864.451
10/20/2013  04:44:00      -62.267      -15.444       -8.680       10.575       13.921        6.217      111.825      193.794       38.651        0.227        0.017       64.154        5.280        0.007      335.300        5.841      864.451
10/20/2013  04:45:00      -61.105       -4.945       -9.034        9.575        8.212        6.196       91.679       67.434       38.396        0.202        0.010       61.304        4.821        0.006      335.346        5.919      864.463
10/20/2013  04:46:00      -54.285       -8.590      -11.510        8.551        9.952        6.578       73.116       99.048       43.269        0.168        0.011       54.960        4.831        0.008      335.279        5.805      864.474
10/20/2013  04:47:00      -43.121       -4.612       -2.097       10.302        8.416       10.645      106.126       70.835      113.323        0.109        0.015       43.367        7.605        0.031      335.390        5.989      864.485
10/20/2013  04:48:00      -29.677        2.489       -3.304        5.363        4.046        4.357       28.759       16.372       18.981        0.048        0.003       29.781        3.798        0.016      335.632        6.397      864.496
10/20/2013  04:49:00      -20.323      -11.186       -4.650        7.673        9.684        7.701       58.877       93.787       59.302        0.039        0.011       23.198        5.733        0.061      335.392        5.994      864.505
10/20/2013  04:50:00      -17.006      -22.732       -3.338       13.088       14.590        9.382      171.288      212.867       88.020        0.064        0.024       28.389        9.153        0.104      335.146        5.588      864.508
10/20/2013  04:51:00      -37.330      -30.914      -13.496        9.058       10.033        6.427       82.055      100.661       41.304        0.138        0.011       48.469        3.324        0.005      335.128        5.556      864.493
10/20/2013  04:52:00      -21.712      -29.991      -10.954       10.368        9.258        7.076      107.490       85.714       50.071        0.087        0.012       37.025        4.043        0.012      335.109        5.526      864.477
10/20/2013  04:53:00      -61.354      -26.003      -10.767       14.217       12.407        8.642      202.122      153.923       74.680        0.249        0.022       66.637        3.578        0.003      334.969        5.294      864.465
10/20/2013  04:54:00      -90.744       -3.789      -14.201       11.020        9.582        9.047      121.434       91.809       81.857        0.437        0.015       90.823        4.438        0.002      334.890        5.162      864.458
10/20/2013  04:55:00     -105.804        8.843      -16.187       21.634       14.474       14.450      468.026      209.484      208.801        0.621        0.044      106.173       10.955        0.011      334.772        4.965      864.455
10/20/2013  04:56:00      -63.930       26.001      -11.128       24.658       10.862        7.305      608.000      117.992       53.361        0.283        0.039       69.015       12.056        0.031      335.343        5.913      864.452
10/20/2013  04:57:00      -26.464       17.546       -3.687        7.674        9.036        6.588       58.894       81.649       43.403        0.060        0.009       31.752        4.287        0.018      335.651        6.428      864.457
10/20/2013  04:58:00      -50.398      -20.747      -10.259       11.605       18.492        8.484      134.679      341.964       71.973        0.181        0.027       54.501        6.598        0.015      335.011        5.362      864.469
10/20/2013  04:59:00      -46.596      -30.073      -11.684       14.934       13.224       12.757      223.030      174.879      162.741        0.189        0.028       55.457        5.612        0.010      334.843        5.084      864.473
10/20/2013  05:00:00      -83.368      -12.085      -10.385       23.172       18.954       12.385      536.924      359.251      153.377        0.413        0.052       84.239        6.122        0.005      334.911        5.196      864.472
10/20/2013  05:01:00      -86.260      -15.923      -15.660       19.744       27.243       19.541      389.831      742.181      381.835        0.473        0.076       87.718       10.528        0.014      334.757        4.940      864.476
10/20/2013  05:02:00      -67.432       -4.118      -13.547       18.882       13.400        8.466      356.513      179.552       71.677        0.268        0.030       67.557        6.505        0.009      334.898        5.175      864.485
10/20/2013  05:03:00      -34.463      -11.318       -4.723        8.172        7.115        6.806       66.785       50.625       46.317        0.075        0.008       36.274        4.004        0.012      335.441        6.076      864.481
10/20/2013  05:04:00      -73.633      -20.557      -13.312       17.223       18.512        8.730      296.634      342.712       76.215        0.337        0.036       76.448        6.508        0.007      334.810        5.029      864.479
10/20/2013  05:05:00      -97.171       -4.614      -18.802       18.672       11.342       12.126      348.655      128.647      147.040        0.522        0.031       97.281        9.101        0.009      334.844        5.085      864.469
10/20/2013  05:06:00      -73.857       -6.622      -15.943       13.435        7.847        8.349      180.487       61.581       69.714        0.303        0.016       74.153        6.051        0.007      334.840        5.079      864.464
10/20/2013  05:07:00      -64.673      -14.794       -7.480       15.850       14.639       10.845      251.225      214.292      117.608        0.252        0.029       66.343        6.927        0.011      334.807        5.023      864.469
10/20/2013  05:08:00      -83.302       -3.710      -11.528       21.155       13.562        9.198      447.543      183.917       84.600        0.390        0.036       83.385        8.791        0.011      334.818        5.042      864.478
10/20/2013  05:09:00      -59.477       -8.096      -14.039       13.333        9.197        6.708      177.763       84.593       45.000        0.205        0.015       60.025        6.239        0.011      334.920        5.212      864.489
10/20/2013  05:10:00      -55.435      -13.381      -13.108        7.985        7.566        5.627       63.759       57.249       31.667        0.179        0.008       57.027        2.543        0.002      335.107        5.522      864.489
10/20/2013  05:11:00      -48.050      -27.634      -14.664       11.401       14.463       10.792      129.983      209.183      116.466        0.187        0.023       55.429        6.435        0.013      334.992        5.331      864.479
10/20/2013  05:12:00      -64.327      -25.336       -9.804       28.980       16.887       15.542      839.848      285.159      241.551        0.312        0.068       69.136        8.985        0.017      334.796        5.006      864.468
10/20/2013  05:13:00      -85.866       -6.271      -18.348       13.824       10.076        9.322      191.098      101.529       86.907        0.406        0.019       86.095        7.684        0.008      334.704        4.851      864.470
10/20/2013  05:14:00      -79.845       -5.362      -13.742       13.572       10.968        8.521      184.195      120.308       72.616        0.348        0.019       80.025        6.088        0.006      334.679        4.812      864.460
10/20/2013  05:15:00      -97.299       -2.235      -17.170       14.953       10.911       11.182      223.588      119.052      125.044        0.512        0.023       97.325        4.443        0.002      334.603        4.683      864.455
10/20/2013  05:16:00      -83.640      -10.657      -11.845       11.950       11.075       10.579      142.802      122.646      111.922        0.381        0.019       84.316        5.579        0.004      334.797        5.008      864.462
10/20/2013  05:17:00      -51.261      -14.805      -11.296       16.787        9.841       11.323      281.806       96.844      128.214        0.174        0.025       53.356       12.433        0.054      335.113        5.532      864.460
10/20/2013  05:18:00      -36.210      -28.004       -4.579       16.647       11.310       12.102      277.128      127.922      146.451        0.133        0.028       45.775        5.887        0.017      334.916        5.204      864.465
10/20/2013  05:19:00      -77.117       -9.466       -8.932       15.867       13.410       10.401      251.771      179.833      108.180        0.333        0.027       77.696        8.514        0.012      334.624        4.718      864.463
10/20/2013  05:20:00     -110.697       -5.763      -18.705       17.953       10.498        9.886      322.303      110.216       97.728        0.658        0.027      110.847        5.045        0.002      334.666        4.789      864.455
10/20/2013  05:21:00     -104.407      -16.883      -17.574       14.528       12.749       11.007      211.052      162.529      121.159        0.599        0.025      105.763        4.622        0.002      334.585        4.654      864.452
10/20/2013  05:22:00      -65.092      -28.287      -10.330       18.961       17.560       14.500      359.525      308.342      210.239        0.301        0.044       70.973       13.227        0.035      334.619        4.711      864.459
10/20/2013  05:23:00      -77.091      -28.638       -9.147       24.679       24.739       17.305      609.040      612.006      299.458        0.418        0.076       82.239       11.065        0.018      334.601        4.681      864.464
10/20/2013  05:24:00      -89.601      -35.942      -10.036       34.213       35.163       17.076     1170.551     1236.429      291.601        0.606        0.135       96.541       17.569        0.033      334.568        4.627      864.459
10/20/2013  05:25:00      -61.168      -38.936      -10.972       27.891       25.051       18.010      777.930      627.562      324.354        0.355        0.086       72.509       15.251        0.044      334.599        4.677      864.452
10/20/2013  05:26:00      -99.496      -53.999       -9.787       24.193       18.740       12.471      585.307      351.194      155.529        0.700        0.055      113.205        3.722        0.001      334.539        4.578      864.448
10/20/2013  05:27:00     -106.596      -65.196      -10.083       23.292       20.810       14.608      542.537      433.042      213.399        0.845        0.059      124.953       10.637        0.007      334.528        4.559      864.464
10/20/2013  05:28:00     -120.783      -29.969      -17.701       20.210       20.091       12.253      408.443      403.645      150.131        0.838        0.048      124.445        9.843        0.006      334.550        4.596      864.468
10/20/2013  05:29:00      -83.495      -19.426       -7.899       28.274       18.134       15.407      799.435      328.845      237.365        0.439        0.068       85.725       15.518        0.033      334.551        4.599      864.464
10/20/2013  05:30:00     -113.985      -52.472      -14.172       12.273       18.593       11.980      150.620      345.715      143.510        0.829        0.032      125.482        7.654        0.004      334.520        4.548      864.471
10/20/2013  05:31:00     -131.631      -43.134      -12.180       15.951       17.825       11.265      254.422      317.729      126.904        1.002        0.035      138.519        4.548        0.001      334.527        4.558      864.485
10/20/2013  05:32:00      -88.056       -2.314       -5.935       19.718       21.946       14.283      388.817      481.644      203.997        0.443        0.054       88.087       14.363        0.027      334.515        4.538      864.498
10/20/2013  05:33:00      -70.572      -28.348       -3.552       16.997       18.510       10.649      288.915      342.613      113.402        0.327        0.037       76.053        5.405        0.005      334.659        4.779      864.490
10/20/2013  05:34:00     -101.791      -56.491       -3.705       35.914       24.488       17.080     1289.811      599.670      291.719        0.787        0.109      116.416       16.498        0.020      334.551        4.599      864.507
10/20/2013  05:35:00     -117.418      -30.129      -11.027       24.648       20.027       12.733      607.508      401.101      162.139        0.799        0.059      121.222        9.492        0.006      334.707        4.858      864.508
10/20/2013  05:36:00      -81.143      -24.404       -0.839       21.572       18.887       13.470      465.355      356.705      181.449        0.409        0.050       84.733        9.275        0.012      334.790        4.994      864.487
10/20/2013  05:37:00     -156.506      -49.468       -8.473       19.006       16.709       12.641      361.235      279.186      159.787        1.391        0.040      164.138        9.521        0.003      334.551        4.599      864.471
10/20/2013  05:38:00     -118.801      -48.402        2.215       45.796       31.264       17.994     2097.262      977.458      323.788        0.993        0.170      128.283       18.372        0.021      334.549        4.595      864.461
10/20/2013  05:39:00      -97.658      -43.994       -1.162       34.939       24.268       18.051     1220.752      588.953      325.844        0.680        0.107      107.110       18.838        0.031      334.591        4.664      864.446
10/20/2013  05:40:00     -126.890      -53.376        2.017       25.802       19.308       12.077      665.757      372.802      145.844        1.007        0.059      137.659       10.341        0.006      334.615        4.704      864.439
10/20/2013  05:41:00      -97.878      -35.866        0.429       31.700       27.761       17.594     1004.863      770.656      309.547        0.648        0.104      104.242       15.292        0.022      334.606        4.689      864.437
10/20/2013  05:42:00     -105.470      -42.794       -2.377       28.786       23.887       17.098      828.655      570.568      292.359        0.733        0.085      113.821       18.364        0.026      334.624        4.719      864.448
10/20/2013  05:43:00     -120.822      -45.008       -4.124       18.334       18.535       13.515      336.147      343.544      182.661        0.875        0.043      128.932        8.639        0.004      334.617        4.707      864.446
10/20/2013  05:44:00     -114.343      -40.125       -7.759       20.369       16.572       12.264      414.894      274.616      150.412        0.779        0.042      121.179       10.009        0.007      334.566        4.622      864.444
10/20/2013  05:45:00      -85.614      -36.984      -10.327       36.985       27.283       14.920     1367.889      744.342      222.612        0.557        0.117       93.261       13.308        0.020      334.456        4.441      864.448
10/20/2013  05:46:00      -75.312       -6.549       -3.684       36.787       27.161       20.345     1353.286      737.741      413.929        0.412        0.125       75.596       19.974        0.070      334.717        4.874      864.439
10/20/2013  05:47:00      -87.183        7.195       -5.875       28.244       30.072       17.455      797.721      904.322      304.669        0.485        0.100       87.480       10.206        0.014      334.695        4.838      864.428
10/20/2013  05:48:00      -94.877      -25.279      -11.746       29.223       26.411       14.951      853.982      697.538      223.525        0.578        0.089       98.187        9.380        0.009      334.628        4.725      864.423
10/20/2013  05:49:00      -81.138      -29.285       -2.790       31.928       27.623       17.000     1019.383      763.009      289.000        0.476        0.104       86.261       18.139        0.044      334.638        4.742      864.422
10/20/2013  05:50:00     -115.088      -25.862       -5.881       37.352       20.170       14.001     1395.141      406.818      196.039        0.797        0.100      117.958       15.997        0.018      334.730        4.893      864.413
10/20/2013  05:51:00     -104.090      -35.591       -4.794       32.457       28.937       17.230     1053.461      837.379      296.862        0.716        0.109      110.006       11.956        0.012      334.659        4.778      864.404
10/20/2013  05:52:00     -115.875      -49.041       -0.918       36.662       29.831       15.557     1344.114      889.911      242.014        0.915        0.124      125.826        8.876        0.005      334.694        4.835      864.410
10/20/2013  05:53:00     -110.082      -13.138        5.105       38.610       34.499       20.697     1490.735     1190.157      428.386        0.771        0.155      110.863       18.694        0.028      334.661        4.780      864.410
10/20/2013  05:54:00     -115.855      -66.121        0.182       33.158       27.616       19.120     1099.466      762.656      365.575        1.001        0.111      133.395       17.399        0.017      334.605        4.687      864.404
10/20/2013  05:55:00      -96.861      -40.591        4.839       56.561       37.834       24.521     3199.121     1431.388      601.300        0.814        0.262      105.023       30.715        0.086      334.596        4.674      864.409
10/20/2013  05:56:00     -122.188      -34.206       -7.224       31.996       31.778       21.190     1023.773     1009.829      449.005        0.932        0.124      126.886       18.424        0.021      334.515        4.539      864.413
10/20/2013  05:57:00     -128.685      -24.965       -8.790       31.855       25.276       21.201     1014.734      638.871      449.486        0.968        0.105      131.085       21.863        0.028      334.536        4.574      864.407
10/20/2013  05:58:00     -116.010      -23.237       -0.815       30.558       16.056       15.207      933.785      257.798      231.256        0.771        0.071      118.315       14.902        0.016      334.578        4.643      864.407
10/20/2013  05:59:00      -82.375      -23.574       -4.585       21.108       20.668       13.848      445.532      427.157      191.778        0.421        0.053       85.682       12.377        0.021      334.556        4.605      864.420
10/20/2013  06:00:00      -96.171      -33.655       -7.635       19.971       14.309       11.284      398.827      204.758      127.337        0.559        0.037      101.890       10.519        0.011      334.541        4.581      864.428
10/20/2013  06:01:00     -100.297      -41.281       -4.121       19.445       14.182       11.533      378.116      201.133      133.002        0.625        0.036      108.460       11.828        0.012      334.641        4.746      864.439
10/20/2013  06:02:00     -100.651      -42.536       -3.911       22.860       21.037       16.303      522.587      442.541      265.797        0.659        0.062      109.270       13.972        0.016      334.800        5.012      864.458
10/20/2013  06:03:00      -83.477      -44.920       -1.556       20.964       19.718       10.493      439.486      388.796      110.101        0.496        0.047       94.795        8.412        0.008      334.795        5.003      864.467
10/20/2013  06:04:00     -124.299      -35.100      -12.390       13.639       10.176        7.051      186.023      103.554       49.710        0.859        0.017      129.160        3.505        0.001      334.758        4.942      864.474
10/20/2013  06:05:00     -131.103      -17.676      -16.590       10.581       13.566        9.790      111.967      184.037       95.840        0.908        0.020      132.289        5.159        0.002      334.801        5.012      864.473
10/20/2013  06:06:00      -80.177      -21.430      -10.898       21.364       12.768       14.922      456.431      163.016      222.676        0.392        0.042       82.992       13.620        0.027      334.703        4.851      864.473
10/20/2013  06:07:00      -74.795      -26.937       -2.790       33.689       21.476       17.145     1134.943      461.221      293.952        0.411        0.095       79.497       18.375        0.053      334.667        4.791      864.490
10/20/2013  06:08:00      -44.606      -15.999        2.482       18.419       15.182       16.746      339.247      230.485      280.427        0.155        0.043       47.389       13.400        0.080      334.643        4.751      864.497
10/20/2013  06:09:00      -51.935      -30.462        3.466       40.021       19.300       20.008     1601.647      372.473      400.315        0.301        0.119       60.210       25.644        0.181      334.692        4.832      864.505
10/20/2013  06:10:00      -91.857       -3.564      -17.307       10.604       13.488        9.073      112.436      181.915       82.310        0.456        0.019       91.927        7.438        0.007      334.752        4.933      864.515
10/20/2013  06:11:00      -75.915      -17.054       -9.954       19.821       18.107       13.092      392.882      327.868      171.399        0.352        0.045       77.808       14.705        0.036      334.725        4.888      864.522
10/20/2013  06:12:00      -69.143       -9.691       -8.677       15.058       15.144        6.457      226.747      229.340       41.696        0.272        0.025       69.819        2.269        0.001      334.768        4.958      864.513
10/20/2013  06:13:00      -47.911      -21.624      -10.053       10.088        9.760        9.705      101.768       95.248       94.192        0.158        0.015       52.565        6.877        0.017      334.812        5.033      864.511
10/20/2013  06:14:00      -60.660      -38.450      -10.283       20.079       12.941        8.757      403.181      167.470       76.691        0.296        0.032       71.820        5.263        0.005      334.753        4.935      864.502
10/20/2013  06:15:00      -86.124      -37.368       -6.837       10.139       13.116        9.599      102.798      172.021       92.137        0.461        0.018       93.881        6.303        0.005      334.701        4.848      864.492
10/20/2013  06:16:00      -58.417      -28.062       -9.336       20.613       10.117        8.390      424.915      102.357       70.392        0.244        0.030       64.807        9.569        0.022      334.882        5.148      864.484
10/20/2013  06:17:00      -87.390      -22.858      -14.251       10.545       10.540        7.643      111.197      111.085       58.412        0.432        0.014       90.330        2.479        0.001      334.651        4.765      864.482
10/20/2013  06:18:00      -56.070      -26.967       -6.430       10.136        5.940        7.028      102.747       35.282       49.393        0.205        0.009       62.218        5.608        0.008      334.806        5.021      864.484
10/20/2013  06:19:00      -85.419      -38.640       -8.147       28.456       12.433        8.252      809.723      154.568       68.101        0.494        0.052       93.752        9.951        0.011      334.849        5.094      864.478
10/20/2013  06:20:00     -102.258      -19.283       -7.678       23.257       12.931        9.590      540.866      167.207       91.964        0.584        0.040      104.060       10.748        0.011      334.682        4.815      864.477
10/20/2013  06:21:00      -71.532      -15.563       -8.090       18.965       10.394        8.285      359.687      108.045       68.648        0.298        0.027       73.206        8.444        0.013      334.837        5.073      864.482
10/20/2013  06:22:00     -107.648      -21.904      -12.942       28.055       17.394       14.213      787.103      302.543      202.005        0.676        0.065      109.854       10.982        0.010      334.662        4.781      864.498
10/20/2013  06:23:00      -66.340      -22.991       -5.830       15.406       11.086        7.665      237.356      122.910       58.746        0.269        0.021       70.211        7.215        0.011      334.824        5.052      864.509
10/20/2013  06:24:00      -57.432      -34.785       -3.806       15.023        8.621        9.901      225.688       74.316       98.025        0.246        0.020       67.145        5.046        0.006      334.835        5.070      864.520
10/20/2013  06:25:00      -56.012      -23.724      -10.801       17.595       11.216        7.683      309.574      125.789       59.028        0.216        0.025       60.829        8.421        0.019      334.657        4.774      864.530
10/20/2013  06:26:00      -45.779       -8.724       -2.224       22.479       12.443        7.801      505.283      154.838       60.851        0.145        0.036       46.603       11.562        0.062      334.699        4.845      864.538
10/20/2013  06:27:00     -120.947      -18.166      -17.562       19.303       14.836       11.229      372.613      220.093      126.096        0.799        0.036      122.304        7.884        0.004      334.595        4.671      864.536
10/20/2013  06:28:00     -101.191       -6.793       -8.435       16.194       13.154       11.202      262.255      173.016      125.487        0.546        0.028      101.418        7.913        0.006      334.804        5.018      864.543
10/20/2013  06:29:00      -96.525      -33.768       -4.920       14.758       15.572       10.473      217.805      242.492      109.678        0.553        0.028      102.262        5.997        0.003      334.598        4.677      864.549
10/20/2013  06:30:00      -83.628      -16.095      -13.423       30.813       23.930        8.810      949.432      572.652       77.618        0.452        0.080       85.162        8.219        0.009      334.371        4.299      864.554
10/20/2013  06:31:00      -33.458       -0.373       -5.036        9.148       12.022        9.630       83.688      144.534       92.741        0.073        0.016       33.460        4.922        0.022      334.516        4.542      864.559
10/20/2013  06:32:00      -79.320      -30.829       -7.602       23.442       18.877       10.058      549.518      356.337      101.155        0.415        0.050       85.100        7.339        0.007      334.460        4.447      864.560
10/20/2013  06:33:00     -109.432      -13.802      -17.046       17.035       19.040       11.415      290.188      362.522      130.306        0.662        0.039      110.299        8.127        0.005      334.307        4.193      864.559
10/20/2013  06:34:00      -97.864       -9.540      -13.736       21.489       13.827       10.697      461.763      191.175      114.426        0.531        0.038       98.328        5.436        0.003      334.294        4.172      864.550
10/20/2013  06:35:00     -134.253      -44.028      -14.121       15.781       15.421       11.836      249.028      237.810      140.087        1.039        0.031      141.289        8.844        0.004      334.289        4.164      864.552
10/20/2013  06:36:00     -112.225      -41.036      -15.732       16.447       17.147       10.973      270.506      294.035      120.408        0.761        0.034      119.492        6.451        0.003      334.287        4.159      864.556
10/20/2013  06:37:00      -78.177      -29.040       -7.940       16.279       25.522       11.221      265.001      651.370      125.910        0.403        0.052       83.397        7.387        0.008      334.303        4.187      864.555
10/20/2013  06:38:00      -67.284      -11.448       -4.526       18.103       12.329       11.721      327.720      152.011      137.380        0.265        0.031       68.251        7.846        0.013      334.282        4.152      864.560
10/20/2013  06:39:00      -81.844       -7.255       -7.831       27.281       20.446       11.703      744.258      418.051      136.965        0.406        0.065       82.165       10.859        0.017      334.288        4.162      864.569
10/20/2013  06:40:00      -62.130      -30.698      -11.487       10.449       18.249       10.182      109.183      333.018      103.673        0.274        0.027       69.300        4.263        0.004      334.301        4.183      864.573
10/20/2013  06:41:00      -61.373       -9.331       -9.564       16.245       18.505        9.413      263.915      342.423       88.602        0.232        0.035       62.078        6.185        0.010      334.352        4.269      864.583
10/20/2013  06:42:00      -51.396      -22.519        1.443       22.937       18.577       12.766      526.098      345.098      162.966        0.209        0.052       56.113       14.249        0.064      334.316        4.209      864.597
10/20/2013  06:43:00      -47.280      -23.628       -5.315       11.906        9.308        6.399      141.759       86.638       40.951        0.155        0.013       52.855        5.555        0.011      334.346        4.260      864.608
10/20/2013  06:44:00      -15.130      -16.102      -10.190       22.070        9.308        6.439      487.074       86.637       41.458        0.060        0.031       22.095        6.104        0.076      334.514        4.538      864.614
10/20/2013  06:45:00      -11.754       -9.751       -2.230       12.983        5.581        5.969      168.567       31.148       35.624        0.024        0.012       15.272        7.087        0.215      334.618        4.708      864.611
10/20/2013  06:46:00      -45.352       -0.881       -9.080        8.768        4.321        5.169       76.884       18.671       26.721        0.113        0.006       45.360        4.971        0.012      334.504        4.519      864.612
10/20/2013  06:47:00      -70.062      -19.212       -9.018       15.548        8.748        8.009      241.751       76.532       64.150        0.287        0.019       72.649        2.209        0.001      334.448        4.429      864.614
10/20/2013  06:48:00      -92.400      -32.551      -20.859        6.660        8.990        7.143       44.361       80.828       51.017        0.510        0.009       97.966        2.442        0.001      334.309        4.199      864.601
10/20/2013  06:49:00      -93.942      -15.066       -9.390        9.918       12.487       11.696       98.374      155.932      136.800        0.477        0.020       95.143        6.142        0.004      334.124        3.889      864.588
10/20/2013  06:50:00     -110.245       -4.838      -15.522       20.951       11.578        8.910      438.953      134.051       79.395        0.654        0.033      110.351        6.945        0.004      334.147        3.927      864.575
10/20/2013  06:51:00      -98.483       -0.516      -12.289       26.057       14.177       11.741      678.958      201.001      137.841        0.543        0.051       98.484        7.703        0.006      334.076        3.810      864.580
10/20/2013  06:52:00     -108.765       -0.315      -15.019       22.166       12.157        8.868      491.310      147.799       78.646        0.639        0.036      108.765       10.557        0.009      334.150        3.933      864.599
10/20/2013  06:53:00      -88.857       -4.150      -11.803       18.167       11.655        9.493      330.026      135.846       90.123        0.430        0.028       88.954        6.185        0.005      334.294        4.171      864.605
10/20/2013  06:54:00      -55.456       -7.467       -2.180       14.006        8.311        8.183      196.165       69.068       66.958        0.173        0.017       55.956        7.726        0.019      334.358        4.279      864.614
10/20/2013  06:55:00      -31.396       -6.190       -6.503       11.451        8.486        6.556      131.137       72.005       42.977        0.066        0.012       32.001        2.982        0.009      334.286        4.158      864.619
10/20/2013  06:56:00       -9.191       -4.839      -10.641       15.127       23.356        8.861      228.817      545.488       78.523        0.054        0.043       10.387        6.095        0.344      334.718        4.876      864.628
10/20/2013  06:57:00       13.423       25.096       -2.555       14.995       20.423        7.642      224.851      417.115       58.407        0.076        0.035       28.460        8.417        0.087      334.886        5.156      864.639
10/20/2013  06:58:00      -11.189        1.118       -2.505       21.933       14.772       10.172      481.044      218.222      103.460        0.047        0.040       11.244       13.290        1.397      334.802        5.014      864.645
10/20/2013  06:59:00      -33.384      -12.545       -5.348       17.299       14.903       14.518      299.266      222.090      210.778        0.102        0.037       35.663        9.822        0.076      334.616        4.707      864.641
10/20/2013  07:00:00      -23.561        4.827        1.819       18.009       15.378       10.050      324.331      236.491      101.009        0.062        0.033       24.051        7.748        0.104      334.588        4.660      864.639
10/20/2013  07:01:00      -39.146      -26.711       -5.990       10.441       14.102        7.750      109.019      198.861       60.063        0.132        0.018       47.391        7.378        0.024      334.314        4.205      864.640
10/20/2013  07:02:00      -41.789        1.143       -5.759       17.472       29.966       12.182      305.288      897.989      148.406        0.157        0.068       41.805        8.010        0.037      334.668        4.793      864.654
10/20/2013  07:03:00      -23.123       -2.809        2.121       26.400       17.522       10.949      696.939      307.015      119.871        0.084        0.056       23.293        9.546        0.168      334.524        4.553      864.648
10/20/2013  07:04:00      -30.323      -32.799       -5.566       20.274       23.599       16.319      411.049      556.889      266.321        0.163        0.062       44.669       11.817        0.070      334.366        4.293      864.634
10/20/2013  07:05:00      -15.328      -25.602        3.546       24.677       20.476       18.985      608.954      419.268      360.424        0.115        0.069       29.840       10.734        0.129      334.056        3.776      864.620
10/20/2013  07:06:00      -91.660      -43.278      -12.411       30.207       15.404       19.058      912.443      237.278      363.205        0.597        0.076      101.364       18.475        0.033      334.046        3.761      864.608
10/20/2013  07:07:00     -109.382      -23.980      -19.050       14.421       13.899        9.742      207.979      193.174       94.898        0.670        0.025      111.979        9.602        0.007      334.057        3.779      864.606
10/20/2013  07:08:00     -102.920      -13.386      -19.336       12.017       10.227        8.439      144.410      104.601       71.218        0.573        0.016      103.787        4.721        0.002      334.102        3.854      864.616
10/20/2013  07:09:00      -92.551      -16.337      -13.286        7.226        8.780        6.271       52.211       77.095       39.329        0.459        0.008       93.982        3.258        0.001      334.141        3.918      864.624
10/20/2013  07:10:00      -83.158       -9.780      -14.590       15.486        9.915       11.807      239.807       98.315      139.397        0.385        0.024       83.731       10.274        0.015      334.198        4.012      864.629
10/20/2013  07:11:00      -80.918      -22.465      -11.617       12.522       11.849        9.856      156.791      140.392       97.131        0.379        0.020       83.979        7.143        0.007      334.251        4.102      864.628
10/20/2013  07:12:00      -83.429      -36.119       -7.706       18.525       14.227        9.426      343.164      202.406       88.849        0.448        0.032       90.912        6.775        0.006      334.270        4.133      864.627
10/20/2013  07:13:00      -95.124      -38.247       -9.088       12.709       13.409        9.566      161.515      179.788       91.508        0.551        0.022      102.525        9.362        0.008      334.254        4.105      864.617
10/20/2013  07:14:00     -112.446      -30.765       -5.915       12.338       11.253       11.274      152.228      126.633      127.098        0.702        0.020      116.579        6.035        0.003      334.298        4.179      864.608
10/20/2013  07:15:00      -83.958      -24.348       -1.668       23.290       11.579       11.414      542.432      134.084      130.283        0.423        0.040       87.417       12.030        0.019      334.294        4.171      864.596
10/20/2013  07:16:00      -92.697      -33.772       -4.126       22.319       16.427       10.962      498.120      269.831      120.162        0.532        0.044       98.658        9.156        0.009      334.323        4.219      864.598
10/20/2013  07:17:00     -104.568      -33.074       -4.715       20.762       18.099       13.058      431.081      327.556      170.511        0.649        0.046      109.674        9.129        0.007      334.247        4.094      864.612
10/20/2013  07:18:00      -71.744      -32.506        2.639       27.597       22.629       14.290      761.621      512.053      204.199        0.384        0.074       78.765       10.305        0.017      334.182        3.986      864.628
10/20/2013  07:19:00      -75.854      -16.316       -4.317       23.829       15.589       10.433      567.837      243.007      108.850        0.348        0.046       77.589        9.094        0.014      334.186        3.993      864.653
10/20/2013  07:20:00     -116.307       -7.024      -11.148       10.728       10.622        7.725      115.080      112.817       59.678        0.699        0.014      116.519        4.913        0.002      334.231        4.068      864.676
10/20/2013  07:21:00     -102.673      -18.231      -15.182       17.480       11.407       11.469      305.556      130.109      131.541        0.584        0.028      104.279       11.261        0.012      334.297        4.178      864.693
10/20/2013  07:22:00      -63.630       -9.498       -5.626       13.694       15.714        8.175      187.533      246.930       66.829        0.234        0.025       64.335        6.056        0.009      334.275        4.139      864.696
10/20/2013  07:23:00      -72.746      -15.210       -7.800       17.615       14.333       10.683      310.273      205.426      114.135        0.311        0.031       74.319        7.096        0.009      334.335        4.241      864.691
10/20/2013  07:24:00     -102.210      -21.472      -10.115        8.062       18.002        8.797       64.992      324.085       77.389        0.574        0.023      104.442        3.831        0.001      334.359        4.281      864.697
10/20/2013  07:25:00      -98.117      -38.783       -4.243       14.883       16.846       11.180      221.497      283.799      124.987        0.589        0.032      105.504        8.847        0.007      334.407        4.361      864.697
10/20/2013  07:26:00      -88.822      -26.863       -4.643       14.683       12.976        9.408      215.576      168.384       88.507        0.455        0.024       92.796        6.018        0.004      334.414        4.372      864.691
10/20/2013  07:27:00      -92.767      -37.345       -5.194       13.750        9.870        7.731      189.066       97.415       59.767        0.519        0.017      100.002        7.065        0.005      334.428        4.395      864.696
10/20/2013  07:28:00      -77.807      -33.568       -5.778       10.222       11.696        7.962      104.490      136.803       63.396        0.376        0.015       84.739        5.445        0.004      334.406        4.359      864.705
10/20/2013  07:29:00      -64.212      -25.738       -8.044       12.480       12.030        8.912      155.761      144.720       79.423        0.262        0.019       69.178        3.793        0.003      334.417        4.378      864.721
10/20/2013  07:30:00      -71.504      -25.452      -10.902       16.455       14.324        6.871      270.757      205.174       47.207        0.320        0.026       75.899        4.285        0.003      334.465        4.456      864.736
10/20/2013  07:31:00      -84.142      -28.580       -8.607       10.921        7.978        7.003      119.264       63.648       49.046        0.410        0.012       88.863        3.185        0.001      334.416        4.375      864.754
10/20/2013  07:32:00      -79.442      -20.824      -13.547       10.538       10.324        6.052      111.047      106.590       36.625        0.359        0.013       82.126        4.256        0.003      334.489        4.495      864.762
10/20/2013  07:33:00      -90.810      -26.160      -13.876       16.030       10.307        9.800      256.955      106.234       96.038        0.479        0.023       94.503        8.018        0.007      334.489        4.495      864.764
10/20/2013  07:34:00      -90.003      -18.055      -12.180        7.607        7.172        5.593       57.873       51.440       31.284        0.436        0.007       91.796        3.924        0.002      334.456        4.441      864.759
10/20/2013  07:35:00      -78.823       -3.404       -8.650        9.678       12.614        6.997       93.656      159.101       48.959        0.330        0.015       78.897        5.221        0.004      334.448        4.428      864.754
10/20/2013  07:36:00      -55.362      -16.248       -8.709       13.837       12.727        6.970      191.471      161.973       48.579        0.190        0.020       57.697        5.848        0.010      334.490        4.497      864.751
10/20/2013  07:37:00      -51.384      -18.926       -7.386        7.147        7.954        6.810       51.086       63.266       46.371        0.161        0.008       54.759        3.505        0.004      334.489        4.494      864.772
10/20/2013  07:38:00      -48.533       -7.388      -13.333        7.317        7.823        7.105       53.542       61.206       50.475        0.138        0.008       49.092        3.994        0.007      334.577        4.640      864.795
10/20/2013  07:39:00      -37.550      -10.391        1.148       11.082        8.142        9.691      122.808       66.294       93.912        0.090        0.014       38.961        7.381        0.036      334.566        4.622      864.816
10/20/2013  07:40:00      -71.105      -23.634      -11.492       11.668       10.843        9.345      136.147      117.562       87.336        0.304        0.017       74.930        2.279        0.001      334.537        4.575      864.832
10/20/2013  07:41:00      -72.916      -11.579      -14.510       17.572       14.776        8.724      308.791      218.341       76.101        0.313        0.030       73.829        7.461        0.010      334.388        4.329      864.849
10/20/2013  07:42:00      -43.183       -7.715       -9.094        8.569        8.138        6.144       73.425       66.228       37.755        0.109        0.009       43.867        2.727        0.004      334.392        4.334      864.861
10/20/2013  07:43:00      -26.194       -5.424       -5.771       13.083        7.679        7.196      171.163       58.967       51.788        0.052        0.014       26.749        5.732        0.046      334.524        4.554      864.866
10/20/2013  07:44:00      -26.017       -8.486       -6.398        7.453        6.763        6.897       55.545       45.743       47.569        0.047        0.007       27.366        3.302        0.015      334.534        4.569      864.870
10/20/2013  07:45:00      -34.707       -1.395       -2.395        5.322        5.409        4.529       28.325       29.260       20.511        0.065        0.004       34.735        3.046        0.008      334.621        4.715      864.873
10/20/2013  07:46:00      -18.069       21.043       -2.648       22.161       15.515       12.323      491.127      240.719      151.848        0.083        0.044       27.736       12.923        0.217      334.739        4.913      864.883
10/20/2013  07:47:00        2.110       31.433       -0.849       19.093       16.335       11.370      364.532      266.843      129.269        0.088        0.038       31.504        8.322        0.070      334.944        5.249      864.908
10/20/2013  07:48:00        6.570       57.667       -3.189       20.331       37.773       12.673      413.343     1426.812      160.604        0.269        0.100       58.040       15.642        0.073      335.022        5.381      864.924
10/20/2013  07:49:00        6.484       68.262       -4.739       26.021       25.338       14.801      677.101      642.030      219.079        0.313        0.077       68.570       11.994        0.031      334.944        5.251      864.947
10/20/2013  07:50:00        9.010       83.436      -11.835       16.800       19.803       10.977      282.252      392.172      120.493        0.399        0.040       83.921        4.496        0.003      334.947        5.256      864.959
10/20/2013  07:51:00        0.879       88.946       -8.956       16.033       17.289       11.984      257.069      298.915      143.627        0.435        0.035       88.950        8.522        0.009      334.924        5.218      864.974
10/20/2013  07:52:00       12.866       75.964       -8.549       16.188       27.979       13.755      262.039      782.813      189.204        0.362        0.062       77.046       12.625        0.027      335.008        5.358      864.975
10/20/2013  07:53:00       10.849       39.430       -1.105       17.799       30.454       13.852      316.793      927.465      191.879        0.155        0.072       40.895       15.589        0.145      335.027        5.388      864.975
10/20/2013  07:54:00        4.319       50.307       -4.170       12.274       20.508       12.360      150.642      420.581      152.763        0.165        0.036       50.492       12.891        0.065      335.153        5.597      864.976
10/20/2013  07:55:00        0.625       20.374        4.180       14.407       16.722       13.534      207.558      279.624      183.160        0.055        0.034       20.384       11.493        0.318      335.215        5.701      864.984
10/20/2013  07:56:00      -26.708       14.791        8.466       10.780       12.526       10.190      116.218      156.904      103.841        0.069        0.019       30.530        6.408        0.044      335.010        5.361      864.988
10/20/2013  07:57:00      -30.124      -15.062        2.565       10.901        7.656        6.991      118.832       58.610       48.880        0.068        0.011       33.679        5.495        0.027      334.793        5.000      864.981
10/20/2013  07:58:00      -10.521        4.846        2.692        8.413        9.361        4.741       70.773       87.634       22.482        0.016        0.009       11.583        4.604        0.158      335.089        5.491      864.981
10/20/2013  07:59:00       -6.658        6.073        3.556        6.436        5.286        5.261       41.428       27.939       27.677        0.010        0.005        9.011        3.635        0.163      335.145        5.585      864.982
10/20/2013  08:00:00      -24.335       -4.109       -5.684       11.910        7.783        5.636      141.854       60.579       31.759        0.044        0.012       24.680        4.505        0.033      335.047        5.423      864.988
10/20/2013  08:01:00      -36.299      -13.776       -7.290        5.698        7.371        5.177       32.465       54.325       26.801        0.084        0.006       38.825        1.795        0.002      334.967        5.290      865.004
10/20/2013  08:02:00      -45.860      -17.486       -3.372        7.560        5.331        4.585       57.149       28.423       21.018        0.126        0.005       49.081        4.506        0.008      335.026        5.387      864.996
10/20/2013  08:03:00      -55.274      -23.241       -8.279        5.410        4.865        4.408       29.268       23.664       19.434        0.187        0.004       59.961        2.922        0.002      334.999        5.344      865.005
10/20/2013  08:04:00      -47.759      -16.483       -2.586        8.456        9.026        6.843       71.509       81.476       46.830        0.138        0.010       50.523        3.864        0.006      334.996        5.337      865.013
10/20/2013  08:05:00      -55.511       -8.860       -4.683        9.085        6.531        5.440       82.545       42.649       29.598        0.167        0.008       56.214        3.413        0.004      335.121        5.544      865.013
10/20/2013  08:06:00      -34.559      -10.162       -0.528       11.205        6.745        4.333      125.549       45.498       18.777        0.074        0.009       36.022        5.884        0.027      335.211        5.692      865.025
10/20/2013  08:07:00      -41.673      -20.335       -1.895        8.173        5.634        3.248       66.795       31.737       10.548        0.113        0.005       46.369        1.689        0.001      335.285        5.815      865.037
10/20/2013  08:08:00      -12.824      -12.547        2.553       13.491       11.156        6.399      182.000      124.457       40.953        0.034        0.017       17.941        2.888        0.026      335.459        6.106      865.045
10/20/2013  08:09:00       -4.297        2.959        6.804        4.618        4.615        8.712       21.328       21.300       75.893        0.010        0.006        5.218        2.078        0.159      335.826        6.718      865.064
10/20/2013  08:10:00        6.108       22.142       19.282       20.197       13.513       11.130      407.934      182.590      123.882        0.081        0.036       22.969        5.891        0.066      335.754        6.598      865.079
10/20/2013  08:11:00       26.370       27.388        9.380       17.418       14.609       15.880      303.396      213.421      252.184        0.115        0.038       38.019       10.253        0.073      335.684        6.482      865.094
10/20/2013  08:12:00        3.726       12.297        8.906        9.978       18.860       11.966       99.564      355.700      143.188        0.042        0.030       12.849        8.137        0.401      335.825        6.717      865.099
10/20/2013  08:13:00        1.430        9.853       22.463       11.979       12.838        9.557      143.500      164.821       91.339        0.050        0.020        9.956        7.285        0.535      336.110        7.193      865.094
10/20/2013  08:14:00       -3.718       16.869       24.941        4.871        8.290        6.631       23.725       68.728       43.967        0.053        0.007       17.274        4.129        0.057      336.045        7.084      865.078
10/20/2013  08:15:00      -10.932        2.666       12.606        9.054       12.185        7.731       81.977      148.471       59.764        0.029        0.015       11.252        6.608        0.345      335.935        6.902      865.068
10/20/2013  08:16:00      -31.581       -8.264       -5.265        8.202        6.831        6.537       67.274       46.656       42.733        0.063        0.008       32.645        4.809        0.022      335.574        6.298      865.074
10/20/2013  08:17:00      -17.832        0.596        2.239       10.322        7.869       10.651      106.541       61.920      113.433        0.030        0.014       17.842        7.477        0.176      335.670        6.458      865.104
10/20/2013  08:18:00      -41.208        3.942       -4.829       11.436       11.251        3.620      130.785      126.586       13.105        0.100        0.014       41.396        3.645        0.008      335.491        6.160      865.126
10/20/2013  08:19:00      -36.566       -0.451       -5.122        9.317        9.932        6.509       86.798       98.638       42.373        0.080        0.011       36.569        4.521        0.015      335.530        6.224      865.128
10/20/2013  08:20:00      -27.167      -10.463        2.249       14.736       10.214        8.540      217.135      104.334       72.936        0.062        0.020       29.112        9.698        0.111      335.665        6.449      865.122
10/20/2013  08:21:00      -21.913      -25.902       -1.324       14.723        9.822        7.066      216.761       96.475       49.927        0.076        0.018       33.928        6.571        0.038      335.651        6.428      865.111
10/20/2013  08:22:00      -19.553       -7.153       -0.856       16.362       14.683        7.391      267.729      215.585       54.629        0.049        0.027       20.820        6.806        0.107      335.669        6.459      865.119
10/20/2013  08:23:00      -37.305      -42.951       -4.700       22.998       14.609       13.306      528.906      213.419      177.062        0.209        0.046       56.889       10.361        0.033      335.664        6.450      865.128
10/20/2013  08:24:00      -35.763      -50.160       -1.558       14.604       15.827       10.684      213.265      250.509      114.138        0.219        0.029       61.604        9.728        0.025      335.785        6.652      865.136
10/20/2013  08:25:00      -37.218      -42.928        0.237       18.745       13.867       13.239      351.372      192.307      175.274        0.197        0.036       56.815       14.654        0.067      335.849        6.757      865.151
10/20/2013  08:26:00      -27.634      -46.123       -0.469       20.756       18.851       14.199      430.819      355.364      201.598        0.194        0.049       53.768       16.342        0.092      335.851        6.759      865.159
10/20/2013  08:27:00      -26.397      -47.328        2.838       14.126       16.038       12.536      199.537      257.230      157.142        0.178        0.031       54.191       10.099        0.035      335.859        6.774      865.160
10/20/2013  08:28:00      -42.407      -44.765       -0.425       21.828       17.114       13.319      476.472      292.872      177.396        0.237        0.047       61.663       14.611        0.056      335.893        6.830      865.175
10/20/2013  08:29:00      -50.467      -59.533        0.883       22.084       24.936       17.551      487.715      621.787      308.054        0.375        0.071       78.046       13.683        0.031      335.874        6.799      865.189
10/20/2013  08:30:00      -39.808      -41.411       -0.985       21.603       19.559       14.357      466.710      382.569      206.131        0.218        0.053       57.442       13.848        0.058      335.935        6.900      865.199
10/20/2013  08:31:00      -41.104      -41.456        0.336       18.498       25.223       12.639      342.192      636.201      159.747        0.227        0.057       58.379        8.173        0.020      335.980        6.974      865.218
10/20/2013  08:32:00      -33.933      -31.386        5.514        9.865       17.633        8.903       97.327      310.916       79.258        0.133        0.024       46.223        5.634        0.015      336.013        7.031      865.233
10/20/2013  08:33:00      -18.748      -10.349        4.112        8.603       10.059        7.917       74.008      101.174       62.683        0.036        0.012       21.415        4.576        0.046      336.171        7.292      865.249
10/20/2013  08:34:00      -29.463       -0.181        1.920       15.800        7.365        6.712      249.651       54.240       45.054        0.061        0.017       29.463        6.673        0.051      336.132        7.228      865.252
10/20/2013  08:35:00      -21.734       -7.875        3.374       13.469       13.474        9.093      181.416      181.539       82.677        0.050        0.022       23.116        3.079        0.018      336.147        7.252      865.265
10/20/2013  08:36:00      -26.895       -5.528        1.844        8.132        8.096        5.480       66.137       65.538       30.035        0.046        0.008       27.457        5.212        0.036      336.095        7.166      865.278
10/20/2013  08:37:00      -21.899      -12.701        0.206       12.973        9.412        9.359      168.292       88.589       87.592        0.049        0.017       25.316        9.223        0.133      336.233        7.396      865.284
10/20/2013  08:38:00      -21.378       -7.445        4.684       12.628        9.855        8.669      159.464       97.117       75.144        0.043        0.017       22.637        7.292        0.104      336.310        7.525      865.286
10/20/2013  08:39:00      -43.021      -12.624       -5.176       14.499       11.891        8.875      210.224      141.398       78.766        0.123        0.022       44.835        6.154        0.019      336.184        7.316      865.286
10/20/2013  08:40:00      -30.874      -33.984        0.863       17.652       10.641       11.288      311.588      113.225      127.415        0.133        0.028       45.914        8.151        0.032      336.205        7.349      865.277
10/20/2013  08:41:00      -41.180      -22.966       -5.345       12.100        6.977       11.115      146.408       48.684      123.543        0.129        0.016       47.151        7.552        0.026      336.252        7.430      865.261
10/20/2013  08:42:00      -21.894      -24.885       -1.461       20.716       18.550       13.188      429.164      344.112      173.912        0.102        0.047       33.145       13.734        0.172      336.400        7.677      865.248
10/20/2013  08:43:00      -27.368      -22.051       -4.422       20.928       17.833       11.942      437.991      318.015      142.609        0.108        0.045       35.146       11.009        0.098      336.383        7.649      865.238
10/20/2013  08:44:00      -13.794      -26.776       -3.512       27.039       23.730       14.417      731.117      563.103      207.839        0.121        0.075       30.121       10.289        0.117      336.373        7.631      865.241
10/20/2013  08:45:00        1.432      -25.145        7.197        9.255       13.371       11.286       85.651      178.791      127.366        0.054        0.020       25.186        4.975        0.039      336.465        7.786      865.252
10/20/2013  08:46:00      -13.255      -15.774       -1.230        8.637        9.765        7.344       74.596       95.358       53.937        0.032        0.011       20.604        5.487        0.071      336.484        7.817      865.263
10/20/2013  08:47:00      -23.604       -0.762       -6.460        3.832        3.279        5.210       14.687       10.749       27.141        0.033        0.003       23.617        1.453        0.004      336.436        7.736      865.263
10/20/2013  08:48:00       -0.800       24.297       12.450       17.096       20.102       12.594      292.259      404.079      158.606        0.080        0.043       24.310       10.786        0.197      336.908        8.525      865.262
10/20/2013  08:49:00        8.636       21.974       15.886       18.638       18.184       14.303      347.393      330.655      204.567        0.085        0.044       23.610       11.025        0.218      337.214        9.036      865.263
10/20/2013  08:50:00       39.508       37.270       11.432       18.140       25.126       27.468      329.054      631.340      754.476        0.240        0.086       54.313       19.624        0.131      336.977        8.641      865.267
10/20/2013  08:51:00       -6.537       32.665       39.580       14.335       23.300       16.073      205.487      542.913      258.357        0.184        0.050       33.312       12.531        0.142      337.246        9.091      865.265
10/20/2013  08:52:00       13.230       28.194       19.957       20.676       14.978       17.622      427.484      224.349      310.540        0.117        0.048       31.144       13.535        0.189      337.207        9.025      865.262
10/20/2013  08:53:00       -3.978       25.903       23.654       18.056       23.182       23.388      326.002      537.386      547.018        0.133        0.071       26.207       13.375        0.260      337.236        9.074      865.243
10/20/2013  08:54:00        1.728       30.655       53.914       18.043       30.380       16.878      325.561      922.928      284.875        0.269        0.077       30.704       18.468        0.362      337.463        9.452      865.243
10/20/2013  08:55:00       48.704       63.397       43.934       29.693       17.828       22.954      881.674      317.837      526.907        0.502        0.086       79.946       13.423        0.028      336.878        8.475      865.245
10/20/2013  08:56:00       59.418       72.150       48.541       31.613       23.915       32.160      999.388      571.937     1034.293        0.685        0.130       93.468       20.963        0.050      336.864        8.451      865.240
10/20/2013  08:57:00       28.209       53.368       64.502       35.197       35.510       27.421     1238.833     1260.953      751.910        0.553        0.163       60.365       17.629        0.085      337.016        8.705      865.237
10/20/2013  08:58:00       13.181       62.613       71.774       32.060       37.751       21.056     1027.871     1425.131      443.338        0.607        0.145       63.985       20.169        0.099      337.053        8.766      865.236
10/20/2013  08:59:00       57.854       52.800       50.539       36.671       29.486       29.504     1344.788      869.422      870.505        0.589        0.154       78.326       24.576        0.098      336.947        8.590      865.240
10/20/2013  09:00:00       45.548       46.826       40.465       34.448       22.701       26.482     1186.672      515.339      701.310        0.415        0.120       65.324       22.046        0.114      336.923        8.551      865.244
10/20/2013  09:01:00        6.835       72.143       76.184       23.219       32.027       19.812      539.144     1025.725      392.514        0.651        0.098       72.466       18.616        0.066      337.053        8.767      865.242
10/20/2013  09:02:00       45.920       67.996       56.278       34.284       34.600       29.399     1175.367     1197.142      864.327        0.657        0.162       82.050       22.703        0.077      336.949        8.593      865.237
10/20/2013  09:03:00       74.113       53.015       38.885       33.226       23.599       30.810     1103.991      556.908      949.273        0.621        0.131       91.123       19.874        0.048      336.941        8.579      865.236
10/20/2013  09:04:00       46.113       51.468       35.313       31.595       24.048       25.742      998.225      578.288      662.668        0.413        0.112       69.103       22.493        0.106      337.092        8.833      865.235
10/20/2013  09:05:00       58.140        3.804       33.811       29.377       60.505       32.566      863.033     3660.840     1060.540        0.506        0.279       58.265       40.368        0.480      337.073        8.801      865.241
10/20/2013  09:06:00       54.717       30.589       18.692       46.910       27.266       33.711     2200.582      743.424     1136.420        0.418        0.204       62.687       38.078        0.369      337.058        8.778      865.239
10/20/2013  09:07:00       83.190       40.505       38.728       29.516       35.045       34.224      871.199     1228.157     1171.290        0.667        0.164       92.527       25.548        0.076      337.009        8.694      865.242
10/20/2013  09:08:00       92.299       67.752       35.764       23.416       18.477       27.071      548.330      341.389      732.837        0.801        0.081      114.496       17.026        0.022      336.897        8.508      865.233
10/20/2013  09:09:00       45.048       34.043       27.911       24.080       24.131       18.566      579.834      582.312      344.682        0.274        0.075       56.465       11.974        0.045      337.112        8.864      865.223
10/20/2013  09:10:00        9.444       -1.726        5.159       19.378       12.501       16.046      375.493      156.284      257.467        0.045        0.039        9.601        9.481        0.975      337.425        9.390      865.211
10/20/2013  09:11:00       10.014       19.399       18.548       22.423       19.647       27.446      502.813      385.986      753.267        0.123        0.082       21.831       17.958        0.677      337.646        9.761      865.196
10/20/2013  09:12:00       -2.421       21.503       35.821       10.337       16.928       10.294      106.856      286.560      105.976        0.113        0.025       21.639        5.418        0.063      337.872       10.139      865.195
10/20/2013  09:13:00       -0.654       -0.589       27.642        8.411        6.570        8.233       70.745       43.166       67.781        0.047        0.009        0.880        2.678        9.267      338.073       10.477      865.187
10/20/2013  09:14:00      -12.545       -1.785       12.777       15.078       15.558       13.498      227.344      242.051      182.189        0.049        0.033       12.671       12.241        0.933      337.696        9.844      865.186
10/20/2013  09:15:00        0.327       26.883       39.598       13.595       17.346       17.058      184.833      300.899      290.964        0.153        0.039       26.885       11.937        0.197      337.777        9.982      865.178
10/20/2013  09:16:00       20.305       19.281       19.219       23.063       10.882       14.602      531.920      118.429      213.221        0.101        0.043       28.001        9.362        0.112      337.658        9.781      865.186
10/20/2013  09:17:00      -33.134       26.706       25.557       24.739        8.704       15.383      612.026       75.760      236.652        0.169        0.046       42.557       11.687        0.075      337.678        9.814      865.182
10/20/2013  09:18:00      -36.325        3.381      -11.319       12.021       10.187        7.792      144.508      103.783       60.722        0.088        0.015       36.482        4.762        0.017      337.434        9.405      865.181
10/20/2013  09:19:00       -5.065       -5.197      -12.535       26.649       22.186        8.470      710.195      492.214       71.742        0.074        0.064        7.257        8.437        1.351      337.583        9.654      865.181
10/20/2013  09:20:00      -54.901      -63.725       -5.498       27.973       21.637       16.080      782.512      468.161      258.557        0.431        0.075       84.113       13.682        0.026      337.402        9.350      865.177
10/20/2013  09:21:00      -39.797      -65.188       -7.208       16.199       16.167       18.467      262.409      261.384      341.012        0.337        0.043       76.376       10.989        0.021      337.442        9.420      865.173
10/20/2013  09:22:00      -23.118      -22.024       -2.575        9.564       12.065        8.267       91.471      145.564       68.343        0.067        0.015       31.930        7.631        0.057      337.569        9.632      865.168
10/20/2013  09:23:00      -15.426       -4.466       -0.224       11.096        8.734        6.869      123.111       76.276       47.187        0.025        0.012       16.060        2.675        0.028      337.785        9.995      865.160
10/20/2013  09:24:00      -29.899       -6.936        4.787       12.209       10.021        9.781      149.068      100.426       95.669        0.065        0.017       30.693        5.942        0.037      337.706        9.861      865.166
10/20/2013  09:25:00      -19.133       -9.351        2.329       10.102        8.269        8.114      102.060       68.382       65.837        0.035        0.012       21.296        3.584        0.028      337.805       10.026      865.161
10/20/2013  09:26:00      -27.833       -5.534        0.430       11.298        8.110        6.300      127.647       65.775       39.684        0.052        0.012       28.378        5.930        0.044      337.725        9.893      865.160
10/20/2013  09:27:00      -25.130      -17.630       -3.017       10.726       11.026        5.656      115.041      121.578       31.993        0.061        0.013       30.697        3.167        0.011      337.739        9.917      865.154
10/20/2013  09:28:00      -13.751        2.815       10.620        8.318       10.726       21.828       69.197      115.036      476.446        0.049        0.033       14.036       12.162        0.751      338.264       10.798      865.150
10/20/2013  09:29:00      -11.325       20.499       61.269       13.616       22.503       19.834      185.397      506.379      393.373        0.269        0.054       23.419       17.527        0.560      338.613       11.384      865.143
10/20/2013  09:30:00        9.568       47.639       53.387       22.302       23.141       13.130      497.379      535.497      172.400        0.321        0.060       48.591       10.349        0.045      338.129       10.572      865.142
10/20/2013  09:31:00       -5.202       34.111       52.903       10.588       23.977       13.696      112.107      574.893      187.592        0.243        0.044       34.505        8.323        0.058      338.306       10.867      865.141
10/20/2013  09:32:00       30.182       56.543       33.595       24.381       19.633       20.450      594.445      385.446      418.218        0.332        0.070       64.094       13.761        0.046      337.897       10.182      865.141
10/20/2013  09:33:00       13.547       31.147       26.690       25.186       24.527       18.300      634.334      601.550      334.894        0.172        0.079       33.966       14.830        0.191      338.400       11.027      865.141
10/20/2013  09:34:00      -20.859      -12.951        9.253       15.518       16.169       12.189      240.815      261.445      148.573        0.067        0.033       24.552        6.857        0.078      338.176       10.650      865.127
10/20/2013  09:35:00      -12.187        1.624       20.726       12.763       16.526       20.473      162.882      273.098      419.130        0.072        0.043       12.295       13.217        1.156      338.638       11.426      865.117
10/20/2013  09:36:00       16.953       18.594       38.834       42.019       39.376       32.474     1765.564     1550.434     1054.591        0.326        0.219       25.162       30.978        1.516      338.438       11.090      865.108
10/20/2013  09:37:00       72.598       64.351       49.181       30.476       27.077       27.177      928.811      733.143      738.566        0.712        0.120       97.013       18.976        0.038      338.056       10.449      865.099
10/20/2013  09:38:00       16.826       57.961       76.430       28.374       32.454       22.967      805.056     1053.247      527.461        0.593        0.119       60.354       23.388        0.150      338.423       11.063      865.098
10/20/2013  09:39:00       89.883       84.364       58.322       27.711       19.957       22.155      767.914      398.281      490.841        1.013        0.083      123.273       15.690        0.016      338.084       10.495      865.099
10/20/2013  09:40:00       41.185       65.595       69.213       51.563       34.221       21.482     2658.745     1171.090      461.484        0.754        0.215       77.453       10.793        0.019      338.440       11.094      865.115
10/20/2013  09:41:00       32.046      -45.262       17.939       39.863       46.640       26.468     1589.081     2175.330      700.570        0.393        0.223       55.458       26.143        0.222      338.509       11.209      865.125
10/20/2013  09:42:00       26.958        1.569       46.022       25.896       49.308       30.558      670.597     2431.238      933.778        0.344        0.202       27.003       33.889        1.575      338.698       11.525      865.128
10/20/2013  09:43:00       12.197       56.453       79.277       25.638       28.759       18.648      657.289      827.075      347.742        0.573        0.092       57.755       16.226        0.079      338.418       11.055      865.124
10/20/2013  09:44:00       30.507       61.906       64.670       36.125       35.409       34.465     1305.025     1253.822     1187.856        0.635        0.187       69.014       22.967        0.111      338.409       11.040      865.129
10/20/2013  09:45:00       55.601       56.108       39.150       20.744       14.479       16.862      430.334      209.632      284.320        0.435        0.046       78.991       10.745        0.019      338.290       10.841      865.117
10/20/2013  09:46:00       64.239       71.549       20.565       25.034       27.670       27.794      626.689      765.629      772.514        0.592        0.108       96.155       17.871        0.035      338.241       10.759      865.105
10/20/2013  09:47:00       58.622       91.185       57.644       35.254       21.681       26.345     1242.853      470.063      694.076        0.874        0.120      108.403       19.340        0.032      338.343       10.930      865.095
10/20/2013  09:48:00       56.878       66.966       49.674       30.327       25.813       23.350      919.712      666.296      545.226        0.616        0.107       87.861       11.698        0.018      338.385       11.000      865.099
10/20/2013  09:49:00       32.189       27.082       37.188       25.633       45.029       23.703      657.065     2027.590      561.840        0.320        0.162       42.066       25.087        0.356      338.511       11.212      865.097
10/20/2013  09:50:00        9.434       -4.260       25.872       17.567       19.776       13.807      308.585      391.108      190.633        0.083        0.045       10.351        4.916        0.226      339.160       12.303      865.101
10/20/2013  09:51:00       25.598       18.294       17.458       27.440       21.899       28.038      752.936      479.559      786.151        0.166        0.101       31.464       15.685        0.249      339.085       12.177      865.096
10/20/2013  09:52:00       24.555       71.446       46.807       43.984       32.070       27.396     1934.574     1028.496      750.547        0.581        0.186       75.548        5.752        0.006      339.045       12.110      865.090
10/20/2013  09:53:00       80.990       95.962       59.453       41.968       21.562       29.577     1761.330      464.927      874.792        1.120        0.155      125.571       25.943        0.043      338.466       11.137      865.094
10/20/2013  09:54:00        6.293       71.235       83.655       26.678       41.845       25.030      711.731     1751.029      626.520        0.760        0.154       71.513       25.665        0.129      338.745       11.605      865.094
10/20/2013  09:55:00       37.831       -0.893       29.817       42.088       36.819       31.699     1771.388     1355.674     1004.797        0.323        0.207       37.841       33.575        0.787      338.996       12.028      865.099
10/20/2013  09:56:00       46.994       46.940       39.239       40.323       30.030       26.407     1625.971      901.821      697.305        0.459        0.161       66.421       17.485        0.069      338.766       11.642      865.101
10/20/2013  09:57:00       79.668       59.139       26.021       39.653       26.993       35.991     1572.341      728.611     1295.361        0.706        0.180       99.219       20.181        0.041      338.426       11.069      865.105
10/20/2013  09:58:00      110.380       67.562       -0.118       42.579       31.348       25.975     1812.960      982.707      674.709        1.011        0.174      129.416       17.521        0.018      338.488       11.173      865.095
10/20/2013  09:59:00       60.978       30.928        6.877       36.205       31.492       23.531     1310.776      991.716      553.695        0.379        0.143       68.373        8.504        0.015      338.581       11.330      865.095
10/20/2013  10:00:00       75.697       61.793        5.061       29.899       27.216       26.538      893.971      740.725      704.276        0.596        0.117       97.716       19.736        0.041      338.787       11.676      865.086
10/20/2013  10:01:00       76.058       66.786       55.132       48.553       43.737       34.093     2357.368     1912.954     1162.306        0.936        0.272      101.218       29.014        0.082      338.841       11.767      865.087
10/20/2013  10:02:00       45.737       10.819       29.215       52.907       46.819       35.609     2799.149     2192.001     1267.983        0.466        0.313       46.999       34.077        0.526      338.922       11.903      865.092
10/20/2013  10:03:00       39.556       61.356       48.193       59.413       58.806       45.560     3529.960     3458.119     2075.736        0.836        0.453       73.001       40.807        0.312      339.134       12.260      865.092
10/20/2013  10:04:00       99.385       55.546       12.323       43.550       42.201       36.169     1896.570     1780.947     1308.200        0.905        0.249      113.854       10.205        0.008      338.792       11.683      865.084
10/20/2013  10:05:00      141.706       99.420       13.441       49.113       31.858       36.652     2412.131     1014.917     1343.345        1.746        0.239      173.104       16.223        0.009      338.591       11.347      865.078
10/20/2013  10:06:00      107.249       68.647       24.066       38.307       37.075       32.234     1467.437     1374.581     1039.052        1.034        0.194      127.338       21.124        0.028      339.080       12.168      865.076
10/20/2013  10:07:00       82.501       89.061       67.080       48.188       46.926       44.361     2322.113     2202.009     1967.919        1.286        0.325      121.401       29.558        0.059      338.953       11.955      865.075
10/20/2013  10:08:00       61.237        7.346       38.972       43.985       41.818       36.765     1934.642     1748.777     1351.668        0.518        0.252       61.676       32.061        0.270      339.044       12.108      865.074
10/20/2013  10:09:00       23.160       55.079       71.392       35.954       37.493       22.639     1292.707     1405.708      512.535        0.594        0.161       59.750       23.437        0.154      339.302       12.540      865.052
10/20/2013  10:10:00       26.783       81.787       92.639       51.771       63.435       41.624     2680.215     4024.011     1732.525        1.221        0.422       86.060       43.965        0.261      339.236       12.431      865.033
10/20/2013  10:11:00      -10.444       12.844       78.800       39.333       62.178       33.160     1547.124     3866.162     1099.574        0.650        0.326       16.554       37.986        5.265      339.512       12.896      865.020
10/20/2013  10:12:00       32.894       87.975       91.989       35.807       43.168       24.425     1282.143     1863.465      596.567        1.051        0.187       93.924       25.499        0.074      339.039       12.100      865.012
10/20/2013  10:13:00       59.168       56.836       41.635       31.557       22.430       30.040      995.840      503.122      902.393        0.543        0.120       82.044       18.944        0.053      338.951       11.953      865.001
10/20/2013  10:14:00       19.332       42.594       37.904       17.400       28.594       20.868      302.757      817.591      435.486        0.259        0.078       46.775       14.903        0.102      339.295       12.531      864.986
10/20/2013  10:15:00       18.223        8.847       33.834       18.088       38.273       13.864      327.188     1464.838      192.201        0.177        0.099       20.257       15.025        0.550      339.471       12.828      864.972
10/20/2013  10:16:00       33.978      -32.271      -10.882       28.624       27.728       18.796      819.306      768.846      353.296        0.213        0.097       46.861       15.026        0.103      339.098       12.198      864.963
10/20/2013  10:17:00       35.107       70.561       59.152       55.261       48.613       37.611     3053.769     2363.201     1414.582        0.827        0.342       78.812       19.913        0.064      339.437       12.771      864.946
10/20/2013  10:18:00       45.018       42.886       54.557       53.140       75.964       33.214     2823.869     5770.582     1103.185        0.827        0.485       62.176       32.387        0.271      339.328       12.587      864.935
10/20/2013  10:19:00       33.781       72.264       57.209       42.436       42.153       39.432     1800.848     1776.847     1554.875        0.738        0.257       79.769       28.427        0.127      339.262       12.475      864.933
10/20/2013  10:20:00       46.659       47.402       60.589       50.848       48.956       30.897     2585.475     2396.680      954.649        0.701        0.297       66.513       31.762        0.228      339.360       12.640      864.927
10/20/2013  10:21:00       67.560       30.527       17.015       43.801       49.049       35.676     1918.498     2405.817     1272.762        0.569        0.280       74.137       18.839        0.065      339.132       12.255      864.918
10/20/2013  10:22:00      129.693       89.976       19.302       36.558       43.064       34.975     1336.518     1854.490     1223.247        1.485        0.221      157.847       23.323        0.022      339.014       12.057      864.911
10/20/2013  10:23:00       45.911       62.364        2.317       61.395       52.394       40.299     3769.322     2745.160     1624.009        0.707        0.407       77.441       24.692        0.102      339.270       12.488      864.905
10/20/2013  10:24:00       83.245       59.911       31.163       47.373       32.730       37.732     2244.247     1071.252     1423.691        0.811        0.237      102.562       28.469        0.077      339.436       12.768      864.889
10/20/2013  10:25:00       56.529       72.219       63.027       58.581       52.363       48.225     3431.679     2741.879     2325.657        1.044        0.425       91.712       46.723        0.260      339.523       12.915      864.871
10/20/2013  10:26:00       97.201       30.037       10.773       50.587       60.514       29.010     2559.060     3661.954      841.576        0.876        0.353      101.736       20.093        0.039      339.466       12.820      864.877
10/20/2013  10:27:00       28.490      -33.437       24.126       48.815       62.160       39.943     2382.930     3863.896     1595.470        0.518        0.392       43.928       36.094        0.675      339.995       13.711      864.859
10/20/2013  10:28:00       54.217       57.305       72.511       53.063       59.627       49.667     2815.679     3555.354     2466.830        1.016        0.442       78.888       29.364        0.139      339.766       13.324      864.858
10/20/2013  10:29:00       53.358       47.950       38.526       48.920       45.188       39.782     2393.181     2041.971     1582.601        0.632        0.301       71.737       27.831        0.151      339.816       13.410      864.856
10/20/2013  10:30:00      103.460       18.904       10.184       65.011       49.749       32.904     4226.479     2474.979     1082.693        0.947        0.389      105.173       30.079        0.082      339.740       13.280      864.852
10/20/2013  10:31:00      130.643       90.777        7.410       49.523       52.071       37.443     2452.480     2711.391     1402.002        1.596        0.328      159.085       32.989        0.043      339.544       12.949      864.848
10/20/2013  10:32:00      110.702       67.705       17.565       51.979       50.857       49.248     2701.786     2586.394     2425.326        1.243        0.386      129.765       21.996        0.029      339.563       12.983      864.836
10/20/2013  10:33:00      107.830       59.948       15.017       49.579       41.736       36.595     2458.083     1741.901     1339.170        1.049        0.277      123.374       24.124        0.038      339.794       13.372      864.825
10/20/2013  10:34:00      123.960       71.576       26.501       48.757       44.724       41.549     2377.221     2000.218     1726.354        1.365        0.305      143.141       17.874        0.016      339.765       13.323      864.819
10/20/2013  10:35:00       97.645       75.558       26.974       58.104       34.615       39.775     3376.059     1198.203     1582.071        1.106        0.308      123.465       33.001        0.071      339.823       13.421      864.811
10/20/2013  10:36:00      105.784       73.328       23.087       31.911       20.919       22.786     1018.280      437.612      519.201        0.954        0.099      128.713        5.670        0.002      339.301       12.541      864.811
10/20/2013  10:37:00      126.702       66.657       26.154       62.403       52.124       38.053     3894.106     2716.903     1448.049        1.462        0.403      143.166       28.285        0.039      339.607       13.055      864.791
10/20/2013  10:38:00      142.705       72.868        1.677       50.310       39.957       37.218     2531.123     1596.554     1385.155        1.559        0.276      160.233       29.298        0.033      339.631       13.095      864.786
10/20/2013  10:39:00      138.887       84.528       -0.519       41.707       40.139       36.398     1739.484     1611.151     1324.792        1.555        0.234      162.587       24.479        0.023      339.571       12.994      864.777
10/20/2013  10:40:00       76.111      103.023       23.582       56.089       42.216       43.771     3145.991     1782.200     1915.914        1.190        0.342      128.089       30.970        0.058      339.677       13.174      864.761
10/20/2013  10:41:00       47.051      102.371       99.148       54.448       50.998       40.327     2964.600     2600.757     1626.250        1.486        0.360      112.666       27.283        0.059      339.955       13.643      864.753
10/20/2013  10:42:00      131.148      115.448       41.360       38.324       32.833       37.992     1468.754     1078.021     1443.386        1.811        0.200      174.723       25.386        0.021      339.539       12.941      864.732
10/20/2013  10:43:00       99.955       63.645       22.097       41.957       30.524       31.900     1760.391      931.731     1017.637        0.912        0.185      118.498       15.421        0.017      339.669       13.162      864.732
10/20/2013  10:44:00       81.948       46.666        4.885       44.892       26.933       29.117     2015.303      725.381      847.799        0.625        0.179       94.304       19.920        0.045      339.922       13.587      864.719
10/20/2013  10:45:00       89.392       59.069       11.167       55.752       41.064       31.892     3108.321     1686.257     1017.116        0.871        0.291      107.145       23.031        0.046      340.357       14.321      864.713
10/20/2013  10:46:00       51.694       55.692       48.596       55.864       33.049       48.998     3120.774     1092.246     2400.756        0.737        0.331       75.986       42.187        0.308      340.147       13.968      864.712
10/20/2013  10:47:00       13.489       66.982       70.228       50.988       45.306       38.755     2599.816     2052.590     1501.961        0.788        0.308       68.326       30.556        0.200      340.605       14.742      864.697
10/20/2013  10:48:00       59.240        5.854       42.450       62.120       61.220       41.831     3858.905     3747.863     1749.806        0.735        0.468       59.528       34.364        0.333      340.295       14.216      864.699
10/20/2013  10:49:00       23.277       11.795       58.207       43.788       72.655       50.527     1917.409     5278.819     2553.022        0.691        0.487       26.095       49.466        3.593      340.311       14.244      864.685
10/20/2013  10:50:00       45.139       71.571       90.383       50.060       66.075       47.113     2506.050     4365.922     2219.638        1.221        0.455       84.617       44.121        0.272      340.272       14.179      864.687
10/20/2013  10:51:00       22.455      -22.637       67.337       48.522       91.512       50.476     2354.394     8374.367     2547.809        0.941        0.664       31.885       56.691        3.161      340.461       14.497      864.678
10/20/2013  10:52:00       33.462       78.177       73.520       46.330       33.490       21.985     2146.430     1121.587      483.361        0.819        0.188       85.037       22.102        0.068      340.223       14.095      864.678
10/20/2013  10:53:00       19.007       55.624       79.975       37.276       40.196       28.341     1389.506     1615.712      803.203        0.683        0.190       58.781       28.423        0.234      340.388       14.375      864.679
10/20/2013  10:54:00       27.898      -77.475        8.173       30.445       47.372       24.540      926.880     2244.090      602.220        0.531        0.189       82.345       23.164        0.079      339.977       13.679      864.693
10/20/2013  10:55:00       15.716       25.395       67.567       36.163       72.703       34.233     1307.765     5285.722     1171.895        0.661        0.388       29.865       43.314        2.103      340.546       14.640      864.685
10/20/2013  10:56:00       52.514       29.653       34.312       60.881       30.659       49.236     3706.541      939.979     2424.148        0.594        0.354       60.308       46.825        0.603      340.461       14.499      864.691
10/20/2013  10:57:00       65.164       37.042       19.688       46.552       40.536       32.793     2167.115     1643.198     1075.385        0.545        0.244       74.956       21.758        0.084      340.314       14.249      864.689
10/20/2013  10:58:00      118.505       97.830       18.354       36.111       23.429       31.932     1303.995      548.941     1019.653        1.341        0.144      153.669       18.109        0.014      340.159       13.988      864.673
10/20/2013  10:59:00      112.138       75.058       -6.484       25.923       22.384       28.064      672.002      501.048      787.564        1.011        0.098      134.940        8.457        0.004      339.945       13.627      864.670
10/20/2013  11:00:00      125.732       54.332       -0.727       49.311       32.854       33.594     2431.557     1079.358     1128.528        1.170        0.232      136.968       21.706        0.025      340.169       14.004      864.672
10/20/2013  11:01:00       97.505       67.766        0.911       44.795       37.092       33.236     2006.581     1375.802     1104.623        0.929        0.224      118.741       25.345        0.046      340.133       13.944      864.663
10/20/2013  11:02:00      118.415       69.576       21.599       38.835       43.817       27.591     1508.149     1919.969      761.290        1.176        0.209      137.343       11.262        0.007      340.297       14.221      864.653
10/20/2013  11:03:00       86.332       76.690       -4.200       44.011       20.908       21.009     1936.988      437.134      441.367        0.808        0.141      115.475       16.404        0.020      340.151       13.974      864.638
10/20/2013  11:04:00       54.034       50.127       20.900       37.614       24.974       26.813     1414.811      623.699      718.958        0.431        0.138       73.705       22.387        0.092      340.432       14.448      864.631
10/20/2013  11:05:00       36.843       67.571       64.234       56.536       40.599       34.867     3196.304     1648.279     1215.717        0.805        0.303       76.962       35.352        0.211      340.876       15.199      864.612
10/20/2013  11:06:00       89.650       90.625       86.863       79.305       41.891       49.876     6289.260     1754.872     2487.620        1.716        0.527      127.476       52.465        0.169      340.512       14.582      864.610
10/20/2013  11:07:00       36.229       17.042       28.012       38.563       45.326       39.604     1487.109     2054.430     1568.515        0.375        0.256       40.037       25.502        0.406      340.688       14.882      864.607
10/20/2013  11:08:00       52.657       41.569       23.347       51.681       25.580       32.401     2670.880      654.358     1049.812        0.471        0.219       67.088       12.780        0.036      340.559       14.663      864.595
10/20/2013  11:09:00       26.449       46.592       17.985       37.327       47.475       32.989     1393.293     2253.847     1088.243        0.396        0.237       53.576       23.443        0.191      340.701       14.905      864.587
10/20/2013  11:10:00       -6.123       31.125       78.907       27.635       38.987       33.998      763.705     1520.017     1155.875        0.534        0.172       31.722       30.088        0.900      341.218       15.779      864.578
10/20/2013  11:11:00       72.911       90.616       72.827       62.207       39.314       40.305     3869.764     1545.621     1624.519        1.293        0.352      116.307       42.703        0.135      340.551       14.649      864.586
10/20/2013  11:12:00       59.371       44.651       50.745       49.901       34.357       41.948     2490.100     1180.408     1759.600        0.676        0.272       74.288       31.506        0.180      340.988       15.389      864.581
10/20/2013  11:13:00       12.079       19.846       68.196       33.241       36.295       22.285     1104.936     1317.333      496.629        0.405        0.146       23.233       19.234        0.685      341.218       15.778      864.570
10/20/2013  11:14:00       55.295       51.138       82.381       33.548       44.046       25.042     1125.440     1940.025      627.097        0.808        0.185       75.317       22.161        0.087      341.028       15.456      864.553
10/20/2013  11:15:00       55.061       60.444       41.102       47.416       39.449       34.600     2248.313     1556.253     1197.145        0.669        0.250       81.763       25.397        0.096      340.818       15.101      864.548
10/20/2013  11:16:00       21.641       48.466       62.070       43.684       35.749       36.111     1908.268     1277.976     1303.988        0.558        0.225       53.078       18.990        0.128      341.270       15.865      864.534
10/20/2013  11:17:00        4.438      -13.601       39.704       22.785       51.724       23.426      519.147     2675.397      548.775        0.276        0.187       14.307       26.855        3.523      341.468       16.201      864.531
10/20/2013  11:18:00       32.662       35.072       29.852       41.095       61.139       27.675     1688.836     3738.032      765.879        0.469        0.310       47.926        8.959        0.035      341.186       15.725      864.519
10/20/2013  11:19:00       35.854       -1.335       44.508       51.128       33.515       35.036     2614.107     1123.262     1227.539        0.412        0.248       35.879       15.979        0.198      341.661       16.529      864.524
10/20/2013  11:20:00       76.738       78.483       81.173       59.464       55.756       44.217     3535.997     3108.736     1955.151        1.362        0.430      109.765       40.421        0.136      340.939       15.305      864.522
10/20/2013  11:21:00       60.948       52.988       44.208       47.879       37.306       29.077     2292.357     1391.755      845.453        0.650        0.226       80.761       19.557        0.059      340.927       15.286      864.527
10/20/2013  11:22:00       92.437       79.957       22.891       80.195       48.604       61.976     6431.253     2362.336     3841.048        1.405        0.632      122.220       56.060        0.210      341.199       15.745      864.511
10/20/2013  11:23:00       45.915       28.914       10.137       45.416       45.423       38.581     2062.651     2063.260     1488.465        0.433        0.281       54.261       34.750        0.410      341.321       15.953      864.509
10/20/2013  11:24:00       33.333       55.948       41.221       38.024       28.578       30.675     1445.796      816.688      940.936        0.457        0.160       65.125       21.164        0.106      341.342       15.990      864.505
10/20/2013  11:25:00       21.456       60.301       63.781       45.535       58.117       44.780     2073.481     3377.533     2005.275        0.781        0.373       64.004       33.313        0.271      341.577       16.386      864.492
10/20/2013  11:26:00       66.520       77.716       37.770       55.701       32.044       42.959     3102.605     1026.808     1845.485        0.893        0.299      102.297       27.621        0.073      341.167       15.693      864.501
10/20/2013  11:27:00       -4.065       63.600       12.899       26.622       51.696       27.684      708.734     2672.496      766.420        0.419        0.207       63.730       30.006        0.222      341.643       16.499      864.491
10/20/2013  11:28:00        9.470      -14.479       22.731       38.234       72.824       30.391     1461.843     5303.388      923.634        0.425        0.384       17.301       24.811        2.057      341.583       16.396      864.494
10/20/2013  11:29:00        4.980      -78.479       31.149       40.977       49.105       35.380     1679.129     2411.278     1251.741        0.625        0.267       78.636       26.393        0.113      341.545       16.332      864.485
10/20/2013  11:30:00       60.009      -12.599       41.591       48.460       34.369       32.714     2348.417     1181.228     1070.200        0.504        0.230       61.317       26.689        0.189      341.545       16.332      864.490
10/20/2013  11:31:00       76.743       65.506       20.468       29.054       35.586       26.461      844.162     1266.365      700.182        0.670        0.141      100.898       18.067        0.032      341.355       16.010      864.481
10/20/2013  11:32:00       35.266       48.908       64.765       34.849       40.529       31.486     1214.454     1642.602      991.395        0.584        0.192       60.296       16.574        0.076      341.827       16.810      864.478
10/20/2013  11:33:00       38.765       51.144       60.514       50.055       44.795       34.420     2505.544     2006.584     1184.727        0.674        0.285       64.175       27.162        0.179      341.769       16.713      864.472
10/20/2013  11:34:00       92.941       63.188       24.181       56.660       42.268       42.294     3210.336     1786.579     1788.803        1.000        0.339      112.387       32.012        0.081      341.612       16.446      864.455
10/20/2013  11:35:00       61.329       45.430       46.347       55.112       36.441       38.764     3037.368     1327.946     1502.653        0.692        0.293       76.323       26.061        0.117      341.854       16.856      864.451
10/20/2013  11:36:00       75.678       72.301       15.125       37.450       27.177       33.001     1402.504      738.582     1089.034        0.721        0.162      104.665       24.199        0.053      341.364       16.025      864.435
10/20/2013  11:37:00      -15.577       13.220       28.233       29.271       16.647       17.653      856.787      277.115      311.614        0.133        0.072       20.431       10.663        0.272      341.806       16.773      864.422
10/20/2013  11:38:00      -21.531       -1.150       26.302       23.824       10.827       14.760      567.574      117.229      217.843        0.103        0.045       21.561       11.004        0.260      342.068       17.220      864.405
10/20/2013  11:39:00        3.312       11.228       19.040       32.942       43.039       18.869     1085.171     1852.344      356.050        0.190        0.165       11.706       16.866        2.076      342.304       17.619      864.388
10/20/2013  11:40:00       54.555       71.602        4.767       31.878       37.540       33.560     1016.216     1409.222     1126.306        0.584        0.178       90.017       19.705        0.048      341.963       17.041      864.377
10/20/2013  11:41:00       72.235       25.583       24.881       27.641       60.559       30.080      764.020     3667.410      904.782        0.591        0.267       76.632       22.885        0.089      341.762       16.701      864.353
10/20/2013  11:42:00       57.619       41.548       16.350       41.464       49.762       30.652     1719.240     2476.228      939.539        0.522        0.257       71.036       15.640        0.048      341.749       16.678      864.347
10/20/2013  11:43:00       29.163       35.158       37.442       30.543       42.923       35.975      932.865     1842.421     1294.216        0.378        0.203       45.679       29.464        0.416      342.265       17.553      864.330
10/20/2013  11:44:00       -3.478      -33.939       42.457       26.913       54.651       41.709      724.289     2986.678     1739.603        0.421        0.273       34.116       35.658        1.092      342.336       17.674      864.318
10/20/2013  11:45:00       53.190      -34.908       23.412       48.982       42.592       42.164     2399.246     1814.073     1777.782        0.529        0.300       63.622       25.042        0.155      341.840       16.833      864.312
10/20/2013  11:46:00      -11.965      -25.660       20.505       40.724       49.209       36.044     1658.431     2421.541     1299.147        0.330        0.269       28.312       25.472        0.809      342.215       17.469      864.291
10/20/2013  11:47:00      -21.180       13.396       33.725       27.203       30.806       25.983      740.027      948.998      675.134        0.206        0.118       25.061       23.887        0.909      342.353       17.703      864.283
10/20/2013  11:48:00      -24.077       18.758       35.508       27.944       32.464       28.727      780.883     1053.895      825.251        0.243        0.133       30.521       27.785        0.829      342.150       17.358      864.270
10/20/2013  11:49:00      -65.425       -0.595       -6.692       39.379       29.150       25.997     1550.737      849.698      675.826        0.370        0.154       65.428       30.933        0.224      341.770       16.713      864.266
10/20/2013  11:50:00        2.712      -38.753      -11.414       75.154       68.872       30.142     5648.150     4743.339      908.556        0.647        0.565       38.848       21.066        0.294      341.871       16.885      864.253
10/20/2013  11:51:00       55.771      -15.917       52.756       59.151       58.702       56.813     3498.841     3445.912     3227.688        0.816        0.509       57.998       44.999        0.602      342.235       17.503      864.236
10/20/2013  11:52:00       57.644     -131.615      -18.547       33.224       44.730       30.100     1103.839     2000.752      905.996        1.250        0.201      143.685       23.705        0.027      341.800       16.764      864.232
10/20/2013  11:53:00       33.693      -23.166        8.098       37.816       44.969       40.459     1430.038     2022.255     1636.937        0.341        0.254       40.889       31.921        0.609      342.174       17.399      864.231
10/20/2013  11:54:00       35.037        4.237       22.495       23.969       22.657       26.583      574.498      513.336      706.637        0.177        0.090       35.292        8.263        0.055      341.994       17.094      864.233
10/20/2013  11:55:00       42.272       51.630       28.830       31.099       21.172       32.899      967.140      448.267     1082.321        0.389        0.125       66.728       20.120        0.091      341.956       17.029      864.231
10/20/2013  11:56:00       32.116       40.896       20.791       19.667       17.126       23.267      386.786      293.283      541.348        0.218        0.061       52.000       14.546        0.078      341.795       16.755      864.232
10/20/2013  11:57:00        6.089       21.728       34.929       17.734       15.164        8.162      314.485      229.956       66.620        0.117        0.031       22.565        5.852        0.067      342.390       17.766      864.236
10/20/2013  11:58:00       -4.232       19.926       14.781       18.474       17.492       14.360      341.306      305.981      206.216        0.074        0.043       20.370        5.302        0.068      342.627       18.170      864.228
10/20/2013  11:59:00       -6.709        4.227       16.526       21.408       24.495       25.013      458.292      599.991      625.673        0.101        0.084        7.929       22.129        7.789      342.510       17.971      864.225
10/20/2013  12:00:00       54.231       49.247       55.623       35.552       25.025       23.226     1263.953      626.275      539.458        0.544        0.121       73.255        8.892        0.015      342.192       17.429      864.217
10/20/2013  12:01:00       -8.290      -23.862       12.882       42.246       41.505       31.895     1784.746     1722.669     1017.288        0.266        0.226       25.261       35.423        1.966      342.266       17.557      864.202
10/20/2013  12:02:00      -14.340       -2.492        7.197       28.269       19.927       16.697      799.124      397.067      278.786        0.087        0.074       14.555       15.788        1.177      342.541       18.024      864.196
10/20/2013  12:03:00       28.110       43.652       32.118       41.436       41.428       39.454     1716.902     1716.316     1556.583        0.436        0.249       51.919       30.181        0.338      342.614       18.147      864.180
10/20/2013  12:04:00       20.647       -2.392       18.168       41.827       30.101       23.388     1749.520      906.066      546.996        0.198        0.160       20.785       15.387        0.548      342.588       18.103      864.168
10/20/2013  12:05:00        6.330        0.159       11.158       40.740       29.828       22.721     1659.724      889.697      516.242        0.161        0.153        6.332       19.516        9.500      342.793       18.453      864.149
10/20/2013  12:06:00       86.593       31.210        7.390       38.686       45.345       32.246     1496.615     2056.186     1039.804        0.656        0.230       92.045       26.825        0.085      342.260       17.546      864.143
10/20/2013  12:07:00       31.738       73.025        1.024       40.132       42.632       32.657     1610.594     1817.509     1066.508        0.542        0.225       79.623       26.348        0.109      342.222       17.482      864.131
10/20/2013  12:08:00       10.268       46.023        6.579       27.647       31.264       24.945      764.352      977.450      622.232        0.232        0.118       47.155       21.222        0.203      342.572       18.076      864.127
10/20/2013  12:09:00       51.251       81.176       84.296       61.055       57.970       47.143     3727.682     3360.543     2222.443        1.281        0.466       96.001       48.339        0.254      342.713       18.316      864.115
10/20/2013  12:10:00       31.070       21.264       52.147       35.192       50.631       34.756     1238.491     2563.483     1207.953        0.457        0.250       37.650       33.917        0.812      342.520       17.987      864.112
10/20/2013  12:11:00       37.803       -9.636       51.210       57.730       74.841       53.037     3332.699     5601.165     2812.922        0.794        0.587       39.012       56.075        2.066      342.713       18.314      864.106
10/20/2013  12:12:00       38.348       -2.848       29.722       45.674       63.464       41.563     2086.157     4027.624     1727.505        0.510        0.392       38.454       32.656        0.721      342.644       18.198      864.098
10/20/2013  12:13:00      142.881       94.930        9.142       61.780       40.669       43.894     3816.763     1653.941     1926.675        1.845        0.370      171.542       28.388        0.027      342.422       17.819      864.100
10/20/2013  12:14:00       77.393       80.613       -0.340       42.966       33.545       37.424     1846.050     1125.249     1400.591        0.843        0.219      111.751       25.057        0.050      342.250       17.527      864.104
10/20/2013  12:15:00       69.809       56.066        8.638       38.264       37.081       38.761     1464.111     1374.978     1502.405        0.622        0.217       89.536       28.402        0.101      342.389       17.764      864.085
10/20/2013  12:16:00      116.820       65.443       21.070       54.953       47.798       39.250     3019.819     2284.654     1540.566        1.261        0.342      133.902       20.114        0.023      342.604       18.129      864.076
10/20/2013  12:17:00       82.404       87.900       50.133       51.750       39.503       41.782     2678.092     1560.457     1745.712        1.151        0.299      120.486       25.329        0.044      342.566       18.066      864.059
10/20/2013  12:18:00       95.202       64.470        4.309       42.733       31.545       38.344     1826.148      995.071     1470.265        0.876        0.215      114.977       21.005        0.033      342.443       17.856      864.052
10/20/2013  12:19:00       72.118       94.946       -1.911       52.604       45.528       51.511     2767.152     2072.826     2653.384        1.086        0.375      119.230       32.809        0.076      342.537       18.017      864.017
10/20/2013  12:20:00       50.372       30.710       14.619       38.960       19.997       22.487     1517.889      399.897      505.667        0.306        0.121       58.996       17.592        0.089      342.668       18.239      864.002
10/20/2013  12:21:00       12.380       20.600       25.517       37.099       48.322       26.985     1376.344     2335.038      728.216        0.283        0.222       24.034       18.327        0.581      342.946       18.712      863.974
10/20/2013  12:22:00       -2.764       26.744       50.318       28.479       37.188       38.653      811.028     1382.961     1494.035        0.347        0.184       26.886       29.797        1.228      343.175       19.103      863.974
10/20/2013  12:23:00       36.439       56.192       68.001       41.853       40.944       32.554     1751.691     1676.412     1059.793        0.680        0.224       66.973       28.330        0.179      342.622       18.160      863.954
10/20/2013  12:24:00       59.852       55.949       25.774       59.683       41.922       36.134     3562.073     1757.419     1305.633        0.700        0.331       81.930       27.948        0.116      342.839       18.529      863.940
10/20/2013  12:25:00       -5.143       41.451       72.404       33.424       44.997       33.942     1117.134     2024.743     1152.057        0.564        0.215       41.769       22.196        0.282      343.204       19.151      863.914
10/20/2013  12:26:00       85.101       21.780       55.057       45.079       58.798       53.229     2032.096     3457.231     2833.275        0.953        0.416       87.844       48.840        0.309      342.643       18.195      863.904
10/20/2013  12:27:00      103.232       88.767       21.574       50.441       55.212       60.506     2544.340     3048.364     3661.027        1.413        0.463      136.149       41.787        0.094      342.674       18.249      863.876
10/20/2013  12:28:00       97.842       55.980       46.656       34.280       34.691       46.920     1175.111     1203.485     2201.509        0.973        0.229      112.725       31.796        0.080      342.560       18.056      863.857
10/20/2013  12:29:00       44.413        5.279       28.037       45.295       30.172       31.921     2051.639      910.362     1018.921        0.338        0.199       44.726       28.161        0.396      342.707       18.306      863.841
10/20/2013  12:30:00       48.715      -23.493       25.027       52.188       61.515       47.765     2723.589     3784.037     2281.490        0.617        0.439       54.084       49.489        0.837      342.893       18.622      863.825
10/20/2013  12:31:00       37.011       -3.123       33.341       31.372       33.840       30.309      984.225     1145.120      918.625        0.277        0.152       37.143       23.103        0.387      342.835       18.522      863.818
10/20/2013  12:32:00      -11.473      -43.982      -32.412       28.036       34.125       19.174      786.011     1164.482      367.636        0.272        0.116       45.454       17.516        0.149      342.654       18.215      863.806
10/20/2013  12:33:00      -22.658        9.608      -15.204       37.428       23.177       20.858     1400.842      537.183      435.045        0.160        0.119       24.611       16.887        0.471      342.978       18.768      863.794
10/20/2013  12:34:00       12.384        8.842       29.997       23.466       50.703       33.913      550.664     2570.787     1150.109        0.270        0.214       15.216       32.323        4.512      343.337       19.378      863.790
10/20/2013  12:35:00       22.411       43.607       72.898       46.253       33.502       22.828     2139.320     1122.402      521.097        0.575        0.189       49.029       11.468        0.055      343.232       19.199      863.782
10/20/2013  12:36:00       10.455      -23.158       10.329       36.283       37.953       33.537     1316.424     1440.461     1124.710        0.232        0.194       25.409       26.985        1.128      343.128       19.023      863.784
10/20/2013  12:37:00       36.283      -19.247       16.327       37.455       61.663       35.976     1402.859     3802.325     1294.296        0.423        0.325       41.072       20.640        0.253      343.223       19.183      863.778
10/20/2013  12:38:00       68.328      -99.134      -17.448       44.686       53.546       27.073     1996.810     2867.194      732.929        1.020        0.280      120.401       28.355        0.055      342.980       18.770      863.770
10/20/2013  12:39:00       69.590     -141.434      -29.573       63.042       49.249       31.346     3974.346     2425.479      982.589        1.655        0.369      157.627       15.805        0.010      342.978       18.763      863.752
10/20/2013  12:40:00       48.983      -80.543       19.064       48.058       66.626       45.070     2309.614     4439.088     2031.282        0.901        0.439       94.268       48.730        0.267      343.018       18.835      863.739
10/20/2013  12:41:00       47.146      -42.470       29.263       59.092       66.340       45.837     3491.873     4400.945     2101.071        0.744        0.500       63.454       39.868        0.395      343.399       19.484      863.722
10/20/2013  12:42:00      117.406      -58.193       16.022       55.678       56.935       45.964     3100.002     3241.617     2112.645        1.294        0.423      131.037       38.366        0.086      343.176       19.103      863.702
10/20/2013  12:43:00       57.551       35.561       55.200       56.951       45.872       33.500     3243.455     2104.218     1122.249        0.705        0.323       67.651       29.764        0.194      343.357       19.412      863.680
10/20/2013  12:44:00       51.460       91.631       88.003       77.310       70.285       48.174     5976.807     4939.955     2320.752        1.601        0.662      105.092       40.414        0.148      343.457       19.581      863.649
10/20/2013  12:45:00      121.775      105.637       70.893       69.228       63.096       69.482     4792.567     3981.096     4827.802        2.231        0.680      161.209       51.542        0.102      343.227       19.189      863.622
10/20/2013  12:46:00       11.901       79.540      118.153       62.199       74.960       41.381     3868.711     5618.997     1712.422        1.581        0.560       80.425       49.020        0.372      343.623       19.865      863.600
10/20/2013  12:47:00       10.365       55.719      101.708       38.518       61.215       34.076     1483.601     3747.321     1161.201        0.997        0.320       56.674       33.556        0.351      343.980       20.474      863.589
10/20/2013  12:48:00       31.621       59.560       73.734       58.990       55.111       35.187     3479.816     3037.246     1238.138        0.887        0.388       67.433       26.548        0.155      343.612       19.847      863.584
10/20/2013  12:49:00       43.030      -78.937       23.043       40.195      110.772       44.897     1615.601    12270.416     2015.702        1.226        0.795       89.903       63.138        0.493      343.444       19.560      863.562
10/20/2013  12:50:00       68.219      -10.325       48.770       66.797       93.533       63.837     4461.886     8748.332     4075.116        1.221        0.864       68.996       56.723        0.676      343.541       19.725      863.550
10/20/2013  12:51:00       95.835       56.179       34.951       32.724       36.642       52.813     1070.871     1342.634     2789.225        0.938        0.260      111.088       26.824        0.058      343.108       18.988      863.545
10/20/2013  12:52:00       73.065       56.989       26.192       26.468       25.215       33.166      700.541      635.810     1100.004        0.585        0.122       92.661       13.118        0.020      343.145       19.051      863.526
10/20/2013  12:53:00       72.285       51.553       59.522       39.409       44.822       35.399     1553.047     2009.014     1253.079        0.812        0.241       88.786       27.727        0.098      343.292       19.301      863.499
10/20/2013  12:54:00       30.629      -39.786       27.045       36.749       67.304       37.808     1350.468     4529.802     1429.417        0.528        0.365       50.210       43.668        0.756      343.606       19.835      863.477
10/20/2013  12:55:00       13.933        2.627       28.265       29.520       46.576       21.904      871.431     2169.328      479.766        0.226        0.176       14.178       18.118        1.633      343.941       20.407      863.464
10/20/2013  12:56:00       33.190       17.719       23.484       35.407       47.643       28.993     1253.659     2269.854      840.593        0.316        0.218       37.624       20.334        0.292      344.099       20.678      863.438
10/20/2013  12:57:00       26.979       53.109       11.249       47.610       32.366       32.590     2266.733     1047.559     1062.085        0.402        0.219       59.568       22.715        0.145      343.944       20.412      863.422
10/20/2013  12:58:00       64.396       46.001       15.038       42.098       36.277       41.857     1772.267     1316.002     1752.037        0.566        0.242       79.139       19.509        0.061      343.559       19.756      863.414
10/20/2013  12:59:00       56.059       25.489       -1.366       21.228       23.477       20.156      450.618      551.162      406.271        0.260        0.070       61.582       12.249        0.040      343.485       19.631      863.395
10/20/2013  13:00:00        6.514       19.218       -3.759       15.010       18.957       13.585      225.293      359.360      184.557        0.060        0.038       20.292        8.096        0.159      343.821       20.203      863.385
10/20/2013  13:01:00       11.606       23.587       13.403       19.367       24.892       31.102      375.066      619.627      967.310        0.142        0.098       26.288       21.449        0.666      344.134       20.737      863.366
10/20/2013  13:02:00        9.854       30.904       63.125       36.402       47.022       33.950     1325.101     2211.043     1152.573        0.486        0.234       32.437       28.565        0.776      344.369       21.138      863.362
10/20/2013  13:03:00       43.310       45.107       48.775       51.962       40.932       42.919     2700.085     1675.455     1842.051        0.625        0.311       62.533       35.684        0.326      344.190       20.834      863.339
10/20/2013  13:04:00       19.632       33.069       28.360       53.263       42.667       37.575     2836.910     1820.498     1411.860        0.418        0.303       38.457       20.383        0.281      344.381       21.159      863.333
10/20/2013  13:05:00       80.824       77.135       21.892       46.598       32.553       31.108     2171.336     1059.671      967.726        0.858        0.210      111.724       21.910        0.038      343.567       19.769      863.319
10/20/2013  13:06:00        4.245       66.878        9.945       40.193       58.455       34.326     1615.464     3416.997     1178.268        0.540        0.311       67.013       26.949        0.162      343.760       20.098      863.300
10/20/2013  13:07:00      -34.134       54.469        3.906       36.997       25.439       29.094     1368.791      647.154      846.436        0.350        0.143       64.280       26.441        0.169      343.813       20.189      863.290
10/20/2013  13:08:00        5.008        1.247       -6.620       19.713       20.015       16.749      388.609      400.618      280.520        0.057        0.053        5.161       15.447        8.958      343.977       20.471      863.266
10/20/2013  13:09:00      -50.273       -8.395        6.599       36.132       29.674       18.578     1305.533      880.519      345.132        0.259        0.127       50.969       19.430        0.145      344.003       20.513      863.257
10/20/2013  13:10:00        3.573       16.001       11.352       24.307       15.967       20.365      590.833      254.931      414.737        0.083        0.063       16.395       16.623        1.028      344.363       21.128      863.246
10/20/2013  13:11:00       63.477       38.516        9.670       54.021       44.060       28.607     2918.241     1941.316      818.378        0.564        0.284       74.248       28.424        0.147      344.100       20.679      863.238
10/20/2013  13:12:00      131.876       75.546        5.573       65.618       50.094       32.641     4305.743     2509.400     1065.428        1.550        0.394      151.982       14.643        0.009      343.838       20.232      863.222
10/20/2013  13:13:00       73.614       60.527       43.723       78.421       58.274       65.929     6149.923     3395.866     4346.597        1.244        0.695       95.302       60.895        0.408      343.818       20.197      863.200
10/20/2013  13:14:00       21.167       49.006       78.427       38.662       52.550       42.760     1494.777     2761.465     1828.405        0.754        0.304       53.382       40.599        0.578      344.050       20.593      863.182
10/20/2013  13:15:00       45.717       14.897       40.130       41.351       36.215       39.205     1709.920     1311.492     1537.059        0.424        0.228       48.083       36.614        0.580      343.882       20.307      863.177
10/20/2013  13:16:00       41.528      -24.019       19.628       31.904       24.672       18.981     1017.848      608.693      360.263        0.234        0.099       47.974       12.356        0.066      343.835       20.227      863.158
10/20/2013  13:17:00       41.049       13.668       48.348       35.788       48.165       23.369     1280.787     2319.867      546.099        0.418        0.207       43.265       24.609        0.324      344.317       21.050      863.149
10/20/2013  13:18:00      -54.400      -25.929      -23.495       41.302       15.557       15.608     1705.816      242.027      243.624        0.319        0.110       60.264       21.656        0.129      343.700       19.996      863.132
10/20/2013  13:19:00      -96.592      -36.101       -0.227       45.154       33.506       27.601     2038.896     1122.685      761.831        0.728        0.196      103.117       30.547        0.088      343.857       20.262      863.111
10/20/2013  13:20:00       16.232       49.971       77.973       59.788       77.652       48.681     3574.633     6029.905     2369.880        1.041        0.599       52.541       54.088        1.060      344.343       21.094      863.096
10/20/2013  13:21:00       63.750      -29.654       36.204       74.679      119.601       63.624     5577.020    14304.496     4048.033        1.509        1.196       70.309       83.740        1.419      344.156       20.773      863.083
10/20/2013  13:22:00       94.551     -127.411       -0.894       54.076       72.870       43.191     2924.193     5310.016     1865.490        1.764        0.505      158.661       37.888        0.057      344.081       20.645      863.060
10/20/2013  13:23:00      113.628     -145.106       -3.683       62.986       78.782       42.939     3967.298     6206.644     1843.740        2.300        0.601      184.301       41.906        0.052      344.200       20.846      863.050
10/20/2013  13:24:00       93.694      -77.782       38.412       63.870       88.451       62.064     4079.331     7823.549     3851.929        1.603        0.788      121.773       67.935        0.311      344.259       20.949      863.039
10/20/2013  13:25:00       50.353     -106.370       20.420       57.697       59.959       43.188     3328.979     3595.113     1865.166        1.153        0.439      117.686       41.448        0.124      344.246       20.929      863.025
10/20/2013  13:26:00       46.999      -15.795       33.535       61.607       35.208       30.724     3795.464     1239.616      943.977        0.478        0.299       49.582       25.824        0.271      344.474       21.318      863.027
10/20/2013  13:27:00       57.669      -54.295       33.278       78.920      108.223       57.013     6228.302    11712.238     3250.463        1.428        1.060       79.206       49.180        0.386      344.279       20.983      863.001
10/20/2013  13:28:00      103.209      125.105        7.954      100.958       58.299       47.496    10192.456     3398.719     2255.850        2.110        0.792      162.183       33.057        0.042      344.284       20.991      863.007
10/20/2013  13:29:00      197.979      140.152       34.088       71.002       54.341       50.177     5041.256     2952.990     2517.751        3.525        0.526      242.566       27.959        0.013      343.973       20.460      863.000
10/20/2013  13:30:00      200.837      108.391       39.854       95.619       68.872       53.877     9143.060     4743.393     2902.737        3.523        0.839      228.220       23.049        0.010      344.043       20.580      862.999
10/20/2013  13:31:00      137.647       85.980       15.050       51.579       46.623       35.534     2660.425     2173.681     1262.662        1.633        0.305      162.294       12.988        0.006      344.036       20.569      863.002
10/20/2013  13:32:00       77.663       44.172       10.734       61.836       52.285       36.950     3823.650     2733.685     1365.275        0.801        0.396       89.346        7.855        0.008      344.267       20.964      862.990
10/20/2013  13:33:00      112.031       68.648       31.511       50.958       46.952       38.625     2596.671     2204.482     1491.899        1.227        0.315      131.391       17.970        0.019      344.386       21.167      862.985
10/20/2013  13:34:00      101.124       60.036       52.766       53.044       44.770       47.072     2813.699     2004.353     2215.748        1.182        0.352      117.603       17.641        0.023      344.294       21.011      862.971
10/20/2013  13:35:00       62.605       52.987        2.276       44.363       44.099       26.449     1968.062     1944.758      699.573        0.567        0.231       82.018       25.100        0.094      344.032       20.564      862.965
10/20/2013  13:36:00       20.807       43.414       -3.421       31.041       38.594       25.870      963.554     1489.507      669.233        0.273        0.156       48.143       14.318        0.088      344.268       20.966      862.942
10/20/2013  13:37:00      114.216       58.774       41.301       75.904       67.674       62.980     5761.463     4579.820     3966.505        1.625        0.715      128.451       41.263        0.103      344.230       20.901      862.931
10/20/2013  13:38:00       99.116       51.606       19.372       63.894       53.172       36.271     4082.393     2827.295     1315.618        1.054        0.411      111.746       30.286        0.073      344.154       20.773      862.921
10/20/2013  13:39:00        1.722       -3.667       15.304       19.824       33.387       19.569      392.982     1114.682      382.935        0.107        0.095        4.051       17.217       18.064      344.663       21.642      862.923
10/20/2013  13:40:00       74.186       29.310       40.796       63.596       90.659       53.496     4044.496     8219.076     2861.852        1.157        0.756       79.766       53.484        0.450      344.316       21.048      862.899
10/20/2013  13:41:00      137.690       91.291       19.202       50.164       49.559       41.082     2516.463     2456.143     1687.770        1.716        0.333      165.204       24.938        0.023      344.330       21.071      862.888
10/20/2013  13:42:00       85.844       74.773       -3.146       38.699       45.160       36.945     1497.596     2039.391     1364.908        0.894        0.245      113.843       31.521        0.077      344.315       21.047      862.878
10/20/2013  13:43:00       17.317       49.748        9.656       31.410       48.083       30.427      986.604     2311.928      925.827        0.355        0.211       52.675       26.381        0.251      344.522       21.400      862.868
10/20/2013  13:44:00      128.894       87.520        6.549       79.424       50.080       39.915     6308.113     2507.991     1593.214        1.736        0.520      155.799       28.237        0.033      344.245       20.924      862.855
10/20/2013  13:45:00      115.721      101.666        1.985       67.806       42.223       34.528     4597.691     1782.806     1192.164        1.565        0.379      154.036       15.064        0.010      344.315       21.045      862.842
10/20/2013  13:46:00       30.351      136.627      -12.815       56.111       66.035       43.071     3148.448     4360.565     1855.104        1.456        0.468      139.957       40.744        0.085      344.355       21.114      862.820
10/20/2013  13:47:00        3.760       82.004       12.278       32.009       59.251       30.350     1024.549     3510.627      921.140        0.617        0.273       82.090       30.361        0.137      344.561       21.467      862.821
10/20/2013  13:48:00      -17.615       59.902       -6.025       23.809       34.524       24.191      566.890     1191.893      585.185        0.314        0.117       62.439       15.474        0.061      344.471       21.313      862.798
10/20/2013  13:49:00       61.679       54.272       -1.868       58.479       35.508       37.310     3419.820     1260.849     1392.007        0.641        0.304       82.157       26.148        0.101      344.573       21.488      862.762
10/20/2013  13:50:00      135.442       86.259        3.251       86.889       49.665       34.279     7549.681     2466.633     1175.045        1.849        0.560      160.578        7.606        0.002      344.501       21.362      862.751
10/20/2013  13:51:00       53.176       37.444       18.400       46.336       25.878       26.762     2147.033      669.653      716.201        0.405        0.177       65.037       30.154        0.215      344.331       21.074      862.736
10/20/2013  13:52:00      146.254       47.774      112.161      112.498       79.016       58.588    12655.853     6243.478     3432.515        2.929        1.117      153.859       54.902        0.127      344.486       21.338      862.695
10/20/2013  13:53:00       81.084       64.622      100.581       95.310       94.595       65.418     9083.937     8948.156     4279.454        2.159        1.116      103.686       68.577        0.437      344.551       21.449      862.682
10/20/2013  13:54:00       82.971       28.512       78.775       79.781       68.174       50.729     6365.024     4647.673     2573.390        1.374        0.679       87.733       51.759        0.348      344.617       21.561      862.690
10/20/2013  13:55:00       66.584       62.853       78.926       65.180       54.331       46.134     4248.386     2951.843     2128.387        1.197        0.466       91.564       41.288        0.203      344.535       21.420      862.688
10/20/2013  13:56:00       96.898       42.752       21.968       55.038       49.029       22.374     3029.135     2403.828      500.613        0.882        0.297      105.910       16.648        0.025      344.368       21.138      862.676
10/20/2013  13:57:00       47.836       59.457        1.641       56.729       35.239       31.208     3218.143     1241.796      973.911        0.563        0.272       76.311       21.587        0.080      344.684       21.676      862.677
10/20/2013  13:58:00        6.291       75.346        0.002       24.344       41.592       28.612      592.620     1729.905      818.665        0.443        0.157       75.608       26.850        0.126      344.573       21.489      862.659
10/20/2013  13:59:00       46.512      -58.724        9.880       54.429       67.017       43.636     2962.526     4491.316     1904.116        0.753        0.468       74.912       43.865        0.343      344.543       21.436      862.649
10/20/2013  14:00:00       33.944       30.798       36.482       50.710       32.006       52.376     2571.467     1024.368     2743.207        0.488        0.317       45.833       39.652        0.748      344.488       21.342      862.642
10/20/2013  14:01:00      -18.613       18.603        2.598       28.399       20.789       33.319      806.498      432.175     1110.151        0.152        0.117       26.315       20.314        0.596      344.638       21.598      862.615
10/20/2013  14:02:00       48.998      -37.502       24.431       53.291       39.568       27.159     2839.896     1565.662      737.613        0.477        0.257       61.702       22.819        0.137      344.636       21.593      862.608
10/20/2013  14:03:00       22.314      -10.934        9.631       25.861       31.612       23.214      668.795      999.331      538.887        0.146        0.110       24.849       21.726        0.764      344.722       21.745      862.604
10/20/2013  14:04:00       53.196       27.401       51.611       61.174       39.440       32.826     3742.210     1555.493     1077.572        0.631        0.319       59.838       32.180        0.289      344.675       21.663      862.594
10/20/2013  14:05:00       83.120       32.163       53.163       80.036       54.350       54.628     6405.716     2953.930     2984.204        1.155        0.617       89.126       48.886        0.301      344.805       21.883      862.565
10/20/2013  14:06:00       83.262       49.752       31.401       82.192       58.502       43.128     6755.515     3422.511     1860.064        1.121        0.602       96.994       33.312        0.118      344.960       22.151      862.562
10/20/2013  14:07:00      153.995      106.937       11.099       80.504       64.045       46.226     6480.830     4101.789     2136.823        2.399        0.636      187.483       36.079        0.037      344.592       21.517      862.567
10/20/2013  14:08:00      173.360       93.277        5.263       53.682       37.473       29.973     2881.732     1404.245      898.383        2.198        0.259      196.861       12.184        0.004      344.338       21.085      862.554
10/20/2013  14:09:00       86.020       60.023       32.825       61.103       41.993       46.923     3733.594     1763.393     2201.779        0.989        0.385      104.891       22.750        0.047      344.612       21.554      862.544
10/20/2013  14:10:00      113.334       92.932        6.687       65.351       37.962       33.825     4270.744     1441.090     1144.120        1.419        0.343      146.564       26.544        0.033      344.408       21.206      862.532
10/20/2013  14:11:00      -16.528      -52.476       21.256       42.987       71.698       33.669     1847.868     5140.562     1133.586        0.580        0.406       55.018       16.766        0.093      344.954       22.139      862.508
10/20/2013  14:12:00       18.629       44.091       50.811       30.041       52.474       39.396      902.455     2753.570     1552.012        0.504        0.260       47.865       29.329        0.375      344.798       21.873      862.501
10/20/2013  14:13:00      -30.948       67.409      -13.813       36.960       34.796       25.062     1366.031     1210.731      628.090        0.445        0.160       74.174       22.295        0.090      344.408       21.207      862.497
10/20/2013  14:14:00      -88.761        4.021      -13.151       46.767       22.219       26.404     2187.156      493.674      697.170        0.572        0.169       88.852       27.771        0.098      344.407       21.204      862.478
10/20/2013  14:15:00      -73.583       -8.263      -13.499       30.753       22.684       14.370      945.745      514.580      206.499        0.367        0.083       74.046       13.693        0.034      344.464       21.301      862.465
10/20/2013  14:16:00      -54.279       71.140       -0.359       34.900       43.659       31.601     1218.010     1906.145      998.616        0.606        0.206       89.483       23.077        0.067      344.911       22.066      862.449
10/20/2013  14:17:00        7.123       63.956        3.281       36.281       53.616       32.119     1316.307     2874.710     1031.639        0.469        0.261       64.351       31.335        0.237      344.826       21.922      862.441
10/20/2013  14:18:00      -12.335      109.456      -22.931       20.064       43.111       19.186      402.557     1858.587      368.084        0.764        0.131      110.148       17.528        0.025      344.515       21.388      862.438
10/20/2013  14:19:00      -45.811       18.598        1.004       20.227       22.339       23.589      409.139      499.009      556.425        0.195        0.073       49.442       17.421        0.124      344.982       22.188      862.416
10/20/2013  14:20:00      -66.184       13.524       -5.992       74.586       37.002       33.004     5563.051     1369.160     1089.264        0.631        0.401       67.551       40.328        0.356      344.839       21.942      862.409
10/20/2013  14:21:00      -46.768      144.280       -9.778       33.434       61.067       30.317     1117.810     3729.159      919.100        1.443        0.288      151.671       29.788        0.039      344.643       21.607      862.405
10/20/2013  14:22:00      -10.110      194.815      -15.550       29.630       38.246       26.757      877.923     1462.754      715.941        2.068        0.153      195.077       22.656        0.013      344.421       21.227      862.396
10/20/2013  14:23:00      -65.099      108.979      -14.907       43.245       45.334       28.369     1870.153     2055.142      804.789        1.053        0.237      126.942       27.666        0.047      344.552       21.452      862.402
10/20/2013  14:24:00      -29.568       27.803      -18.212       31.161       19.162       21.192      971.002      367.189      449.084        0.188        0.089       40.587       14.702        0.131      344.687       21.683      862.400
10/20/2013  14:25:00      -37.592        9.323      -21.267       36.000       21.795       14.372     1296.006      475.032      206.556        0.196        0.099       38.731        7.903        0.042      344.692       21.691      862.378
10/20/2013  14:26:00      -27.392       12.874       -4.158       15.337       22.852       20.791      235.232      522.215      432.276        0.106        0.059       30.266       10.071        0.111      344.814       21.899      862.368
10/20/2013  14:27:00       -3.901       21.905       -8.432       10.330       11.058       13.215      106.702      122.284      174.640        0.048        0.020       22.249        2.909        0.017      344.657       21.633      862.346
10/20/2013  14:28:00        1.292       16.548        3.577        6.702       12.865        9.422       44.923      165.504       88.767        0.029        0.015       16.598        3.237        0.038      344.979       22.182      862.336
10/20/2013  14:29:00       26.883       22.253        2.422       23.925       20.936       14.347      572.384      438.319      205.826        0.122        0.061       34.898       11.806        0.114      344.718       21.736      862.335
10/20/2013  14:30:00       30.480       31.138        3.006       39.828       26.345       14.902     1586.297      694.045      222.068        0.220        0.125       43.573       12.350        0.080      344.728       21.754      862.318
10/20/2013  14:31:00       67.933       72.020       -3.453       65.673       48.337       37.832     4313.006     2336.494     1431.271        0.895        0.404       99.004       33.996        0.118      344.729       21.754      862.315
10/20/2013  14:32:00      184.120      104.457       40.053       83.806       45.785       43.599     7023.380     2096.231     1900.888        2.872        0.551      211.687       35.455        0.028      344.570       21.478      862.291
10/20/2013  14:33:00      165.485       57.646       30.003       71.229       43.977       42.586     5073.612     1933.972     1813.592        2.021        0.441      175.238       38.499        0.048      344.637       21.595      862.293
10/20/2013  14:34:00      105.395       71.189       47.010       49.937       45.904       40.379     2493.677     2107.218     1630.477        1.231        0.312      127.185       33.788        0.071      344.531       21.415      862.301
10/20/2013  14:35:00       40.643       24.789        0.415       25.445       24.206       26.921      647.458      585.917      724.718        0.211        0.098       47.606       21.396        0.202      344.539       21.428      862.291
10/20/2013  14:36:00      -79.690       -1.406      -19.885       36.771       30.946       13.930     1352.136      957.672      194.034        0.463        0.125       79.702       10.360        0.017      344.495       21.353      862.282
10/20/2013  14:37:00     -138.718      -72.406      -12.879       27.071       30.703       21.113      732.821      942.645      445.742        1.339        0.106      156.477        8.070        0.003      344.493       21.349      862.258
10/20/2013  14:38:00      -84.526      -69.128       -2.019       67.360       41.610       26.332     4537.345     1731.366      693.355        0.944        0.348      109.194       16.886        0.024      344.778       21.838      862.235
10/20/2013  14:39:00       11.920       -2.121        2.947       26.093       19.667       20.711      680.831      386.779      428.939        0.083        0.075       12.107       13.757        1.291      345.099       22.386      862.244
10/20/2013  14:40:00       50.180        4.959       35.221       47.307       35.511       24.701     2237.976     1261.004      610.164        0.395        0.205       50.424       21.437        0.181      344.934       22.106      862.235
10/20/2013  14:41:00       76.434       57.819       40.910       60.391       34.647       40.403     3647.025     1200.396     1632.396        0.867        0.324       95.839       35.402        0.136      344.864       21.983      862.215
10/20/2013  14:42:00       62.143        1.599       20.456       42.823       43.280       29.662     1833.802     1873.131      879.846        0.443        0.229       62.164       23.997        0.149      344.767       21.820      862.211
10/20/2013  14:43:00       56.462       62.744        2.112       51.800       43.519       40.812     2683.278     1893.895     1665.599        0.668        0.312       84.408       22.732        0.073      344.736       21.766      862.196
10/20/2013  14:44:00       22.028       39.370       10.284       47.459       35.610       21.824     2252.353     1268.084      476.279        0.307        0.200       45.113       24.452        0.294      344.749       21.788      862.194
10/20/2013  14:45:00       13.874       22.673        1.212       28.167       16.440       14.480      793.368      270.258      209.673        0.099        0.064       26.581        6.686        0.063      344.776       21.834      862.182
10/20/2013  14:46:00       45.002       53.382       34.927       38.121       43.229       35.600     1453.230     1868.764     1267.374        0.534        0.229       69.820       21.691        0.097      345.065       22.330      862.170
10/20/2013  14:47:00       27.452      -15.504       35.428       54.071       68.553       29.435     2923.639     4699.555      866.438        0.537        0.424       31.528       35.137        1.242      345.282       22.702      862.176
10/20/2013  14:48:00       64.433       -8.505       34.177       36.034       36.027       24.611     1298.428     1297.981      605.682        0.430        0.160       64.992       24.788        0.145      344.808       21.890      862.173
10/20/2013  14:49:00       25.910       39.937       48.004       35.715       37.200       24.805     1275.548     1383.855      615.301        0.392        0.164       47.606       22.400        0.221      345.111       22.409      862.160
10/20/2013  14:50:00       -8.092        0.503       17.111       36.704       27.800       18.095     1347.148      772.849      327.424        0.140        0.122        8.108       20.273        6.252      345.389       22.883      862.162
10/20/2013  14:51:00      -36.173       97.785       -5.492       38.655       76.826       27.190     1494.200     5902.243      739.291        0.952        0.407      104.261       32.056        0.095      345.049       22.302      862.169
10/20/2013  14:52:00       -9.551       61.547        1.482       28.514       37.387       23.957      813.062     1397.795      573.927        0.333        0.139       62.284       12.532        0.040      344.998       22.215      862.158
10/20/2013  14:53:00       38.657      -36.810       -7.120       19.594       33.556       21.430      383.907     1126.010      459.231        0.243        0.098       53.379       12.000        0.051      344.923       22.087      862.178
10/20/2013  14:54:00      -34.079       -6.921        4.281       45.820       47.254       21.239     2099.507     2232.967      451.088        0.300        0.239       34.775       22.826        0.431      345.165       22.501      862.174
10/20/2013  14:55:00      -80.256       10.978      -17.993       41.399       36.629       18.653     1713.840     1341.707      347.919        0.514        0.170       81.003        8.662        0.011      344.770       21.824      862.170
10/20/2013  14:56:00        4.069       58.666       -3.344       54.321       68.620       52.583     2950.744     4708.692     2764.987        0.695        0.521       58.807       40.264        0.469      344.944       22.122      862.152
10/20/2013  14:57:00      -97.928      138.984       -1.153       77.812       91.908       55.241     6054.718     8447.051     3051.601        2.323        0.878      170.019       66.968        0.155      345.008       22.229      862.130
10/20/2013  14:58:00     -125.674      129.158      -29.747       39.075      102.220       36.666     1526.872    10448.915     1344.361        2.334        0.666      180.210       30.253        0.028      344.881       22.012      862.135
10/20/2013  14:59:00     -105.570      145.506      -20.712       67.729       53.492       36.919     4587.187     2861.420     1363.004        2.078        0.441      179.769       36.151        0.040      344.966       22.159      862.143
10/20/2013  15:00:00      -76.374      154.118      -21.330       41.912       32.264       20.874     1756.574     1040.958      435.705        1.664        0.162      172.004       18.367        0.011      344.741       21.774      862.136
10/20/2013  15:01:00      -70.164      117.973      -18.125       43.400       35.227       23.664     1883.570     1240.939      559.972        1.143        0.184      137.261       21.899        0.025      344.891       22.031      862.127
10/20/2013  15:02:00      -65.007       92.641      -23.383       36.556       39.657       24.029     1336.358     1572.652      577.374        0.842        0.174      113.173       26.555        0.055      344.712       21.727      862.112
10/20/2013  15:03:00      -78.842      131.532      -27.013       44.340       43.807       30.225     1966.005     1919.047      913.526        1.452        0.240      153.351       22.237        0.021      345.069       22.336      862.093
10/20/2013  15:04:00       37.999       53.760       41.507       69.077       62.523       53.607     4771.651     3909.132     2873.727        0.880        0.578       65.833       30.285        0.212      345.296       22.724      862.085
10/20/2013  15:05:00      179.520      135.153       35.795       84.975       69.321       74.509     7220.699     4805.423     5551.651        3.467        0.879      224.708       45.468        0.041      345.021       22.252      862.084
10/20/2013  15:06:00      118.311       93.771        1.697       89.295       60.067       46.365     7973.568     3608.091     2149.694        1.826        0.687      150.965       37.152        0.061      344.923       22.085      862.081
10/20/2013  15:07:00      133.209       83.060       28.223      101.281       49.493       51.290    10257.911     2449.531     2630.642        2.039        0.767      156.983       32.712        0.043      344.768       21.819      862.089
10/20/2013  15:08:00      165.639      120.191       39.382       90.337       62.965       42.783     8160.751     3964.642     1830.378        2.869        0.698      204.652       23.135        0.013      344.703       21.707      862.079
10/20/2013  15:09:00      233.051      144.512       30.052       59.572       50.739       42.836     3548.820     2574.406     1834.885        4.203        0.398      274.220        9.918        0.001      344.735       21.761      862.060
10/20/2013  15:10:00      149.714       79.470       10.205       73.249       55.286       47.159     5365.367     3056.559     2223.968        1.974        0.532      169.498       23.212        0.019      344.715       21.729      862.078
10/20/2013  15:11:00       94.591       60.348       -1.080       44.720       35.830       26.340     1999.881     1283.803      693.775        0.828        0.199      112.202        8.610        0.006      344.733       21.761      862.070
10/20/2013  15:12:00       65.719       42.199        4.492       23.316       35.064       18.140      543.637     1229.481      329.052        0.411        0.105       78.101       15.113        0.037      344.898       22.043      862.051
10/20/2013  15:13:00       10.595       13.357       48.395       29.300       60.884       34.516      858.499     3706.878     1191.387        0.419        0.288       17.049       36.299        4.533      345.342       22.804      862.042
10/20/2013  15:14:00       89.800      -60.322       13.564       84.356       61.022       39.677     7115.943     3723.644     1574.239        1.215        0.621      108.179       40.809        0.142      344.936       22.107      862.046
10/20/2013  15:15:00       32.690      -14.734        9.668       46.383       60.692       29.646     2151.363     3683.574      878.869        0.405        0.336       35.857       26.306        0.538      344.867       21.991      862.047
10/20/2013  15:16:00       49.873       43.634       23.004       23.944       26.097       26.121      573.333      681.062      682.299        0.343        0.097       66.266       18.541        0.078      344.826       21.921      862.037
10/20/2013  15:17:00       25.681        9.319        5.373       22.853       29.118       20.499      522.251      847.866      420.196        0.128        0.090       27.319       14.851        0.295      345.057       22.316      862.043
10/20/2013  15:18:00       48.338       22.594       13.693       23.205       44.539       24.643      538.450     1983.727      607.262        0.308        0.156       53.358       23.764        0.198      345.005       22.226      862.043
10/20/2013  15:19:00        6.058       47.286       -3.216       47.333       48.341       26.680     2240.415     2336.874      711.816        0.379        0.264       47.672       25.229        0.280      344.965       22.158      862.037
10/20/2013  15:20:00      -96.386      -55.611       -8.715       55.449       44.147       25.233     3074.565     1948.996      636.693        0.906        0.283      111.279       24.795        0.050      345.297       22.727      862.028
10/20/2013  15:21:00        1.927      -38.820      -14.257       32.812       29.094       24.769     1076.641      846.474      613.521        0.212        0.127       38.868       16.166        0.173      345.170       22.508      862.024
10/20/2013  15:22:00      -41.463        5.971        5.061       47.366       36.481       24.384     2243.547     1330.845      594.596        0.297        0.208       41.891       11.320        0.073      345.180       22.527      862.019
10/20/2013  15:23:00       48.670      -41.378       12.088       25.134       25.498       20.646      631.715      650.162      426.277        0.297        0.085       63.882       14.179        0.049      345.042       22.291      862.032
10/20/2013  15:24:00       25.806      -35.696        6.033       34.706       39.107       22.900     1204.509     1529.385      524.418        0.262        0.163       44.047        5.026        0.013      345.320       22.767      862.032
10/20/2013  15:25:00        9.954       10.926       38.850       22.983       37.490       23.773      528.205     1405.490      565.145        0.211        0.125       14.780       20.245        1.876      345.369       22.851      862.025
10/20/2013  15:26:00       86.255       98.912       96.461       93.073       64.655       63.414     8662.675     4180.260     4021.362        2.169        0.843      131.238       64.357        0.240      344.987       22.193      862.011
10/20/2013  15:27:00       67.039       32.707       41.956       53.083       45.641       33.171     2817.855     2083.089     1100.348        0.666        0.300       74.592       29.748        0.159      344.828       21.924      862.013
10/20/2013  15:28:00       61.361       49.942       57.733       39.652       47.001       41.582     1572.294     2209.126     1729.070        0.755        0.276       79.116       30.975        0.153      344.852       21.966      862.015
10/20/2013  15:29:00      110.059       46.200       34.582       41.991       35.162       51.830     1763.209     1236.348     2686.322        1.056        0.284      119.363       22.493        0.036      344.733       21.762      862.011
10/20/2013  15:30:00       50.965       39.040       17.342       28.479       14.210       22.917      811.075      201.918      525.199        0.298        0.077       64.200       14.238        0.049      344.853       21.967      861.987
10/20/2013  15:31:00       22.991       21.976       37.953       30.016       33.710       24.910      900.956     1136.344      620.496        0.255        0.133       31.805       19.314        0.369      345.127       22.437      861.986
10/20/2013  15:32:00       27.716       18.065       29.116       29.770       27.550       37.192      886.255      758.990     1383.228        0.248        0.151       33.084       24.851        0.564      345.114       22.415      861.986
10/20/2013  15:33:00       29.319       21.949        3.551       31.685       27.092       22.269     1003.934      733.972      495.890        0.179        0.112       36.625       17.991        0.241      345.151       22.476      861.982
10/20/2013  15:34:00       23.332       26.451       35.017       29.373       35.421       35.173      862.749     1254.665     1237.171        0.291        0.168       35.271       29.052        0.678      345.326       22.776      861.972
10/20/2013  15:35:00       64.844       31.362       17.057       66.734       38.735       34.220     4453.472     1500.410     1171.026        0.630        0.356       72.030       13.488        0.035      345.156       22.485      861.979
10/20/2013  15:36:00       52.319       51.438       20.023       33.010       25.073       22.708     1089.691      628.656      515.637        0.401        0.112       73.370       20.707        0.080      345.107       22.404      861.972
10/20/2013  15:37:00       78.559       49.548       23.064       29.235       34.357       29.173      854.674     1180.370      851.049        0.602        0.144       92.879       20.310        0.048      345.144       22.466      861.972
10/20/2013  15:38:00       85.088       89.043      106.336       98.928       73.390       59.234     9786.795     5386.146     3508.706        2.258        0.934      123.161       49.843        0.164      345.200       22.559      861.965
10/20/2013  15:39:00       61.975       71.383       90.957       63.693       59.195       45.641     4056.739     3504.102     2083.086        1.343        0.482       94.533       42.387        0.201      345.195       22.553      861.965
10/20/2013  15:40:00       54.131      -72.278      -15.720       46.019       62.407       41.807     2117.779     3894.591     1747.786        0.808        0.388       90.301       32.215        0.127      345.057       22.316      861.985
10/20/2013  15:41:00       48.229       15.199       44.650       55.425       64.208       49.173     3071.953     4122.609     2417.974        0.708        0.481       50.567       44.133        0.762      345.242       22.632      861.983
10/20/2013  15:42:00       74.666       48.234       59.559       79.748       57.033       46.421     6359.797     3252.773     2154.925        1.161        0.588       88.891       34.562        0.151      345.224       22.602      861.992
10/20/2013  15:43:00       66.159       60.435       47.501       61.986       42.221       42.803     3842.226     1782.622     1832.100        0.887        0.373       89.607       33.444        0.139      345.175       22.518      861.992
10/20/2013  15:44:00      -14.230      -10.966       17.168       29.711       28.770       29.997      882.733      827.724      899.808        0.161        0.131       17.966       20.794        1.340      345.551       23.163      861.991
10/20/2013  15:45:00      -19.215      -27.950       12.314       31.238       42.901       36.013      975.818     1840.483     1296.918        0.271        0.206       33.918       13.107        0.149      345.460       23.006      861.994
10/20/2013  15:46:00       39.294       31.095       11.878       28.268       28.303       20.702      799.078      801.054      428.561        0.234        0.101       50.109       17.328        0.120      345.217       22.590      861.992
10/20/2013  15:47:00       60.976      -43.724       21.662       53.057       75.796       33.612     2815.055     5745.052     1129.760        0.789        0.484       75.033       38.053        0.257      345.248       22.642      861.984
10/20/2013  15:48:00       92.101      -52.493       11.450       61.427       82.838       37.980     3773.314     6862.150     1442.454        1.172        0.604      106.010       38.293        0.130      345.120       22.424      861.969
10/20/2013  15:49:00      149.051       -3.449       49.645      103.911       85.646       67.520    10797.578     7335.230     4558.930        2.369        1.135      149.091       63.668        0.182      345.136       22.449      861.955
10/20/2013  15:50:00      141.473       67.492       24.815       73.380       55.902       46.716     5384.691     3125.006     2182.352        1.794        0.535      156.747       25.581        0.027      345.341       22.799      861.966
10/20/2013  15:51:00       95.493       69.641       16.678       92.159       65.877       54.507     8493.321     4339.804     2970.994        1.502        0.790      118.189       35.828        0.092      345.356       22.828      861.977
10/20/2013  15:52:00      159.641      121.797       16.748      111.782       60.699       46.001    12495.273     3684.426     2116.049        2.944        0.915      200.798       34.030        0.029      345.301       22.731      861.975
10/20/2013  15:53:00       77.722       88.385        2.028       75.709       58.236       47.231     5731.905     3391.447     2230.800        1.260        0.568      117.697       33.945        0.083      345.175       22.517      861.981
10/20/2013  15:54:00      180.206      105.974       13.456      102.133       60.822       61.699    10431.186     3699.331     3806.755        3.091        0.897      209.057       38.416        0.034      345.143       22.461      861.989
10/20/2013  15:55:00      160.168       91.637       27.415       83.133       63.662       45.279     6911.027     4052.803     2050.180        2.391        0.651      184.530       26.336        0.020      345.109       22.402      861.984
10/20/2013  15:56:00      168.724      101.050       16.935       62.289       56.000       44.448     3879.917     3136.049     1975.634        2.398        0.450      196.670       23.631        0.014      345.038       22.282      861.979
10/20/2013  15:57:00      135.121      109.969       14.254       83.717       66.145       36.059     7008.517     4375.098     1300.279        2.162        0.634      174.215       33.517        0.037      344.917       22.073      861.973
10/20/2013  15:58:00       26.403      117.012      -21.400       47.390       45.749       22.986     2245.816     2092.967      528.378        0.986        0.243      119.954       14.748        0.015      344.957       22.144      861.965
10/20/2013  15:59:00       30.126      114.671       -8.881       35.616       45.951       21.561     1268.516     2111.532      464.885        0.899        0.192      118.562       14.351        0.015      344.991       22.204      861.954
10/20/2013  16:00:00       70.433       20.012       23.970       35.786       50.868       35.133     1280.633     2587.524     1234.315        0.552        0.255       73.220       28.644        0.153      344.972       22.170      861.945
10/20/2013  16:01:00        2.634       33.109       42.105       22.223       27.844       21.853      493.866      775.293      477.542        0.231        0.087       33.214       15.805        0.226      345.151       22.477      861.935
10/20/2013  16:02:00        1.163        5.175       19.733       30.889       31.122       27.104      954.128      968.590      734.640        0.154        0.133        5.304       28.293       28.456      345.162       22.496      861.932
10/20/2013  16:03:00       11.524       56.853        6.104       38.867       47.579       22.479     1510.631     2263.754      505.328        0.384        0.214       58.009       26.176        0.204      345.149       22.473      861.937
10/20/2013  16:04:00        6.490      103.537      -17.639       25.389       61.491       18.750      644.577     3781.198      351.558        0.792        0.239      103.740       27.140        0.068      344.972       22.169      861.935
10/20/2013  16:05:00       -3.000       86.072       -8.569       24.953       42.964       19.225      622.662     1845.936      369.589        0.516        0.142       86.124       22.285        0.067      345.070       22.339      861.929
10/20/2013  16:06:00       -2.823      139.319      -19.342       35.306       41.131       21.489     1246.482     1691.725      461.777        1.160        0.170      139.347       20.053        0.021      345.021       22.254      861.925
10/20/2013  16:07:00      -51.305      101.057      -34.762       31.033       42.400       14.557      963.058     1797.795      211.918        0.851        0.149      113.334       11.303        0.010      345.029       22.270      861.913
10/20/2013  16:08:00       37.802       35.189       17.338       43.838       26.155       27.918     1921.731      684.095      779.425        0.318        0.169       51.645       22.160        0.184      345.214       22.584      861.911
10/20/2013  16:09:00        9.604       84.438       -0.345       37.509       41.619       26.980     1406.944     1732.100      727.916        0.554        0.193       84.982       23.529        0.077      345.199       22.558      861.912
10/20/2013  16:10:00      141.271       47.027       26.767       52.755       55.121       39.749     2783.133     3038.289     1580.018        1.514        0.370      148.893       27.667        0.035      345.107       22.402      861.908
10/20/2013  16:11:00      108.582       64.646       31.783       86.695       70.067       55.963     7515.979     4909.351     3131.873        1.627        0.778      126.369       46.170        0.133      345.158       22.488      861.896
10/20/2013  16:12:00      130.763       98.212        6.732       96.668       64.818       51.961     9344.720     4201.341     2699.993        2.152        0.812      163.538       30.847        0.036      345.058       22.315      861.899
10/20/2013  16:13:00      135.711       79.248       21.604       59.445       39.025       48.636     3533.718     1522.979     2365.474        1.629        0.371      157.155       32.543        0.043      344.994       22.208      861.894
10/20/2013  16:14:00      176.280      107.310       31.053       84.367       48.930       47.737     7117.745     2394.116     2278.835        2.767        0.590      206.373       29.897        0.021      345.099       22.385      861.893
10/20/2013  16:15:00      159.829       83.788        8.503       61.551       48.131       43.028     3788.510     2316.614     1851.370        2.030        0.398      180.460       22.736        0.016      345.085       22.362      861.896
10/20/2013  16:16:00      163.336       97.909       38.075       63.067       61.393       54.818     3977.411     3769.142     3005.029        2.423        0.538      190.433       40.596        0.045      345.094       22.377      861.903
10/20/2013  16:17:00      215.418      132.129       24.415       71.635       64.535       39.690     5131.581     4164.779     1575.257        3.766        0.544      252.711       20.585        0.007      344.939       22.110      861.905
10/20/2013  16:18:00      121.246       75.578        6.652       61.800       45.502       34.952     3819.267     2070.396     1221.621        1.378        0.356      142.873       22.742        0.025      344.969       22.165      861.903
10/20/2013  16:19:00      144.992       73.065       19.125       57.594       52.550       35.758     3317.078     2761.480     1278.615        1.704        0.368      162.361       28.244        0.030      344.944       22.122      861.899
10/20/2013  16:20:00       34.945       49.943        4.465       55.092       48.381       41.885     3035.112     2340.708     1754.381        0.543        0.357       60.954       30.003        0.242      344.994       22.209      861.888
10/20/2013  16:21:00       45.264       54.343       -2.227       48.608       38.148       38.994     2362.735     1455.267     1520.526        0.517        0.267       70.725       26.760        0.143      344.979       22.182      861.879
10/20/2013  16:22:00       81.439       71.128       15.448       42.265       25.970       24.781     1786.303      674.446      614.075        0.750        0.154      108.127       16.112        0.022      345.038       22.283      861.878
10/20/2013  16:23:00      102.902       58.540       33.298       54.232       45.267       38.656     2941.062     2049.098     1494.312        1.080        0.324      118.388       30.630        0.067      345.161       22.495      861.870
10/20/2013  16:24:00       55.451       26.207       35.187       36.430       47.070       43.110     1327.117     2215.568     1858.451        0.520        0.270       61.332       28.093        0.210      345.104       22.398      861.865
10/20/2013  16:25:00       47.942       35.121       44.137       47.338       42.971       42.897     2240.839     1846.500     1840.163        0.570        0.296       59.429       26.910        0.205      345.148       22.472      861.858
10/20/2013  16:26:00       63.580       12.209       15.324       58.724       34.146       30.723     3448.457     1165.983      943.882        0.499        0.278       64.741       17.335        0.072      345.150       22.475      861.854
10/20/2013  16:27:00      109.067       35.734        7.962       58.208       47.089       37.243     3388.212     2217.393     1387.077        1.011        0.350      114.772       25.147        0.048      345.112       22.411      861.841
10/20/2013  16:28:00      103.476       98.462        7.098       58.745       53.795       53.338     3451.020     2893.905     2844.936        1.482        0.459      142.835       40.229        0.079      345.158       22.489      861.841
10/20/2013  16:29:00      140.172       66.224       20.527       73.592       49.207       38.961     5415.765     2421.282     1517.935        1.690        0.468      155.028       14.289        0.008      345.141       22.459      861.835
10/20/2013  16:30:00       86.668       84.279       78.818       83.733       71.514       72.725     7011.159     5114.230     5288.899        1.912        0.871      120.889       46.435        0.148      345.028       22.265      861.825
10/20/2013  16:31:00      215.500      133.328       18.634       71.456       59.539       64.034     5105.961     3544.836     4100.346        3.866        0.638      253.410       47.672        0.035      345.016       22.242      861.824
10/20/2013  16:32:00      106.523       55.842        6.819       59.749       56.672       28.373     3569.920     3211.740      805.014        1.105        0.379      120.273       30.257        0.063      344.972       22.169      861.828
10/20/2013  16:33:00       43.350       46.143       18.111       31.464       35.875       28.023      990.011     1287.043      785.315        0.370        0.153       63.312       14.683        0.054      345.051       22.306      861.817
10/20/2013  16:34:00      -23.200       57.174       -9.618       23.140       33.430       15.224      535.460     1117.566      231.776        0.289        0.094       61.702       10.526        0.029      345.243       22.634      861.808
10/20/2013  16:35:00       11.948       75.917      -10.511       38.057       43.328       22.191     1448.366     1877.322      492.462        0.492        0.191       76.852       10.546        0.019      345.052       22.307      861.802
10/20/2013  16:36:00       28.645      138.645      -25.696       28.774       41.453       23.084      827.958     1718.388      532.879        1.189        0.154      141.573       19.645        0.019      344.978       22.183      861.807
10/20/2013  16:37:00       57.195       96.923       -9.663       44.210       69.729       28.712     1954.547     4862.101      824.388        1.020        0.382      112.540       35.128        0.097      344.982       22.187      861.799
10/20/2013  16:38:00      -37.764      158.464      -20.966       42.033       39.032       26.791     1766.808     1523.511      717.733        1.549        0.200      162.901       18.922        0.013      344.991       22.203      861.796
10/20/2013  16:39:00       -3.027       62.473       -8.711       34.693       37.938       22.133     1203.630     1439.324      489.889        0.356        0.157       62.546       21.729        0.121      345.052       22.309      861.781
10/20/2013  16:40:00       26.414       41.162       47.661       34.964       39.619       36.640     1222.511     1569.647     1342.526        0.440        0.207       48.908       30.775        0.396      345.115       22.417      861.780
10/20/2013  16:41:00       53.118       65.918       46.191       45.808       36.327       31.460     2098.368     1319.645      989.736        0.685        0.220       84.656       25.578        0.091      345.008       22.232      861.781
10/20/2013  16:42:00        7.159       50.525       -8.683       27.890       22.421       27.389      777.861      502.682      750.130        0.235        0.102       51.030       15.793        0.096      345.132       22.445      861.786
10/20/2013  16:43:00       47.406       20.165       14.664       31.746       33.963       20.575     1007.805     1153.479      423.310        0.273        0.129       51.517       16.686        0.105      345.117       22.419      861.785
10/20/2013  16:44:00        5.357      112.124       -2.423       58.359       71.091       33.801     3405.795     5053.917     1142.478        1.110        0.480      112.252       15.757        0.020      345.108       22.403      861.786
10/20/2013  16:45:00       17.840      144.193      -21.277       56.063       85.765       28.486     3143.007     7355.625      811.460        1.643        0.566      145.293       31.273        0.046      345.077       22.349      861.786
10/20/2013  16:46:00       10.664      190.347      -29.486       34.127       32.785       21.023     1164.639     1074.884      441.972        1.995        0.134      190.646       18.184        0.009      345.018       22.248      861.774
10/20/2013  16:47:00        6.709      150.613      -24.729       34.495       35.301       23.131     1189.921     1246.186      535.044        1.316        0.149      150.763       16.322        0.012      345.015       22.243      861.772
10/20/2013  16:48:00       25.528       97.732      -15.292       39.044       55.591       24.578     1524.422     3090.396      604.066        0.783        0.261      101.011       22.385        0.049      345.076       22.348      861.764
10/20/2013  16:49:00      -15.311       96.096       -9.955       31.039       29.250       22.700      963.429      855.572      515.300        0.595        0.117       97.308       13.293        0.019      345.036       22.279      861.759
10/20/2013  16:50:00       18.941       30.943        2.093       41.386       22.108       13.343     1712.817      488.783      178.035        0.185        0.119       36.279       11.982        0.109      345.131       22.443      861.757
10/20/2013  16:51:00       86.119       50.581       10.971       67.948       34.719       27.526     4616.874     1205.434      757.654        0.834        0.329       99.875       21.643        0.047      345.110       22.405      861.752
10/20/2013  16:52:00       37.365      114.893       -9.252       54.318       68.914       46.270     2950.488     4749.095     2140.885        1.226        0.492      120.817       41.060        0.115      345.030       22.269      861.749
10/20/2013  16:53:00       76.010      120.909       -1.003       69.421       64.629       49.914     4819.342     4176.961     2491.397        1.594        0.574      142.817       38.012        0.071      345.011       22.238      861.751
10/20/2013  16:54:00      120.434       93.390        4.846       67.474       43.639       43.182     4552.788     1904.320     1864.669        1.578        0.416      152.401       33.275        0.048      345.013       22.241      861.752
10/20/2013  16:55:00      119.341       65.372        9.663       28.859       29.965       28.243      832.818      897.893      797.640        1.057        0.126      136.072        8.353        0.004      344.990       22.201      861.739
10/20/2013  16:56:00       94.842       66.441       35.853       61.094       48.887       35.398     3732.442     2389.911     1252.998        1.103        0.369      115.799       21.640        0.035      345.039       22.285      861.739
10/20/2013  16:57:00      145.709       91.514       24.992       65.898       44.105       42.291     4342.530     1945.235     1788.525        1.915        0.404      172.064       20.972        0.015      345.023       22.255      861.734
10/20/2013  16:58:00      178.210       84.779       28.402       52.317       35.981       34.146     2737.109     1294.612     1165.956        2.247        0.260      197.348       21.789        0.012      345.046       22.294      861.727
10/20/2013  16:59:00      112.699       41.604       34.440       68.267       47.185       33.102     4660.412     2226.460     1095.753        1.180        0.399      120.133       25.864        0.046      345.017       22.247      861.721
10/20/2013  17:00:00       48.339       74.544       81.254       60.269       54.350       48.436     3632.324     2953.929     2346.089        1.171        0.447       88.845       45.448        0.262      345.005       22.228      861.706
10/20/2013  17:01:00       66.157       41.464       60.687       48.085       33.977       30.619     2312.137     1154.466      937.515        0.709        0.220       78.077       26.751        0.117      345.000       22.218      861.697
10/20/2013  17:02:00       58.081       59.894       75.633       43.172       43.986       25.002     1863.826     1934.749      625.101        0.855        0.221       83.431       12.912        0.024      345.102       22.392      861.687
10/20/2013  17:03:00       40.659       45.946       57.866       65.005       49.435       40.849     4225.602     2443.776     1668.673        0.772        0.417       61.353       45.853        0.559      345.135       22.450      861.678
10/20/2013  17:04:00       59.168       50.669       25.153       49.458       38.191       31.269     2446.047     1458.532      977.736        0.579        0.244       77.898       26.073        0.112      345.126       22.433      861.673
10/20/2013  17:05:00       81.450       22.325       15.934       29.983       28.222       19.763      899.010      796.482      390.567        0.474        0.104       84.454       11.633        0.019      345.087       22.368      861.676
10/20/2013  17:06:00       43.741       44.121        6.581       46.102       48.790       23.968     2125.394     2380.424      574.458        0.449        0.254       62.128       24.044        0.150      345.082       22.359      861.674
10/20/2013  17:07:00       71.905       55.989        7.250       44.846       30.905       24.219     2011.197      955.090      586.548        0.595        0.178       91.132       18.173        0.040      345.040       22.286      861.681
10/20/2013  17:08:00      102.474       84.775       -5.324       64.026       50.449       46.678     4099.290     2545.086     2178.846        1.327        0.441      132.995       35.415        0.071      345.003       22.222      861.683
10/20/2013  17:09:00       72.394       92.723        4.739       95.725       71.843       47.660     9163.339     5161.402     2271.442        1.523        0.830      117.637       41.771        0.126      344.975       22.174      861.673
10/20/2013  17:10:00      103.402       75.254       17.946       67.317       55.717       39.110     4531.549     3104.358     1529.614        1.292        0.458      127.887       32.724        0.065      344.896       22.041      861.670
10/20/2013  17:11:00      114.480      113.992        6.341       82.559       57.055       48.559     6815.989     3255.285     2357.978        1.928        0.621      161.555       39.199        0.059      344.923       22.084      861.670
10/20/2013  17:12:00      138.864       87.437       21.307       64.063       46.741       44.926     4104.107     2184.703     2018.389        1.784        0.415      164.099       21.347        0.017      344.924       22.085      861.670
10/20/2013  17:13:00      144.505       92.241       26.124       56.822       47.838       51.996     3228.693     2288.479     2703.605        1.915        0.411      171.435       32.595        0.036      344.943       22.121      861.673
10/20/2013  17:14:00       84.370       80.429      -11.088       61.915       65.874       50.265     3833.451     4339.433     2526.538        1.220        0.535      116.563       48.671        0.174      344.951       22.134      861.677
10/20/2013  17:15:00       92.315       47.639       26.590       37.153       22.480       31.624     1380.313      505.365     1000.099        0.719        0.144      103.882       13.535        0.017      344.907       22.059      861.674
10/20/2013  17:16:00      143.208       61.973       20.310       56.730       34.704       37.243     3218.244     1204.360     1387.014        1.528        0.290      156.042       18.725        0.014      344.977       22.178      861.678
10/20/2013  17:17:00       68.164       39.800       10.530       46.020       31.348       24.506     2117.811      982.720      600.549        0.502        0.185       78.933       20.727        0.069      344.940       22.114      861.667
10/20/2013  17:18:00       76.364       49.956       38.802       56.512       35.538       29.425     3193.637     1262.925      865.812        0.758        0.266       91.253       22.477        0.061      344.950       22.133      861.672
10/20/2013  17:19:00       50.069       65.320       -1.474       49.743       43.327       33.346     2474.385     1877.258     1111.956        0.612        0.273       82.302       16.211        0.039      344.986       22.193      861.673
10/20/2013  17:20:00       84.327       59.031        5.824       71.305       34.066       35.462     5084.453     1160.521     1257.525        0.906        0.375      102.935       24.202        0.055      344.939       22.112      861.671
10/20/2013  17:21:00      126.849      102.019       11.071       77.607       61.509       43.700     6022.909     3783.406     1909.692        1.917        0.586      162.784       32.408        0.040      344.851       21.962      861.670
10/20/2013  17:22:00       79.969      122.213      -10.756       85.731       70.811       44.515     7349.796     5014.218     1981.594        1.789        0.717      146.051       42.709        0.086      344.819       21.906      861.667
10/20/2013  17:23:00       27.129      102.617       -0.016       56.533       50.790       43.967     3195.982     2579.579     1933.086        0.949        0.385      106.143       32.076        0.091      344.810       21.893      861.672
10/20/2013  17:24:00       24.980       77.186       -1.941       38.207       59.758       26.480     1459.761     3571.058      701.166        0.616        0.287       81.128       29.098        0.129      344.795       21.869      861.673
10/20/2013  17:25:00       38.994       83.746        4.079       50.350       54.115       37.320     2535.077     2928.449     1392.752        0.770        0.343       92.380       35.137        0.145      344.794       21.865      861.679
10/20/2013  17:26:00       37.160      150.249       -6.543       61.171       86.993       49.957     3741.930     7567.704     2495.688        1.890        0.690      154.776       52.842        0.117      344.790       21.856      861.677
10/20/2013  17:27:00       32.608       82.875       16.250       59.107       50.432       48.056     3493.615     2543.363     2309.396        0.827        0.417       89.059       32.434        0.133      344.762       21.811      861.680
10/20/2013  17:28:00       66.461      115.277        0.975       60.154       65.791       54.338     3618.451     4328.500     2952.625        1.430        0.545      133.063       45.268        0.116      344.810       21.892      861.686
10/20/2013  17:29:00       41.982      179.630      -26.149       44.494      101.682       31.996     1979.683    10339.244     1023.745        2.403        0.667      184.470       43.091        0.055      344.818       21.907      861.692
10/20/2013  17:30:00       62.212       52.748       22.984       63.922       40.667       33.527     4085.979     1653.833     1124.051        0.702        0.343       81.564       16.692        0.042      344.694       21.693      861.694
10/20/2013  17:31:00       53.379       74.068       10.127       62.855       52.554       42.070     3950.778     2761.944     1769.866        0.846        0.424       91.298       35.763        0.153      344.718       21.735      861.686
10/20/2013  17:32:00       34.258       65.086        2.963       48.587       43.256       33.295     2360.735     1871.119     1108.568        0.538        0.267       73.551       21.357        0.084      344.721       21.740      861.678
10/20/2013  17:33:00       52.356       95.341      -17.364       50.197       56.548       41.674     2519.722     3197.729     1736.704        0.979        0.373      108.771       36.927        0.115      344.770       21.823      861.677
10/20/2013  17:34:00       33.514       58.077      -10.184       35.849       32.758       23.987     1285.117     1073.101      575.385        0.377        0.147       67.053       20.889        0.097      344.724       21.746      861.681
10/20/2013  17:35:00       20.520       69.444      -11.932       27.567       33.076       16.037      759.919     1094.053      257.172        0.375        0.106       72.413       14.409        0.040      344.687       21.680      861.680
10/20/2013  17:36:00       29.858       59.672       -1.243       57.161       41.536       29.614     3267.432     1725.263      877.013        0.516        0.293       66.725       20.213        0.092      344.688       21.682      861.679
10/20/2013  17:37:00       26.666      140.267      -20.484       48.490       89.532       45.355     2351.251     8016.028     2057.054        1.661        0.621      142.780       40.816        0.082      344.647       21.611      861.677
10/20/2013  17:38:00        1.969       31.670       25.816       59.324       46.525       41.649     3519.340     2164.561     1734.616        0.454        0.371       31.731       28.692        0.818      344.563       21.472      861.674
10/20/2013  17:39:00       37.205      127.939      -14.187       42.903       67.160       38.094     1840.640     4510.522     1451.178        1.288        0.390      133.239       37.300        0.078      344.609       21.549      861.684
10/20/2013  17:40:00       40.375       58.363       -6.253       32.439       55.646       25.897     1052.295     3096.523      670.654        0.495        0.241       70.967       26.305        0.137      344.578       21.497      861.693
10/20/2013  17:41:00       30.469      160.316      -16.191       44.909       73.365       32.046     2016.794     5382.365     1026.928        1.766        0.421      163.185       33.662        0.043      344.580       21.499      861.694
10/20/2013  17:42:00       16.194      164.982      -21.155       48.892       61.371       31.185     2390.451     3766.346      972.495        1.753        0.356      165.774       35.018        0.045      344.538       21.427      861.689
10/20/2013  17:43:00        3.991      215.478      -20.219       65.392       82.066       37.448     4276.152     6734.893     1402.316        2.963        0.621      215.515       43.226        0.040      344.549       21.443      861.689
10/20/2013  17:44:00        7.429      112.814        0.018       42.682      109.637       40.725     1821.730    12020.350     1658.514        1.414        0.775      113.058       45.165        0.160      344.428       21.238      861.694
10/20/2013  17:45:00       14.776      179.280      -23.152       40.136       75.389       31.647     1610.935     5683.468     1001.513        2.059        0.415      179.888       36.368        0.041      344.504       21.367      861.702
10/20/2013  17:46:00       27.530      177.839       -8.097       58.307       65.133       40.861     3399.648     4242.274     1669.614        2.088        0.466      179.957       37.233        0.043      344.467       21.305      861.703
10/20/2013  17:47:00       10.935      151.940      -16.911       49.030       41.587       31.016     2403.973     1729.438      961.995        1.429        0.255      152.333       24.076        0.025      344.429       21.242      861.701
10/20/2013  17:48:00       16.313      138.839      -13.861       38.266       42.848       25.079     1464.273     1835.946      628.964        1.183        0.196      139.794       23.608        0.029      344.355       21.115      861.714
10/20/2013  17:49:00       14.673       88.352       -0.791       33.561       49.249       31.149     1126.310     2425.488      970.282        0.627        0.226       89.562       29.505        0.109      344.315       21.046      861.722
10/20/2013  17:50:00       27.404       81.090       -0.598       45.258       74.597       38.312     2048.301     5564.685     1467.792        0.820        0.454       85.596       35.747        0.174      344.289       21.001      861.723
10/20/2013  17:51:00       12.814      117.779       -4.430       53.353       84.834       43.134     2846.539     7196.800     1860.557        1.298        0.595      118.474       41.403        0.122      344.302       21.024      861.719
10/20/2013  17:52:00       17.675      214.091      -18.743       43.489       71.725       42.254     1891.293     5144.481     1785.364        2.766        0.441      214.819       44.211        0.042      344.309       21.034      861.732
10/20/2013  17:53:00       45.022       98.604        2.243       58.880       72.473       47.568     3466.864     5252.357     2262.695        1.137        0.549      108.396       46.980        0.188      344.181       20.816      861.732
10/20/2013  17:54:00        8.000       97.977       -4.874       48.234       68.493       47.005     2326.519     4691.276     2209.514        0.946        0.461       98.303       41.592        0.179      344.133       20.734      861.732
10/20/2013  17:55:00       31.621      166.223      -16.987       46.765       63.879       34.361     2187.002     4080.570     1180.654        1.818        0.372      169.204       36.671        0.047      344.120       20.711      861.741
10/20/2013  17:56:00       14.383       96.874       -0.625       26.810       66.894       36.514      718.765     4474.807     1333.250        0.806        0.326       97.935       39.554        0.163      344.033       20.564      861.758
10/20/2013  17:57:00       18.165      102.508      -10.938       42.652       61.531       33.375     1819.184     3786.118     1113.859        0.884        0.336      104.105       28.023        0.072      344.039       20.576      861.760
10/20/2013  17:58:00       20.647      124.291      -22.553       34.225       56.422       23.164     1171.345     3183.496      536.586        1.064        0.245      125.995       26.626        0.045      344.056       20.604      861.762
10/20/2013  17:59:00       21.984       93.653       -5.412       27.637       47.412       30.217      763.812     2247.862      913.049        0.660        0.196       96.199       33.546        0.122      343.998       20.505      861.775
10/20/2013  18:00:00        2.745       85.181      -15.054       20.258       21.962       12.215      410.399      482.343      149.202        0.427        0.052       85.225       11.834        0.019      344.059       20.610      861.782
10/20/2013  18:01:00       -0.852      119.668      -17.657       32.449       30.166       18.747     1052.943      909.995      351.462        0.847        0.116      119.671       15.726        0.017      344.065       20.619      861.780
10/20/2013  18:02:00      -13.045      114.124      -17.343       28.575       33.473       15.536      816.544     1120.447      241.361        0.784        0.109      114.867       17.298        0.023      344.062       20.616      861.788
10/20/2013  18:03:00      -12.998       93.822      -11.767       31.831       31.439       16.407     1013.216      988.412      269.202        0.569        0.114       94.718       14.543        0.024      343.969       20.456      861.795
10/20/2013  18:04:00      -22.445      130.241      -17.859       24.167       29.350       16.988      584.038      861.439      288.585        0.976        0.087      132.161       17.036        0.017      344.017       20.538      861.794
10/20/2013  18:05:00      -16.498       79.860       -8.736       27.922       34.467       15.102      779.638     1187.996      228.082        0.446        0.110       81.547       15.749        0.037      343.981       20.477      861.800
10/20/2013  18:06:00      -25.440       98.612       -9.057       32.780       39.653       29.693     1074.518     1572.356      881.689        0.699        0.176      101.841       23.795        0.055      343.952       20.428      861.802
10/20/2013  18:07:00      -52.756      103.186      -19.052       33.972       35.640       19.273     1154.081     1270.192      371.440        0.829        0.140      115.890       15.686        0.018      343.971       20.459      861.808
10/20/2013  18:08:00      -68.026      144.649      -27.188       45.641       64.449       24.973     2083.094     4153.632      623.648        1.657        0.343      159.846       15.805        0.010      343.949       20.420      861.813
10/20/2013  18:09:00      -56.836      150.937      -19.183       43.525       58.597       32.426     1894.401     3433.566     1051.452        1.638        0.319      161.283       28.303        0.031      343.912       20.357      861.816
10/20/2013  18:10:00      -62.476       88.990       -5.214       43.816       59.932       30.376     1919.803     3591.876      922.709        0.914        0.322      108.731       32.357        0.089      343.927       20.384      861.834
10/20/2013  18:11:00      -91.769      120.480      -25.380       50.299       53.182       30.746     2529.993     2828.327      945.291        1.494        0.315      151.449       30.718        0.041      343.973       20.463      861.844
10/20/2013  18:12:00      -97.883       93.807      -29.022       35.929       40.911       20.571     1290.861     1673.696      423.157        1.130        0.169      135.576       20.431        0.023      344.000       20.509      861.860
10/20/2013  18:13:00      -92.519       54.534      -10.813       33.899       34.700       18.397     1149.163     1204.090      338.432        0.717        0.135      107.395       15.581        0.021      343.908       20.350      861.864
10/20/2013  18:14:00      -88.055      100.444      -16.688       49.997       74.033       30.937     2499.731     5480.859      957.081        1.353        0.447      133.577       38.595        0.083      343.849       20.249      861.873
10/20/2013  18:15:00     -115.739      121.355      -26.728       41.989       70.831       30.735     1763.105     5017.030      944.614        1.828        0.386      167.698       32.686        0.038      343.810       20.182      861.881
10/20/2013  18:16:00     -128.331        9.824      -17.514       38.863       31.046       23.897     1510.308      963.873      571.073        0.996        0.152      128.707       20.746        0.026      343.685       19.971      861.879
10/20/2013  18:17:00     -152.814      -55.052      -13.825       37.203       42.483       21.677     1384.076     1804.823      469.872        1.512        0.183      162.428       16.899        0.011      343.531       19.708      861.889
10/20/2013  18:18:00     -123.087       -8.660      -26.932       40.666       27.243       18.387     1653.754      742.187      338.086        0.934        0.137      123.392       13.976        0.013      343.450       19.570      861.882
10/20/2013  18:19:00     -130.152       -4.923      -19.786       31.879       46.990       19.473     1016.242     2208.045      379.207        1.048        0.180      130.245       13.530        0.011      343.337       19.378      861.880
10/20/2013  18:20:00     -170.102      -53.951      -16.191       39.520       41.159       21.947     1561.859     1694.032      481.662        1.792        0.187      178.453       16.659        0.009      343.168       19.088      861.882
10/20/2013  18:21:00     -126.941      -33.595       -4.255       46.847       53.960       26.219     2194.617     2911.632      687.420        1.153        0.290      131.311       23.762        0.033      343.104       18.982      861.892
10/20/2013  18:22:00     -160.106      -31.442      -19.640       33.965       47.316       19.816     1153.645     2238.822      392.682        1.540        0.189      163.164       10.370        0.004      343.053       18.893      861.896
10/20/2013  18:23:00     -126.353      -21.555      -11.831       46.695       60.307       31.803     2180.423     3636.904     1011.449        1.170        0.341      128.178       24.839        0.038      343.001       18.805      861.902
10/20/2013  18:24:00     -133.437       36.448      -22.037       46.992       79.280       32.405     2208.285     6285.300     1050.109        1.458        0.477      138.325       35.808        0.067      343.050       18.889      861.909
10/20/2013  18:25:00     -172.460       37.458      -26.996       47.057       43.221       32.132     2214.361     1868.087     1032.480        1.849        0.256      176.481       29.565        0.028      343.064       18.910      861.929
10/20/2013  18:26:00      -93.405      -19.844       -0.973       40.865       49.986       29.616     1669.942     2498.555      877.111        0.708        0.252       95.489       21.078        0.049      343.013       18.825      861.929
10/20/2013  18:27:00      -84.984       -5.802       -4.485       48.910       40.388       22.906     2392.192     1631.174      524.689        0.591        0.227       85.181       15.047        0.031      342.946       18.713      861.943
10/20/2013  18:28:00     -129.333       11.724      -10.976       58.401       90.976       44.774     3410.624     8276.544     2004.736        1.534        0.685      129.863       51.600        0.158      343.012       18.823      861.956
10/20/2013  18:29:00      -86.885       31.875       -6.799       38.331       32.551       22.206     1469.271     1059.582      493.095        0.582        0.151       92.548       20.309        0.048      343.029       18.853      861.964
10/20/2013  18:30:00     -115.906       26.379      -21.616       65.960       63.888       41.403     4350.666     4081.698     1714.216        1.237        0.507      118.870       25.529        0.046      343.024       18.845      861.975
10/20/2013  18:31:00      -93.505       28.126       -5.008       44.042       45.516       24.087     1939.723     2071.673      580.164        0.707        0.230       97.643       24.769        0.064      342.963       18.741      861.984
10/20/2013  18:32:00      -55.650       15.323       -1.476       51.558       27.420       23.747     2658.247      751.875      563.907        0.365        0.199       57.721       13.896        0.058      342.907       18.644      861.998
10/20/2013  18:33:00      -62.865       37.587       -2.348       47.205       30.538       27.901     2228.354      932.579      778.468        0.465        0.197       73.245       26.015        0.126      342.933       18.691      862.020
10/20/2013  18:34:00     -132.882      114.335      -21.077       75.249       78.586       43.085     5662.382     6175.796     1856.345        2.243        0.685      175.301       44.163        0.063      343.067       18.914      862.038
10/20/2013  18:35:00      -67.425      110.977       -6.411       71.865       53.823       39.178     5164.511     2896.962     1534.905        1.325        0.480      129.853       38.658        0.089      343.001       18.806      862.057
10/20/2013  18:36:00      -18.957       48.669        4.922       30.661       57.821       28.225      940.107     3343.305      796.649        0.392        0.254       52.230       26.855        0.264      342.952       18.722      862.074
10/20/2013  18:37:00        1.632      103.155       -4.987       34.959       54.570       36.006     1222.122     2977.877     1296.441        0.808        0.275      103.168       33.421        0.105      342.953       18.724      862.094
10/20/2013  18:38:00        5.854       29.666        0.748       26.679       36.382       16.192      711.785     1323.667      262.168        0.161        0.115       30.238       14.255        0.222      342.828       18.511      862.100
10/20/2013  18:39:00        3.925        6.958       23.298       18.791       17.448       13.129      353.095      304.450      172.374        0.072        0.041        7.988       11.956        2.240      342.665       18.233      862.108
10/20/2013  18:40:00       10.918        6.686       14.796       44.176       36.813       27.462     1951.502     1355.204      754.171        0.222        0.203       12.802       22.013        2.956      342.828       18.509      862.118
10/20/2013  18:41:00      -10.069      -60.707        6.278       24.210       58.717       25.294      586.125     3447.707      639.786        0.425        0.234       61.536       13.357        0.047      342.839       18.530      862.129
10/20/2013  18:42:00       40.726      -89.698       -2.892       23.063       25.249       18.235      531.880      637.510      332.524        0.561        0.075       98.511        7.065        0.005      343.011       18.821      862.146
10/20/2013  18:43:00       17.525        9.294        8.593       19.934       23.287       14.657      397.368      542.281      214.828        0.081        0.058       19.837       10.534        0.282      342.790       18.447      862.160
10/20/2013  18:44:00       63.289       22.605        6.969       27.144       19.548       21.681      736.804      382.137      470.082        0.308        0.079       67.204       14.210        0.045      342.795       18.454      862.172
10/20/2013  18:45:00       70.602      -98.759       -8.947       26.963       30.689       15.447      727.003      941.821      238.603        0.836        0.095      121.400       16.591        0.019      342.986       18.781      862.172
10/20/2013  18:46:00       26.527      -77.477      -14.131       40.151       30.366       24.964     1612.073      922.116      623.214        0.503        0.158       81.892       23.875        0.085      342.722       18.331      862.181
10/20/2013  18:47:00       35.834     -112.205      -20.422       21.862       23.736       14.223      477.952      563.398      202.289        0.777        0.062      117.788       10.485        0.008      342.786       18.439      862.197
10/20/2013  18:48:00       15.140      -51.709        6.876       26.908       49.171       32.057      724.041     2417.820     1027.622        0.356        0.208       53.880       31.249        0.336      342.639       18.190      862.204
10/20/2013  18:49:00      -10.966      -26.593       16.111       16.760       25.935       16.751      280.897      672.645      280.612        0.116        0.062       28.765       16.490        0.329      342.671       18.243      862.215
10/20/2013  18:50:00       -4.251        6.965       19.423        8.649       13.611        7.431       74.797      185.260       55.217        0.038        0.016        8.160        6.182        0.574      342.462       17.888      862.231
10/20/2013  18:51:00       22.689        5.990       11.619       26.421       16.642       13.221      698.068      276.964      174.791        0.092        0.057       23.466       15.891        0.459      342.598       18.119      862.239
10/20/2013  18:52:00        0.813       37.442       43.288       17.553       24.558       17.592      308.117      603.082      309.483        0.225        0.061       37.450       14.844        0.157      342.417       17.811      862.240
10/20/2013  18:53:00       -4.657       18.257       48.739       18.514       34.194       18.818      342.757     1169.211      354.128        0.230        0.093       18.842       20.950        1.236      342.399       17.781      862.238
10/20/2013  18:54:00       -4.221      -18.408       30.334       22.462       30.216       17.858      504.549      912.987      318.907        0.151        0.087       18.886       18.627        0.973      342.508       17.966      862.236
10/20/2013  18:55:00        5.052      -10.352       27.724       25.744       37.650       23.154      662.758     1417.490      536.093        0.176        0.131       11.519       20.917        3.298      342.525       17.997      862.242
10/20/2013  18:56:00       -0.030       19.574       51.605       16.706       25.936       19.168      279.084      672.686      367.417        0.218        0.066       19.574       12.497        0.408      342.470       17.902      862.253
10/20/2013  18:57:00       19.179       13.770       50.869       27.323       33.490       23.084      746.525     1121.572      532.858        0.277        0.120       23.610       20.022        0.719      342.545       18.030      862.269
10/20/2013  18:58:00       36.489       23.352       40.497       36.125       38.101       28.034     1305.032     1451.683      785.932        0.353        0.177       43.322       21.358        0.243      342.588       18.102      862.294
10/20/2013  18:59:00       65.477      -63.797       -1.226       48.504       48.736       42.476     2352.678     2375.232     1804.194        0.744        0.327       91.418       33.873        0.137      342.899       18.632      862.303
10/20/2013  19:00:00       55.001      -31.095       13.937       43.623       96.251       39.195     1902.987     9264.163     1536.211        0.844        0.635       63.182       52.304        0.685      343.068       18.921      862.323
10/20/2013  19:01:00        4.804       78.697       -3.286       43.340       97.827       33.974     1878.361     9570.098     1154.221        0.941        0.630       78.844       35.731        0.205      342.923       18.672      862.344
10/20/2013  19:02:00      132.795      118.163       16.472       89.765       91.102       47.637     8057.766     8299.537     2269.290        2.524        0.931      177.755       44.009        0.061      342.997       18.797      862.348
10/20/2013  19:03:00       27.039       13.020       -2.408       50.908       38.715       32.143     2591.658     1498.848     1033.173        0.301        0.256       30.011       24.509        0.667      342.909       18.648      862.356
10/20/2013  19:04:00      -31.387      138.378      -31.731       80.637       71.339       37.702     6502.263     5089.210     1421.466        1.707        0.651      141.893       37.160        0.069      342.965       18.741      862.369
10/20/2013  19:05:00      -37.190       90.773       -7.970       64.804       41.694       34.857     4199.510     1738.378     1214.995        0.842        0.358       98.096       38.114        0.151      342.919       18.666      862.376
10/20/2013  19:06:00      -20.963      181.047      -31.911       47.712       61.769       24.261     2276.392     3815.427      588.581        2.046        0.334      182.256       21.478        0.014      342.994       18.791      862.401
10/20/2013  19:07:00      -82.199       87.299      -22.572       70.171       64.314       24.673     4923.908     4136.300      608.776        1.228        0.483      119.907       34.838        0.084      342.864       18.569      862.394
10/20/2013  19:08:00      -29.532      224.777      -33.407       83.668       92.579       42.127     7000.309     8570.793     1774.712        3.493        0.867      226.709       41.559        0.034      343.033       18.855      862.419
10/20/2013  19:09:00      -18.174      147.638      -28.844       65.895       83.248       32.753     4342.172     6930.261     1072.741        1.765        0.617      148.752       43.558        0.086      343.031       18.856      862.426
10/20/2013  19:10:00      -27.433       45.887       -9.127       59.919       39.516       21.460     3590.323     1561.531      460.520        0.428        0.281       53.462       18.389        0.118      342.919       18.666      862.422
10/20/2013  19:11:00      -72.810       49.917      -12.929       29.697       49.982       23.986      881.940     2498.246      575.338        0.596        0.198       88.278       24.667        0.078      342.950       18.718      862.422
10/20/2013  19:12:00     -114.271      134.898      -35.682       32.567       35.060       22.454     1060.605     1229.215      504.189        1.766        0.140      176.792       17.518        0.010      342.825       18.505      862.439
10/20/2013  19:13:00      -89.335       95.029      -21.419       39.906       48.345       21.167     1592.503     2337.275      448.051        1.092        0.219      130.427       17.695        0.018      342.843       18.536      862.447
10/20/2013  19:14:00      -49.019      126.215      -23.698       36.903       36.084       18.293     1361.795     1302.033      334.619        1.095        0.150      135.400        8.179        0.004      342.757       18.390      862.462
10/20/2013  19:15:00      -58.757       72.350      -16.410       42.346       35.063       20.543     1793.189     1229.412      422.006        0.620        0.172       93.204       16.205        0.030      342.730       18.343      862.461
10/20/2013  19:16:00      -11.006      162.372      -25.105       27.756       65.935       23.686      770.414     4347.443      561.018        1.640        0.284      162.744       28.300        0.030      342.860       18.564      862.458
10/20/2013  19:17:00      -20.229      168.128      -25.437       22.062       22.004       14.331      486.712      484.175      205.371        1.525        0.059      169.340        7.453        0.002      342.892       18.620      862.465
10/20/2013  19:18:00       16.301       81.393       -9.714       37.938       33.561       26.042     1439.254     1126.341      678.179        0.511        0.162       83.010       19.572        0.056      342.683       18.265      862.464
10/20/2013  19:19:00       21.202       81.077      -10.038       26.964       33.113       22.721      727.082     1096.473      516.257        0.473        0.117       83.803       21.358        0.065      342.583       18.093      862.469
10/20/2013  19:20:00        4.968      161.037      -27.334       30.266       46.240       18.613      916.054     2138.118      346.438        1.505        0.170      161.114       15.722        0.010      342.788       18.442      862.470
10/20/2013  19:21:00        9.947      180.606      -32.221       23.596       34.515       20.187      556.775     1191.273      407.499        1.796        0.108      180.880       15.653        0.007      342.751       18.379      862.474
10/20/2013  19:22:00        4.967      191.944      -32.679       30.641       45.015       20.174      938.856     2026.312      407.007        2.065        0.169      192.009       18.719        0.010      342.721       18.328      862.485
10/20/2013  19:23:00      -86.263       88.741      -22.132       28.699       48.238       17.350      823.639     2326.951      301.031        0.963        0.173      123.758       17.101        0.019      342.584       18.096      862.480
10/20/2013  19:24:00     -105.898       97.729      -29.160       32.316       34.876       21.725     1044.348     1216.369      471.961        1.217        0.137      144.102       19.011        0.017      342.599       18.122      862.496
10/20/2013  19:25:00      -87.527       51.482      -10.143       25.794       28.537       22.636      665.313      814.370      512.399        0.620        0.100      101.545       17.481        0.030      342.549       18.036      862.497
10/20/2013  19:26:00      -96.380       86.181      -19.429       43.629       46.743       37.481     1903.486     2184.863     1404.800        1.129        0.275      129.292       34.471        0.071      342.555       18.046      862.506
10/20/2013  19:27:00     -134.818       84.426      -27.175       40.179       45.690       30.269     1614.366     2087.550      916.198        1.533        0.231      159.071       24.587        0.024      342.473       17.907      862.506
10/20/2013  19:28:00     -135.374       15.107      -20.469       40.906       56.412       25.101     1673.332     3182.333      630.075        1.223        0.274      136.214       22.852        0.028      342.389       17.766      862.506
10/20/2013  19:29:00     -127.913       57.443      -26.514       46.171       52.276       22.894     2131.791     2732.772      524.140        1.288        0.269      140.219       20.395        0.021      342.292       17.599      862.499
10/20/2013  19:30:00     -128.081       44.665      -26.834       48.690       56.162       23.516     2370.692     3154.119      553.020        1.260        0.304      135.645       24.649        0.033      342.451       17.871      862.489
10/20/2013  19:31:00     -154.021       11.899      -17.171       32.875       32.160       20.163     1080.737     1034.295      406.549        1.334        0.126      154.480       12.866        0.007      342.326       17.657      862.502
10/20/2013  19:32:00     -118.179       20.402      -21.763       30.877       31.675       16.604      953.359     1003.328      275.685        0.854        0.112      119.927       11.407        0.009      342.297       17.609      862.500
10/20/2013  19:33:00     -104.545       -0.870      -15.316       30.415       28.367       16.293      925.047      804.668      265.449        0.658        0.100      104.548       12.167        0.014      342.283       17.584      862.512
10/20/2013  19:34:00      -82.877       19.838       -8.154       19.003       24.495       14.895      361.111      600.023      221.865        0.426        0.059       85.219        6.607        0.006      342.259       17.545      862.514
10/20/2013  19:35:00     -105.265      -17.915       -9.545       21.951       32.384       15.759      481.828     1048.727      248.356        0.664        0.089      106.779        8.620        0.007      342.142       17.344      862.530
10/20/2013  19:36:00     -109.862       -1.776      -10.324       36.095       29.211       20.487     1302.850      853.283      419.734        0.738        0.129      109.876       15.595        0.020      342.198       17.439      862.529
10/20/2013  19:37:00     -109.764       18.194      -10.311       16.659       24.360       13.162      277.537      593.430      173.251        0.676        0.052      111.262        7.968        0.005      342.177       17.403      862.547
10/20/2013  19:38:00     -103.558       -8.774       -5.051       30.435       17.101       14.105      926.304      292.449      198.951        0.612        0.071      103.929       15.779        0.023      341.926       16.978      862.553
10/20/2013  19:39:00     -111.697      -29.141       -6.900       21.540       16.151       11.943      463.966      260.844      142.628        0.712        0.043      115.436        6.930        0.004      341.723       16.633      862.558
10/20/2013  19:40:00     -110.713      -20.186       -2.028       21.599       17.930       13.912      466.529      321.483      193.549        0.683        0.049      112.538       11.904        0.011      341.753       16.685      862.559
10/20/2013  19:41:00      -95.224      -20.201       -6.906       36.380       20.587       16.023     1323.476      423.831      256.736        0.576        0.100       97.343       16.785        0.030      341.703       16.599      862.558
10/20/2013  19:42:00     -120.799      -44.613       -0.995       38.605       18.422       17.939     1490.352      339.365      321.823        0.937        0.108      128.774       22.943        0.032      341.756       16.689      862.559
10/20/2013  19:43:00     -122.826      -41.189       -4.269       30.933       29.301       18.245      956.879      858.557      332.868        0.947        0.107      129.549       13.406        0.011      341.774       16.720      862.559
10/20/2013  19:44:00     -163.029      -57.644       -2.698       44.068       38.002       22.963     1942.029     1444.169      527.297        1.691        0.196      172.920       24.335        0.020      341.822       16.801      862.566
10/20/2013  19:45:00     -155.146      -56.858       -5.170       50.986       37.502       25.500     2599.532     1406.407      650.275        1.599        0.233      165.237       24.913        0.023      341.840       16.831      862.567
10/20/2013  19:46:00     -142.833      -44.852       -3.840       57.586       37.810       28.628     3316.170     1429.621      819.548        1.400        0.278      149.709       31.184        0.043      341.802       16.767      862.582
10/20/2013  19:47:00     -161.510      -49.309      -12.550       28.040       35.050       23.246      786.220     1228.506      540.370        1.561        0.128      168.869       13.476        0.006      341.822       16.802      862.586
10/20/2013  19:48:00     -141.279      -45.494      -14.324       50.107       36.568       23.217     2510.705     1337.250      539.024        1.331        0.219      148.424       22.912        0.024      341.802       16.768      862.598
10/20/2013  19:49:00     -132.125      -50.454       -5.897       52.982       39.843       26.150     2807.144     1587.497      683.836        1.256        0.254      141.430       26.098        0.034      341.727       16.641      862.606
10/20/2013  19:50:00     -156.011      -36.940       -9.475       31.412       31.072       19.994      986.700      965.480      399.768        1.407        0.118      160.324       13.334        0.007      341.736       16.656      862.599
10/20/2013  19:51:00     -141.773      -75.292       -7.409       39.520       38.449       28.109     1561.801     1478.292      790.130        1.483        0.192      160.526       24.004        0.022      341.659       16.525      862.599
10/20/2013  19:52:00     -162.958      -40.907      -11.107       57.207       37.196       31.812     3272.621     1383.529     1012.002        1.701        0.283      168.014       30.315        0.033      341.616       16.451      862.595
10/20/2013  19:53:00     -164.075      -73.650       -8.221       44.852       39.245       27.294     2011.675     1540.164      744.937        1.835        0.215      179.847       17.863        0.010      341.725       16.635      862.600
10/20/2013  19:54:00     -141.442      -99.715       -5.782       54.138       42.027       37.004     2930.888     1766.256     1369.288        1.802        0.303      173.058       37.635        0.047      341.649       16.507      862.593
10/20/2013  19:55:00     -132.531      -68.054      -10.766       54.767       38.916       24.698     2999.373     1514.438      609.997        1.372        0.256      148.982       24.838        0.028      341.691       16.579      862.605
10/20/2013  19:56:00     -125.621      -86.029        2.315       65.680       52.452       33.392     4313.908     2751.249     1115.013        1.568        0.409      152.256       32.029        0.044      341.619       16.455      862.612
10/20/2013  19:57:00      -48.363      -23.588       19.867       49.704       45.468       38.991     2470.442     2067.320     1520.262        0.467        0.303       53.809       36.249        0.454      341.539       16.322      862.631
10/20/2013  19:58:00      -58.452      -40.528        5.449       53.358       35.534       24.556     2847.064     1262.655      603.014        0.490        0.236       71.128       29.021        0.166      341.608       16.437      862.650
10/20/2013  19:59:00      -39.916      -52.920        3.791       42.144       30.525       21.625     1776.136      931.796      467.632        0.379        0.159       66.286       15.018        0.051      341.637       16.489      862.678
10/20/2013  20:00:00      -17.038      -47.634        9.238       36.082       35.878       21.246     1301.945     1287.232      451.385        0.284        0.152       50.590       16.128        0.102      341.648       16.507      862.695
10/20/2013  20:01:00      -27.027      -59.736       -1.106       38.142       25.730       22.657     1454.777      662.008      513.342        0.346        0.132       65.566       21.219        0.105      341.669       16.545      862.713
10/20/2013  20:02:00      -33.705      -70.177       -4.672       26.451       35.592       21.106      699.657     1266.826      445.469        0.425        0.121       77.852       17.165        0.049      341.654       16.515      862.725
10/20/2013  20:03:00      -50.587      -88.863       -0.359       29.573       32.534       22.953      874.553     1058.453      526.818        0.646        0.123      102.253       15.553        0.023      341.639       16.493      862.743
10/20/2013  20:04:00      -81.346     -127.213      -12.000       31.663       24.629       20.863     1002.531      606.607      435.274        1.249        0.102      150.998       20.083        0.018      341.663       16.534      862.743
10/20/2013  20:05:00     -101.204     -118.164       -7.177       39.409       41.857       24.132     1553.096     1752.039      582.369        1.407        0.194      155.579       20.672        0.018      341.738       16.658      862.744
10/20/2013  20:06:00      -59.836      -82.466        0.467       41.595       49.125       18.107     1730.155     2413.272      327.847        0.743        0.224      101.887       17.403        0.029      341.745       16.671      862.746
10/20/2013  20:07:00      -95.309      -58.677       -6.378       22.903       31.068       25.152      524.530      965.211      632.648        0.734        0.106      111.923       17.693        0.025      341.783       16.735      862.748
10/20/2013  20:08:00      -48.360      -38.499       -1.812       35.898       25.355       17.271     1288.649      642.896      298.272        0.303        0.111       61.813       15.278        0.061      341.682       16.566      862.749
10/20/2013  20:09:00      -29.871      -66.052        0.093       25.621       23.975       16.704      656.421      574.805      279.010        0.338        0.076       72.492       12.345        0.029      341.857       16.860      862.749
10/20/2013  20:10:00      -63.733      -55.339       -3.279       49.550       32.386       21.368     2455.185     1048.829      456.580        0.555        0.198       84.405       14.820        0.031      341.808       16.777      862.753
10/20/2013  20:11:00     -150.022      -72.804      -12.340       39.210       38.504       25.412     1537.445     1482.579      645.759        1.581        0.183      166.754        5.767        0.001      341.587       16.403      862.754
10/20/2013  20:12:00     -119.667     -120.594      -12.035       47.153       42.086       27.734     2223.405     1771.236      769.189        1.688        0.238      169.891       23.078        0.018      341.591       16.409      862.764
10/20/2013  20:13:00      -61.934      -65.739        9.137       54.505       44.612       30.475     2970.768     1990.264      928.702        0.706        0.294       90.319       32.023        0.126      341.430       16.138      862.751
10/20/2013  20:14:00     -137.312      -84.418       -0.274       38.116       34.454       22.909     1452.851     1187.068      524.837        1.457        0.158      161.186       23.070        0.020      341.410       16.102      862.760
10/20/2013  20:15:00     -113.380      -62.411        3.611       59.569       38.570       26.089     3548.460     1487.650      680.615        1.124        0.286      129.423       26.759        0.043      341.343       15.990      862.753
10/20/2013  20:16:00      -93.831      -62.433        5.819       48.805       35.944       25.813     2381.960     1292.000      666.288        0.854        0.217      112.704       23.116        0.042      341.339       15.984      862.758
10/20/2013  20:17:00      -90.142      -93.426        2.923       49.126       37.144       27.844     2413.348     1379.699      775.282        1.071        0.228      129.823       24.015        0.034      341.566       16.367      862.767
10/20/2013  20:18:00      -67.782      -40.644        4.397       49.144       39.426       23.452     2415.118     1554.402      549.987        0.539        0.226       79.034       20.177        0.065      341.610       16.441      862.770
10/20/2013  20:19:00      -47.354      -16.123       -5.769       26.560       19.746       14.344      705.455      389.918      205.763        0.192        0.065       50.023       11.493        0.053      341.278       15.881      862.785
10/20/2013  20:20:00      -93.913      -10.222      -16.092       18.350       21.689       15.735      336.723      470.396      247.601        0.512        0.053       94.468        6.021        0.004      341.314       15.941      862.789
10/20/2013  20:21:00      -59.889      -26.911       -1.502       39.293       23.080       19.532     1543.947      532.702      381.483        0.339        0.123       65.657       21.924        0.112      341.173       15.702      862.788
10/20/2013  20:22:00      -59.013      -75.301        6.589       43.890       31.841       27.193     1926.321     1013.866      739.442        0.644        0.184       95.670       29.098        0.093      341.183       15.719      862.786
10/20/2013  20:23:00      -62.904      -78.218        2.061       35.328       52.409       22.768     1248.101     2746.725      518.379        0.730        0.226      100.374       29.717        0.088      341.170       15.698      862.794
10/20/2013  20:24:00      -60.833      -50.044        5.401       41.928       31.439       25.560     1757.967      988.412      653.312        0.482        0.170       78.772       23.789        0.091      341.221       15.782      862.792
10/20/2013  20:25:00     -100.982      -44.809        3.384       45.826       21.887       17.530     2100.026      479.052      307.305        0.755        0.144      110.477       19.810        0.032      341.193       15.735      862.787
10/20/2013  20:26:00      -66.866      -22.607        2.010       60.324       25.029       15.966     3638.999      626.442      254.906        0.475        0.226       70.585       19.886        0.079      341.196       15.740      862.787
10/20/2013  20:27:00     -122.096      -49.763        1.435       34.184       28.433       16.387     1168.515      808.432      268.544        0.982        0.112      131.847       13.353        0.010      341.054       15.502      862.774
10/20/2013  20:28:00     -116.953      -50.388       -9.348       24.261       21.173       12.052      588.594      448.284      145.240        0.874        0.059      127.346        8.715        0.005      340.986       15.386      862.781
10/20/2013  20:29:00     -112.008      -45.968        3.590       37.190       24.461       19.576     1383.104      598.318      383.222        0.852        0.118      121.074       20.167        0.028      341.155       15.672      862.770
10/20/2013  20:30:00      -80.663      -24.470        5.996       34.005       26.462       17.005     1156.349      700.242      289.174        0.464        0.107       84.293       15.999        0.036      341.050       15.494      862.776
10/20/2013  20:31:00     -109.961      -41.824       -2.559       40.006       34.334       18.985     1600.464     1178.840      360.439        0.849        0.157      117.647       21.380        0.033      341.092       15.564      862.787
10/20/2013  20:32:00      -71.417      -30.361        0.375       25.634       21.981       13.396      657.088      483.146      179.451        0.367        0.066       77.603       13.226        0.029      341.031       15.460      862.778
10/20/2013  20:33:00      -82.442      -17.555       -2.889       22.976       21.045       15.217      527.888      442.872      231.545        0.416        0.060       84.291       10.597        0.016      340.944       15.315      862.793
10/20/2013  20:34:00      -96.988       -8.031       -8.308       31.884       21.911       15.760     1016.601      480.083      248.382        0.564        0.087       97.320       18.061        0.034      340.905       15.249      862.791
10/20/2013  20:35:00     -100.840      -19.770      -14.802       17.058       23.052       11.737      290.978      531.386      137.760        0.587        0.048      102.760        7.556        0.005      340.905       15.249      862.801
10/20/2013  20:36:00     -111.827      -21.553       -8.846       23.506       25.726       11.177      552.512      661.818      124.927        0.719        0.067      113.886        7.910        0.005      341.015       15.434      862.801
10/20/2013  20:37:00     -110.906      -44.491       -5.824       16.090       15.504        8.861      258.896      240.372       78.522        0.745        0.029      119.497        7.976        0.004      340.693       14.889      862.810
10/20/2013  20:38:00      -63.398      -27.506       -4.870       13.844       15.998        9.776      191.648      255.925       95.574        0.267        0.027       69.108        4.622        0.004      340.578       14.697      862.826
10/20/2013  20:39:00      -93.371       -4.673       -2.008       34.886       26.596       17.811     1217.026      707.354      317.216        0.549        0.112       93.488       18.248        0.038      340.784       15.045      862.823
10/20/2013  20:40:00     -106.190       -4.818       -5.753       20.040       17.617       13.769      401.599      310.354      189.598        0.612        0.045      106.299       11.211        0.011      341.096       15.570      862.830
10/20/2013  20:41:00     -101.607      -49.376      -10.364       25.631       22.019       16.217      656.945      484.835      262.999        0.714        0.070      112.969        8.564        0.006      340.613       14.755      862.820
10/20/2013  20:42:00     -114.351      -41.029       -5.457       22.904       13.906       10.282      524.590      193.387      105.722        0.781        0.041      121.489        9.305        0.006      340.524       14.605      862.829
10/20/2013  20:43:00      -55.862       -8.536       -5.209       22.894       23.406       12.926      524.140      547.864      167.075        0.223        0.062       56.510        9.197        0.026      340.453       14.484      862.838
10/20/2013  20:44:00      -69.836      -20.946       -6.532       14.247       17.297        8.947      202.981      299.169       80.053        0.297        0.029       72.910        6.138        0.007      340.627       14.779      862.828
10/20/2013  20:45:00      -76.113      -34.231       -7.944       15.253       15.121        7.416      232.648      228.646       55.000        0.377        0.026       83.457        4.829        0.003      340.663       14.838      862.835
10/20/2013  20:46:00      -90.805      -44.405       -7.114       14.305       12.641        8.618      204.621      159.802       74.268        0.535        0.022      101.081        7.204        0.005      340.457       14.490      862.844
10/20/2013  20:47:00      -65.256      -42.782        2.672       20.282       13.316       13.556      411.352      177.306      183.766        0.343        0.039       78.030        9.588        0.015      340.480       14.528      862.863
10/20/2013  20:48:00      -18.045      -30.432        1.923       18.273       14.294        8.946      333.892      204.325       80.031        0.094        0.031       35.380        6.831        0.037      340.754       14.994      862.870
10/20/2013  20:49:00        2.546      -45.430       -0.222       11.001       17.124        9.058      121.027      293.230       82.055        0.128        0.025       45.501        5.754        0.016      340.948       15.322      862.898
10/20/2013  20:50:00       -6.746      -54.056        3.650       19.253       13.508        7.626      370.663      182.454       58.152        0.180        0.031       54.475        7.987        0.021      341.268       15.863      862.902
10/20/2013  20:51:00       -8.597      -64.096       -8.257       15.353       19.493       11.791      235.708      379.994      139.035        0.250        0.038       64.670        6.572        0.010      341.124       15.620      862.923
10/20/2013  20:52:00      -32.595      -61.037       -2.127       22.627       31.159       13.472      511.965      970.909      181.484        0.323        0.083       69.195       10.786        0.024      341.086       15.554      862.925
10/20/2013  20:53:00      -60.879      -59.697       -5.368       29.128       22.642       17.713      848.459      512.677      313.751        0.449        0.084       85.264       17.243        0.041      340.937       15.303      862.947
10/20/2013  20:54:00      -76.149      -76.956       -6.780       21.353       26.314       14.966      455.970      692.446      223.982        0.657        0.069      108.263       12.387        0.013      340.804       15.078      862.954
10/20/2013  20:55:00      -94.986      -84.772       -7.423       23.392       17.874       14.232      547.171      319.462      202.553        0.867        0.053      127.313       10.530        0.007      340.862       15.175      862.962
10/20/2013  20:56:00     -103.763      -75.997       -4.735       42.873       27.445       22.282     1838.125      753.250      496.476        0.983        0.154      128.617       17.710        0.019      340.657       14.829      862.966
10/20/2013  20:57:00     -112.047      -67.498        1.215       55.587       37.723       27.783     3089.910     1423.058      771.893        1.120        0.264      130.808       28.961        0.049      340.676       14.861      862.962
10/20/2013  20:58:00     -125.450      -82.829       -1.041       48.196       30.922       25.704     2322.827      956.152      660.703        1.327        0.197      150.327       26.088        0.030      340.725       14.943      862.970
10/20/2013  20:59:00     -155.824      -76.995       -9.792       25.082       32.359       18.018      629.123     1047.133      324.664        1.615        0.100      173.808       11.483        0.004      340.556       14.658      862.966
10/20/2013  21:00:00     -142.437      -44.050       -8.567       42.286       27.102       26.454     1788.137      734.540      699.841        1.276        0.161      149.093       23.608        0.025      340.480       14.529      862.975
10/20/2013  21:01:00     -147.181      -43.888       -2.745       33.963       26.469       23.676     1153.452      700.619      560.570        1.300        0.121      153.586       22.172        0.021      340.372       14.348      862.974
10/20/2013  21:02:00     -102.952      -25.062       -1.698       37.871       26.147       21.536     1434.187      683.651      463.818        0.691        0.129      105.958       20.690        0.038      340.361       14.328      862.981
10/20/2013  21:03:00     -119.665      -28.965       -9.728       34.199       26.102       16.376     1169.599      681.295      268.185        0.869        0.106      123.121       14.192        0.013      340.477       14.526      862.980
10/20/2013  21:04:00     -127.749      -39.118       -1.055       34.650       23.633       21.354     1200.611      558.538      456.013        1.003        0.111      133.604       20.992        0.025      340.465       14.504      862.979
10/20/2013  21:05:00     -162.779      -30.849      -15.468       14.849       22.648       13.681      220.495      512.951      187.169        1.430        0.046      165.676        8.306        0.003      340.513       14.585      862.983
10/20/2013  21:06:00     -153.946      -37.536      -12.688       25.454       24.488       13.774      647.912      599.659      189.712        1.335        0.072      158.456       10.716        0.005      340.456       14.490      862.984
10/20/2013  21:07:00     -150.567      -43.260       -5.306       32.926       26.020       19.542     1084.123      677.053      381.898        1.336        0.107      156.659       18.958        0.015      340.537       14.625      862.997
10/20/2013  21:08:00     -145.704      -31.976       -6.093       32.364       19.899       22.076     1047.441      395.984      487.335        1.211        0.097      149.171       21.942        0.022      340.429       14.442      863.005
10/20/2013  21:09:00     -120.889      -30.829       -3.287       34.782       26.725       18.196     1209.817      714.227      331.093        0.891        0.113      124.758       16.125        0.017      340.390       14.378      863.018
10/20/2013  21:10:00     -123.904      -20.023       -3.975       38.310       31.485       21.378     1467.641      991.279      457.029        0.934        0.146      125.512       21.825        0.030      340.311       14.246      863.033
10/20/2013  21:11:00      -73.786      -18.110       -3.479       40.279       23.478       17.465     1622.437      551.205      305.021        0.413        0.124       75.976       19.042        0.063      340.305       14.234      863.041
10/20/2013  21:12:00     -139.797       13.128       -9.891       27.084       30.798       21.484      733.551      948.533      461.566        1.098        0.107      140.412       15.703        0.013      340.555       14.657      863.051
10/20/2013  21:13:00     -112.866      -15.348       -6.276       32.445       26.393       19.420     1052.667      696.616      377.140        0.757        0.106      113.905       18.667        0.027      340.441       14.463      863.059
10/20/2013  21:14:00      -94.715      -19.456       -7.348       31.381       26.125       19.178      984.771      682.536      367.812        0.572        0.102       96.692       15.711        0.026      340.265       14.165      863.073
10/20/2013  21:15:00      -71.507      -29.673       -1.504       28.216       24.408       19.695      796.152      595.747      387.875        0.389        0.089       77.420       15.092        0.038      340.184       14.030      863.077
10/20/2013  21:16:00      -90.720      -29.189      -10.660       19.360       21.849       12.652      374.815      477.377      160.085        0.510        0.051       95.300       10.705        0.013      340.109       13.903      863.084
10/20/2013  21:17:00      -95.092      -33.132       -4.032       22.880       15.192       10.446      523.500      230.805      109.125        0.551        0.043      100.698        9.174        0.008      340.068       13.834      863.095
10/20/2013  21:18:00      -99.782      -49.142       -6.043       19.158       21.497       13.483      367.039      462.129      181.792        0.671        0.051      111.226        9.692        0.008      340.140       13.954      863.086
10/20/2013  21:19:00      -98.825      -62.674       -0.846       18.248       24.659       17.563      333.004      608.090      308.460        0.747        0.062      117.023       10.627        0.008      340.105       13.896      863.092
10/20/2013  21:20:00      -97.126      -31.201       -7.626       19.608       25.067       14.176      384.483      628.330      200.962        0.584        0.061      102.014       10.821        0.011      340.104       13.895      863.075
10/20/2013  21:21:00      -94.080      -37.280       -3.981       24.947       28.308       11.656      622.344      801.317      135.865        0.591        0.078      101.197       10.888        0.012      340.115       13.912      863.075
10/20/2013  21:22:00     -121.461      -57.920      -12.282       24.829       19.759       15.686      616.481      390.428      246.036        0.976        0.063      134.564       13.038        0.009      340.064       13.827      863.090
10/20/2013  21:23:00     -136.396      -49.882       -8.178       19.672       21.928       15.364      386.981      480.844      236.066        1.113        0.055      145.231       10.692        0.005      340.138       13.950      863.092
10/20/2013  21:24:00     -114.736      -44.675      -16.572       20.313       15.636        8.506      412.628      244.474       72.346        0.808        0.036      123.126        6.174        0.003      340.083       13.860      863.110
10/20/2013  21:25:00     -106.038      -40.363      -15.283       11.225       11.015        8.315      126.008      121.327       69.133        0.671        0.016      113.461        2.857        0.001      340.175       14.015      863.116
10/20/2013  21:26:00     -100.259      -24.944      -11.804       13.756       16.486        9.987      189.234      271.778       99.736        0.569        0.028      103.315        9.266        0.008      340.108       13.899      863.130
10/20/2013  21:27:00      -88.343       -4.190       -9.962       11.880       10.504       10.419      141.139      110.334      108.553        0.414        0.018       88.443        4.281        0.002      339.986       13.695      863.147
10/20/2013  21:28:00      -73.885       -4.174       -3.288       25.427       14.972       14.362      646.536      224.156      206.263        0.328        0.054       74.003       13.630        0.034      340.040       13.787      863.155
10/20/2013  21:29:00      -53.387      -11.775       -9.692       20.247        8.815        8.097      409.956       77.698       65.558        0.182        0.028       54.670        6.399        0.014      340.028       13.767      863.178
10/20/2013  21:30:00       -3.332      -11.345       -4.674        7.729        9.600        6.937       59.731       92.160       48.123        0.018        0.010       11.824        5.579        0.223      340.078       13.851      863.185
10/20/2013  21:31:00       -2.697      -15.439       -0.429        8.250       10.349        8.921       68.066      107.112       79.586        0.025        0.013       15.673        5.855        0.140      339.983       13.690      863.179
10/20/2013  21:32:00       -9.611      -16.496        2.875       20.842       15.145       13.621      434.399      229.378      185.538        0.061        0.042       19.092        9.525        0.249      339.701       13.215      863.182
10/20/2013  21:33:00      -38.407      -25.744       -5.758       23.899       15.098       14.213      571.166      227.948      201.995        0.159        0.050       46.237       14.399        0.097      339.584       13.017      863.174
10/20/2013  21:34:00      -81.035      -37.397      -15.104       13.088       10.442        8.320      171.299      109.029       69.222        0.427        0.017       89.248        2.675        0.001      339.531       12.929      863.170
10/20/2013  21:35:00      -81.636      -36.512      -11.073        7.648        7.457        8.537       58.496       55.604       72.880        0.415        0.009       89.429        4.157        0.002      339.510       12.892      863.181
10/20/2013  21:36:00      -79.701      -32.799       -7.497       10.343        9.351        6.981      106.986       87.435       48.730        0.386        0.012       86.186        5.023        0.003      339.661       13.149      863.186
10/20/2013  21:37:00      -61.916      -25.941       -7.497        8.841        7.544        5.348       78.155       56.917       28.605        0.236        0.008       67.131        2.735        0.002      339.772       13.336      863.194
10/20/2013  21:38:00      -60.982      -30.025       -5.866        9.382        9.283        8.132       88.020       86.167       66.124        0.245        0.012       67.973        6.110        0.008      339.812       13.402      863.201
10/20/2013  21:39:00      -72.284      -28.625       -8.857       11.960        7.154        6.325      143.054       51.180       40.001        0.318        0.012       77.745        4.159        0.003      339.744       13.288      863.193
10/20/2013  21:40:00      -72.157      -25.026       -9.348        6.965        8.610        4.355       48.506       74.140       18.969        0.303        0.007       76.373        3.053        0.002      339.775       13.339      863.207
10/20/2013  21:41:00      -70.534      -32.211       -6.364        7.163        8.962        7.070       51.303       80.325       49.984        0.312        0.009       77.541        1.311        0.000      339.661       13.147      863.207
10/20/2013  21:42:00      -69.958      -28.778       -8.204       13.950       10.375        9.573      194.602      107.642       91.644        0.309        0.020       75.645        5.796        0.006      339.522       12.912      863.205
10/20/2013  21:43:00      -99.954      -18.330      -13.911        8.272        8.919        6.497       68.433       79.543       42.213        0.536        0.010      101.621        4.873        0.002      339.417       12.736      863.221
10/20/2013  21:44:00     -119.518      -27.203      -12.114       13.577       10.393        7.379      184.332      108.017       54.447        0.776        0.017      122.575        6.760        0.003      339.458       12.804      863.220
10/20/2013  21:45:00     -105.828      -20.632      -14.614       20.941       14.170       10.980      438.533      200.782      120.565        0.630        0.038      107.821        7.715        0.005      339.425       12.750      863.228
10/20/2013  21:46:00      -98.927      -29.725      -19.606        9.246        8.140       10.028       85.486       66.257      100.567        0.565        0.013      103.297        4.237        0.002      339.488       12.853      863.241
10/20/2013  21:47:00     -106.984      -23.511      -16.459       15.748       11.587       10.335      248.003      134.260      106.820        0.638        0.024      109.537        8.124        0.006      339.400       12.708      863.233
10/20/2013  21:48:00     -117.087      -17.765      -18.884       22.096       13.635       12.093      488.232      185.919      146.249        0.760        0.041      118.427       11.668        0.010      339.296       12.531      863.232
10/20/2013  21:49:00     -132.901      -22.433      -19.921       14.578       10.901       10.722      212.531      118.829      114.962        0.950        0.022      134.781        7.441        0.003      339.244       12.444      863.242
10/20/2013  21:50:00     -141.219      -24.819      -19.862       10.837       10.952        9.659      117.438      119.941       93.299        1.064        0.017      143.384        6.827        0.002      339.180       12.337      863.237
10/20/2013  21:51:00     -121.446      -31.234      -12.514       14.636       13.109       11.356      214.217      171.849      128.966        0.820        0.026      125.398        9.064        0.005      339.145       12.276      863.248
10/20/2013  21:52:00     -117.145      -30.427      -12.798       22.544       21.267       15.622      508.252      452.291      244.036        0.801        0.060      121.032       13.782        0.013      339.022       12.069      863.249
10/20/2013  21:53:00     -142.352       -9.503      -15.952       30.232       17.192       19.429      913.976      295.554      377.479        1.110        0.079      142.669       17.765        0.016      339.025       12.076      863.252
10/20/2013  21:54:00     -123.825      -25.761      -13.753       34.786       26.323       17.817     1210.062      692.925      317.428        0.920        0.111      126.476       18.301        0.021      339.015       12.058      863.272
10/20/2013  21:55:00     -109.837      -30.686       -7.163       35.006       27.660       18.923     1225.400      765.080      358.062        0.770        0.117      114.043       18.507        0.026      338.922       11.904      863.276
10/20/2013  21:56:00      -87.196      -14.246      -10.335       44.094       33.084       21.610     1944.310     1094.557      466.987        0.571        0.175       88.352       19.946        0.051      338.923       11.905      863.298
10/20/2013  21:57:00     -102.403       -7.042       -8.033       54.647       26.319       26.530     2986.252      692.710      703.847        0.749        0.219      102.645       32.459        0.100      338.960       11.968      863.312
10/20/2013  21:58:00      -96.100      -28.706       -6.549       32.791       25.432       19.259     1075.280      646.795      370.901        0.610        0.105      100.295       16.956        0.029      338.927       11.911      863.323
10/20/2013  21:59:00      -80.589      -65.232      -15.544       16.900       17.090       13.530      285.614      292.082      183.051        0.588        0.038      103.681        8.512        0.007      338.940       11.934      863.340
10/20/2013  22:00:00      -75.202      -47.627      -17.483       26.819       18.729       19.742      719.257      350.762      389.744        0.484        0.073       89.015       14.926        0.028      338.913       11.889      863.348
10/20/2013  22:01:00      -89.958      -49.161      -17.380       25.119       17.161       16.314      630.948      294.506      266.159        0.600        0.060      102.515       11.548        0.013      338.922       11.902      863.367
10/20/2013  22:02:00      -83.399      -44.781      -18.295       16.095       12.452       12.458      259.055      155.044      155.196        0.493        0.028       94.661       10.772        0.013      338.848       11.777      863.381
10/20/2013  22:03:00      -91.563      -14.396      -16.438       20.427       11.315       11.052      417.247      128.022      122.143        0.476        0.033       92.688       11.572        0.016      338.867       11.809      863.403
10/20/2013  22:04:00      -75.460      -27.515      -18.353       13.083       10.160       10.029      171.153      103.219      100.584        0.358        0.019       80.320        3.461        0.002      338.976       11.993      863.421
10/20/2013  22:05:00      -74.409      -30.601      -14.955       10.569        7.921        8.146      111.703       62.741       66.353        0.347        0.012       80.456        3.884        0.002      339.055       12.128      863.446
10/20/2013  22:06:00      -77.915      -10.571      -13.755        7.814        8.057        5.911       61.062       64.908       34.937        0.327        0.008       78.629        2.485        0.001      339.095       12.193      863.448
10/20/2013  22:07:00      -82.176      -20.416      -15.815       10.898        8.954        7.296      118.767       80.177       53.231        0.384        0.013       84.674        3.278        0.001      339.057       12.129      863.457
10/20/2013  22:08:00      -89.576      -42.981      -14.381        7.675        9.171        6.998       58.901       84.103       48.969        0.513        0.010       99.354        4.676        0.002      339.130       12.252      863.446
10/20/2013  22:09:00      -88.868      -40.979      -11.015       18.198        7.963        7.421      331.177       63.411       55.077        0.507        0.022       97.862        7.719        0.006      339.164       12.311      863.449
10/20/2013  22:10:00      -51.098      -28.435      -13.374       10.990       10.843       10.389      120.770      117.569      107.928        0.197        0.017       58.477        3.415        0.003      339.032       12.089      863.460
10/20/2013  22:11:00      -27.516      -27.516       -0.126       22.943        8.128        9.328      526.377       66.072       87.007        0.110        0.034       38.914        6.381        0.027      338.969       11.981      863.476
10/20/2013  22:12:00      -10.503      -20.225        3.759       18.087       19.751        8.995      327.151      390.085       80.916        0.067        0.040       22.789        6.005        0.069      338.941       11.935      863.498
10/20/2013  22:13:00      -36.352      -20.412        0.901       15.259       16.567       11.767      232.832      274.455      138.469        0.119        0.032       41.691        9.036        0.047      338.840       11.765      863.503
10/20/2013  22:14:00      -24.935      -15.794        7.972       28.218       16.786       15.177      796.250      281.757      230.352        0.112        0.065       29.516       16.807        0.324      338.777       11.661      863.523
10/20/2013  22:15:00      -45.892      -15.320        6.900       38.891       19.184       17.492     1512.513      368.032      305.961        0.229        0.109       48.381       15.487        0.102      338.792       11.684      863.525
10/20/2013  22:16:00      -45.035      -41.793       -7.295       36.521       32.825       15.991     1333.795     1077.455      255.716        0.325        0.133       61.440       13.603        0.049      338.816       11.726      863.543
10/20/2013  22:17:00      -70.856      -57.145       -8.883       31.186       27.026       20.647      972.571      730.381      426.319        0.525        0.106       91.028       19.282        0.045      338.786       11.675      863.551
10/20/2013  22:18:00      -52.525      -24.639        6.199       42.416       25.396       17.679     1799.101      644.976      312.533        0.308        0.138       58.017       21.699        0.140      338.714       11.553      863.554
10/20/2013  22:19:00      -68.073      -17.590       -7.119       24.534       16.522       10.571      601.925      272.973      111.748        0.299        0.049       70.309        6.873        0.010      338.667       11.475      863.563
10/20/2013  22:20:00      -72.663      -14.066       -1.441       24.594       15.435       14.250      604.864      238.244      203.075        0.326        0.052       74.012       14.957        0.041      338.633       11.417      863.563
10/20/2013  22:21:00      -95.417      -27.254       -3.639       17.416       12.767       10.215      303.305      163.004      104.352        0.522        0.029       99.233        9.970        0.010      338.645       11.437      863.560
10/20/2013  22:22:00      -89.671      -17.775       -6.711       18.986       17.809       11.147      360.466      317.172      124.253        0.460        0.040       91.416        9.189        0.010      338.559       11.294      863.574
10/20/2013  22:23:00      -67.763      -22.484        3.169       24.382       18.938       13.669      594.490      358.629      186.845        0.312        0.057       71.396       12.872        0.033      338.509       11.208      863.581
10/20/2013  22:24:00      -89.277      -15.682        0.667       33.202       17.816       16.632     1102.379      317.404      276.629        0.496        0.085       90.644       17.793        0.039      338.428       11.072      863.583
10/20/2013  22:25:00      -93.396      -14.221       -0.458       34.432       21.550       17.086     1185.570      464.392      291.924        0.543        0.097       94.473       18.848        0.040      338.369       10.973      863.593
10/20/2013  22:26:00     -108.238      -13.199       -8.348       32.279       19.368       15.058     1041.906      375.128      226.744        0.680        0.082      109.040       12.143        0.012      338.438       11.090      863.580
10/20/2013  22:27:00     -140.303      -18.963      -14.347       22.627       15.276       12.464      511.997      233.364      155.347        1.058        0.045      141.579        9.059        0.004      338.461       11.128      863.569
10/20/2013  22:28:00     -129.447      -28.549      -10.021       22.397       16.274       15.568      501.610      264.848      242.372        0.934        0.050      132.557       11.557        0.008      338.403       11.029      863.554
10/20/2013  22:29:00     -112.022      -28.668      -13.123       23.188       20.080       16.744      537.670      403.211      280.346        0.738        0.061      115.632        9.632        0.007      338.419       11.057      863.539
10/20/2013  22:30:00     -128.813      -38.691      -12.021       13.906       18.303        8.907      193.383      334.984       79.327        0.942        0.030      134.498        5.340        0.002      338.381       10.994      863.542
10/20/2013  22:31:00     -131.072      -42.758      -15.504       16.601       17.014       14.364      275.606      289.472      206.337        1.001        0.039      137.869       11.691        0.007      338.305       10.867      863.546
10/20/2013  22:32:00     -127.656      -18.124      -18.698       27.125       16.477       15.023      735.787      271.480      225.678        0.910        0.062      128.936       13.217        0.011      338.340       10.924      863.544
10/20/2013  22:33:00     -137.224      -31.971      -18.035       19.471       22.102       16.638      379.132      488.504      276.830        1.066        0.057      140.899       10.908        0.006      338.196       10.683      863.555
10/20/2013  22:34:00     -103.011      -31.085       -2.865       47.924       50.440       23.121     2296.752     2544.176      534.587        0.848        0.269      107.599       16.673        0.024      338.238       10.754      863.548
10/20/2013  22:35:00     -111.844      -30.459       -2.833       50.048       37.390       30.491     2504.844     1398.029      929.704        0.914        0.242      115.918       28.441        0.060      338.205       10.698      863.538
10/20/2013  22:36:00      -90.001      -45.818       -4.751       45.095       35.428       25.365     2033.521     1255.155      643.370        0.708        0.197      100.992       17.955        0.032      338.178       10.653      863.541
10/20/2013  22:37:00     -154.135      -36.612      -12.345       47.332       30.591       24.969     2240.285      935.813      623.433        1.452        0.190      158.423       26.432        0.028      338.203       10.695      863.545
10/20/2013  22:38:00     -104.400      -27.873       -9.087       29.490       31.802       17.311      869.681     1011.356      299.656        0.697        0.109      108.057        9.066        0.007      338.099       10.520      863.545
10/20/2013  22:39:00     -115.895      -47.878       -7.171       48.958       36.832       24.328     2396.902     1356.620      591.845        1.006        0.217      125.395       15.448        0.015      338.158       10.620      863.555
10/20/2013  22:40:00     -114.124      -21.550       -8.350       40.754       38.944       23.599     1660.916     1516.623      556.912        0.865        0.187      116.141       17.567        0.023      338.300       10.857      863.554
10/20/2013  22:41:00     -128.995       15.036      -18.646       42.848       33.629       22.689     1835.975     1130.935      514.794        1.035        0.174      129.868       17.675        0.019      338.540       11.260      863.553
10/20/2013  22:42:00     -125.651        0.547      -18.871       53.418       42.080       21.364     2853.464     1770.687      456.403        1.061        0.254      125.652       17.224        0.019      338.635       11.420      863.555
10/20/2013  22:43:00      -69.735       15.077       -6.894       89.385       44.166       29.486     7989.674     1950.651      869.415        0.797        0.540       71.346       29.428        0.170      338.695       11.523      863.563
10/20/2013  22:44:00     -116.108       21.599      -10.504       50.996       44.440       26.159     2600.549     1974.876      684.307        0.966        0.263      118.100       16.571        0.020      338.647       11.441      863.576
10/20/2013  22:45:00     -108.857       -4.272       -9.219       38.434       47.359       31.350     1477.161     2242.904      982.809        0.833        0.235      108.941       16.010        0.022      338.568       11.309      863.591
10/20/2013  22:46:00      -81.373       -9.756      -10.245       32.954       41.773       17.650     1085.975     1745.015      311.538        0.498        0.157       81.956        7.647        0.009      338.523       11.232      863.613
10/20/2013  22:47:00      -42.833      -31.561        3.273       34.821       37.774       19.496     1212.503     1426.898      380.083        0.293        0.151       53.205       19.995        0.141      338.456       11.119      863.623
10/20/2013  22:48:00      -89.452      -18.310       -4.849       28.806       30.858       20.717      829.765      952.194      429.208        0.529        0.111       91.306       13.836        0.023      338.496       11.186      863.647
10/20/2013  22:49:00     -126.732      -20.217      -15.533       41.448       41.871       22.125     1717.900     1753.188      489.535        1.034        0.198      128.334       21.340        0.028      338.520       11.227      863.647
10/20/2013  22:50:00     -107.518      -20.550       -6.548       22.135       29.844       16.888      489.955      890.651      285.217        0.685        0.083      109.464        9.051        0.007      338.487       11.172      863.652
10/20/2013  22:51:00     -113.035      -27.643       -7.671       34.903       28.436       16.756     1218.189      808.605      280.774        0.795        0.115      116.366       16.075        0.019      338.457       11.120      863.642
10/20/2013  22:52:00      -76.150      -16.834       -8.118       36.509       26.195       18.658     1332.939      686.171      348.110        0.426        0.118       77.989       18.610        0.057      338.308       10.871      863.650
10/20/2013  22:53:00      -98.325       -0.256       -7.061       29.498       27.224       23.159      870.110      741.165      536.332        0.593        0.107       98.325       15.665        0.025      338.458       11.124      863.661
10/20/2013  22:54:00      -85.685      -11.770       -9.066       38.158       29.234       23.692     1456.055      854.622      561.322        0.522        0.144       86.489       23.570        0.074      338.471       11.144      863.664
10/20/2013  22:55:00      -95.062      -19.948       -5.497       29.517       23.367       16.141      871.243      546.002      260.527        0.557        0.084       97.132       11.853        0.015      338.463       11.131      863.672
10/20/2013  22:56:00      -97.804      -21.686      -15.807       15.966       26.653       12.508      254.915      710.403      156.460        0.570        0.056      100.179        9.166        0.008      338.424       11.067      863.673
10/20/2013  22:57:00     -103.092      -21.119       -8.353       36.501       23.771       15.603     1332.305      565.052      243.447        0.664        0.107      105.233       15.018        0.020      338.337       10.920      863.670
10/20/2013  22:58:00     -111.588       -6.147       -7.237       32.376       25.886       16.728     1048.224      670.080      279.828        0.727        0.100      111.757       16.469        0.022      338.383       10.997      863.685
10/20/2013  22:59:00      -91.943       -0.000       -6.993       41.185       38.058       26.100     1696.242     1448.389      681.224        0.616        0.191       91.943       25.709        0.078      338.490       11.176      863.677
10/20/2013  23:00:00      -89.744        0.305      -12.397       37.683       24.501       20.014     1420.034      600.294      400.577        0.531        0.121       89.745       15.963        0.032      338.542       11.264      863.679
10/20/2013  23:01:00     -121.280        4.139      -15.057       37.707       26.858       20.037     1421.852      721.333      401.501        0.875        0.127      121.350       17.086        0.020      338.539       11.260      863.691
10/20/2013  23:02:00      -99.965      -23.645       -6.558       24.114       27.100       18.218      581.496      734.428      331.895        0.612        0.082      102.723       14.901        0.021      338.492       11.180      863.683
10/20/2013  23:03:00      -67.507      -10.210       -4.384       27.873       30.603       18.536      776.927      936.522      343.577        0.337        0.103       68.275       15.263        0.050      338.396       11.021      863.686
10/20/2013  23:04:00      -89.655      -40.683      -10.412       14.566       23.974       10.073      212.168      574.749      101.465        0.534        0.044       98.453        6.880        0.005      338.316       10.885      863.687
10/20/2013  23:05:00      -83.475      -29.919       -6.698       23.742       30.824       15.485      563.700      950.138      239.776        0.483        0.088       88.675       10.610        0.014      338.226       10.733      863.681
10/20/2013  23:06:00      -98.859      -59.768       -4.045       24.700       23.832       19.208      610.073      567.980      368.939        0.745        0.077      115.521       15.493        0.018      338.252       10.777      863.683
10/20/2013  23:07:00      -86.864      -45.543       -2.928       50.633       31.296       22.269     2563.720      979.471      495.888        0.683        0.202       98.079       27.473        0.078      338.233       10.745      863.685
10/20/2013  23:08:00     -129.560      -52.851      -10.152       34.085       19.550       20.328     1161.807      382.198      413.225        1.082        0.098      139.925       16.548        0.014      338.286       10.835      863.683
10/20/2013  23:09:00     -100.650      -55.956      -10.770       16.367       16.150        9.809      267.886      260.829       96.214        0.700        0.031      115.159        4.723        0.002      338.282       10.829      863.682
10/20/2013  23:10:00      -88.178      -58.999       -7.294       18.911       21.189       12.864      357.621      448.991      165.481        0.614        0.049      106.095       12.199        0.013      338.344       10.930      863.687
10/20/2013  23:11:00     -113.065      -75.569       -6.025       22.699       16.806       14.656      515.236      282.437      214.801        0.977        0.051      135.994       10.979        0.007      338.404       11.033      863.679
10/20/2013  23:12:00     -105.718      -56.317       -6.122       37.001       27.308       20.881     1369.107      745.754      436.022        0.847        0.128      119.783       14.496        0.015      338.302       10.862      863.683
10/20/2013  23:13:00      -95.105      -63.913        1.602       37.577       23.603       21.063     1412.021      557.109      443.647        0.777        0.121      114.585       10.284        0.008      338.306       10.869      863.702
10/20/2013  23:14:00      -63.411      -47.844       10.784       50.856       33.723       24.433     2586.339     1137.272      596.966        0.537        0.216       79.436       26.326        0.110      338.240       10.756      863.705
10/20/2013  23:15:00      -22.346      -37.046       15.727       42.706       41.617       22.250     1823.786     1731.961      495.082        0.308        0.203       43.264       15.531        0.129      338.217       10.719      863.718
10/20/2013  23:16:00      -57.307     -110.620       -0.031       53.285       40.634       38.693     2839.330     1651.085     1497.147        1.075        0.299      124.583       35.186        0.080      338.352       10.946      863.745
10/20/2013  23:17:00      -58.363      -76.382      -13.729       42.507       42.947       24.498     1806.860     1844.472      600.128        0.684        0.213       96.127       20.894        0.047      338.441       11.095      863.759
10/20/2013  23:18:00      -64.036      -60.867       -1.464       32.207       28.023       17.209     1037.293      785.313      296.141        0.496        0.106       88.348       13.097        0.022      338.229       10.738      863.769
10/20/2013  23:19:00      -99.413      -56.317       -4.455       77.844       43.961       32.249     6059.732     1932.585     1039.989        1.105        0.452      114.257       30.617        0.072      337.975       10.311      863.779
10/20/2013  23:20:00     -124.961      -82.405       -3.782       46.537       57.590       36.189     2165.698     3316.612     1309.664        1.460        0.340      149.686       35.185        0.055      337.782        9.986      863.788
10/20/2013  23:21:00     -179.023     -103.339       -5.248       59.619       52.718       32.565     3554.466     2779.188     1060.493        2.507        0.370      206.708       27.485        0.018      337.687        9.826      863.794
10/20/2013  23:22:00     -139.061      -87.023       -5.353       55.823       39.172       33.013     3116.231     1534.458     1089.858        1.634        0.287      164.045       32.431        0.039      337.687        9.829      863.803
10/20/2013  23:23:00     -163.336      -60.807       -2.553       32.997       24.752       15.258     1088.821      612.654      232.797        1.616        0.097      174.287       13.905        0.006      337.783        9.990      863.823
10/20/2013  23:24:00     -127.781      -54.161       -8.664       42.976       31.281       16.465     1846.935      978.473      271.109        1.122        0.155      138.785       16.802        0.015      337.799       10.018      863.830
10/20/2013  23:25:00     -141.590      -54.273       -7.699       26.547       22.636       17.670      704.757      512.407      312.234        1.229        0.076      151.635       14.513        0.009      337.773        9.974      863.833
10/20/2013  23:26:00     -149.602      -54.302       -7.026       29.010       31.143       18.015      841.561      969.862      324.530        1.376        0.107      159.153       15.989        0.010      337.828       10.067      863.850
10/20/2013  23:27:00     -128.026      -38.317       -5.384       20.238       20.148       16.677      409.576      405.938      278.124        0.949        0.055      133.637       10.456        0.006      337.767        9.964      863.863
10/20/2013  23:28:00     -139.754      -39.097       -3.964       30.866       27.138       18.347      952.720      736.477      336.614        1.155        0.101      145.120       15.434        0.011      337.764        9.959      863.864
10/20/2013  23:29:00     -106.290      -29.048       -0.704       29.908       23.641       17.824      894.497      558.886      317.698        0.696        0.089      110.188       12.511        0.013      337.721        9.886      863.878
10/20/2013  23:30:00      -78.603      -30.180        7.362       36.680       22.544       20.541     1345.397      508.220      421.918        0.471        0.114       84.198       20.501        0.059      337.711        9.869      863.879
10/20/2013  23:31:00      -95.815      -38.786       -3.986       19.920       18.241       13.100      396.793      332.751      171.608        0.580        0.045      103.367        8.293        0.006      337.771        9.970      863.879
10/20/2013  23:32:00      -51.904      -27.460        4.577       32.653       19.964       16.458     1066.187      398.580      270.864        0.260        0.087       58.720       17.574        0.090      337.755        9.943      863.882
10/20/2013  23:33:00      -61.255      -28.178        6.896       35.303       22.831       17.721     1246.272      521.269      314.023        0.334        0.104       67.425       14.638        0.047      337.758        9.948      863.883
10/20/2013  23:34:00      -43.758      -24.691        6.492       39.717       22.983       17.322     1577.447      528.222      300.043        0.249        0.120       50.243       15.310        0.093      337.738        9.914      863.881
10/20/2013  23:35:00      -57.946      -40.649        3.904       27.157       26.969       17.632      737.520      727.307      310.887        0.340        0.089       70.782       15.057        0.045      337.748        9.931      863.884
10/20/2013  23:36:00      -78.498      -44.010        3.817       38.148       29.916       21.839     1455.278      894.969      476.958        0.547        0.141       89.994       21.598        0.058      337.707        9.862      863.887
10/20/2013  23:37:00     -116.538      -52.110      -10.995       12.659       20.426       12.213      160.249      417.202      149.154        0.857        0.036      127.657        4.081        0.001      337.731        9.903      863.882
10/20/2013  23:38:00     -133.745      -57.383       -7.103       14.629       17.525       11.034      214.021      307.136      121.756        1.094        0.032      145.536        5.544        0.001      337.755        9.942      863.882
10/20/2013  23:39:00     -132.927      -45.709        2.080       35.947       26.518       16.785     1292.196      703.219      281.732        1.102        0.114      140.567       17.766        0.016      337.675        9.810      863.888
10/20/2013  23:40:00     -103.936      -54.774        9.606       36.543       34.043       22.642     1335.390     1158.949      512.660        0.845        0.150      117.486       20.730        0.031      337.717        9.879      863.901
10/20/2013  23:41:00      -86.792      -38.231        7.557       42.675       32.385       21.308     1821.160     1048.762      454.031        0.619        0.166       94.840       22.808        0.058      337.717        9.880      863.923
10/20/2013  23:42:00      -73.082      -41.001        8.763       39.117       24.608       17.531     1530.165      605.556      307.346        0.477        0.122       83.798       19.501        0.054      337.731        9.902      863.941
10/20/2013  23:43:00      -68.729      -46.074       -2.513       36.241       21.884       19.503     1313.380      478.891      380.352        0.451        0.109       82.743       21.681        0.069      337.695        9.842      863.944
10/20/2013  23:44:00      -94.742      -58.579       -0.647       20.062       19.021       14.066      402.479      361.784      197.844        0.668        0.048      111.390        8.655        0.006      337.739        9.915      863.942
10/20/2013  23:45:00     -104.326      -61.781       -0.847       30.150       28.250       18.363      909.033      798.040      337.213        0.837        0.102      121.247       17.774        0.021      337.828       10.066      863.941
10/20/2013  23:46:00     -134.765      -63.511       -5.913       30.085       18.463       18.623      905.088      340.895      346.801        1.191        0.080      148.980       17.906        0.014      337.759        9.949      863.935
10/20/2013  23:47:00     -121.376      -54.011      -11.757       25.577       22.289       17.713      654.158      496.813      313.739        0.963        0.073      132.851       14.765        0.012      337.684        9.824      863.937
10/20/2013  23:48:00      -70.203      -57.938       -6.341       43.308       15.727       13.611     1875.556      247.348      185.271        0.532        0.115       91.023       15.585        0.029      337.678        9.815      863.956
10/20/2013  23:49:00      -15.874      -14.257        6.918       26.444       19.361       16.819      699.287      374.858      282.891        0.093        0.068       21.336       13.471        0.399      337.556        9.610      863.984
10/20/2013  23:50:00      -53.144       -4.188       -8.102       19.154       20.687       13.667      366.889      427.937      186.795        0.194        0.049       53.309        4.934        0.009      337.828       10.066      863.993
10/20/2013  23:51:00      -87.818      -28.532      -13.222       14.949       21.827       11.225      223.469      476.437      126.006        0.476        0.041       92.336        7.081        0.006      337.924       10.228      864.002
10/20/2013  23:52:00      -60.952      -30.947      -11.603       23.808       15.303       11.823      566.838      234.179      139.791        0.287        0.047       68.358        8.888        0.017      337.846       10.097      864.013
10/20/2013  23:53:00      -69.737      -21.999      -15.307       20.174       22.263       11.800      407.007      495.645      139.248        0.331        0.052       73.125       10.853        0.022      337.810       10.035      864.013
10/20/2013  23:54:00     -105.487      -23.732      -14.982       31.026       24.235       14.817      962.621      587.342      219.530        0.684        0.088      108.124       12.679        0.014      337.832       10.072      864.021
10/20/2013  23:55:00     -106.239      -54.667      -14.901       23.860       25.266       12.631      569.303      638.385      159.538        0.793        0.068      119.479       13.046        0.012      337.761        9.953      864.027
10/20/2013  23:56:00     -109.341      -34.770      -18.271       24.569       26.103       21.712      603.633      681.368      471.420        0.763        0.088      114.736       17.423        0.023      337.672        9.805      864.026
10/20/2013  23:57:00      -89.196      -49.459      -14.451       16.807       21.232       13.886      282.476      450.787      192.825        0.577        0.046      101.991        9.205        0.008      337.598        9.681      864.030
10/20/2013  23:58:00      -87.900      -40.778      -16.250       11.582       12.625        8.262      134.144      159.392       68.261        0.501        0.018       96.899        6.893        0.005      337.637        9.747      864.033
10/20/2013  23:59:00     -106.192      -31.700      -18.811       19.798       11.822        9.349      391.958      139.767       87.404        0.663        0.031      110.822        9.832        0.008      337.643        9.756      864.030
